[[{"header":{"parameterUnit":"m.s-1","parameterCategory":1,"la1":31.0,"la2":29.5877,"lo1":-88.7671,"lo2":-86.6584,"dy":0.0162,"dx":0.0185,"nx":115,"ny":88,"refTime":"2024-07-09T06:00:00:Z","depth":0,"parameterNumber":2,"parameterNumberName":"U-component_of_WINDS"},"data":[0.0,0.0,0.0,0.0,0.0,0.0,0.0,0.0,0.0,0.0,0.0,0.0,0.0,0.0,0.0,0.0,0.0,0.0,0.0,0.0,0.0,0.0,0.0,0.0,0.0,0.0,0.0,0.0,0.0,0.0,0.0,0.0,0.0,0.0,0.0,0.0,0.0,0.0,0.0,0.0,0.0,0.0,0.0,0.0,0.0,0.0,0.0,0.0,0.0,0.0,0.0,0.0,0.0,0.0,0.0,0.0,0.0,0.0,0.0,0.0,0.0,0.0,0.0,0.0,0.0,0.0,0.0,0.0,0.0,0.0,0.0,0.0,0.0,0.0,0.0,0.0,0.0,0.0,0.0,0.0,0.0,0.0,0.0,0.0,0.0,0.0,0.0,0.0,0.0,0.0,0.0,0.0,0.0,0.0,0.0,0.0,0.0,0.0,0.0,0.0,0.0,0.0,0.0,0.0,0.0,0.0,0.0,0.0,0.0,0.0,0.0,0.0,0.0,0.0,0.0,0.0,0.0,0.0,0.0,0.0,0.0,0.0,0.0,0.0,0.0,0.0,0.0,0.0,0.0,0.0,0.0,0.0,0.0,0.0,0.0,0.0,0.0,0.0,0.0,0.0,0.0,0.0,0.0,0.0,0.0,0.0,0.0,0.0,0.0,0.0,0.0,0.0,0.0,0.0,0.0,0.0,0.0,0.0,0.0,0.0,0.0,0.0,0.0,0.0,0.0,0.0,0.0,0.0,0.0,0.0,0.0,0.0,0.0,0.0,0.0,0.0,0.0,0.0,0.0,0.0,0.0,0.0,0.0,0.0,0.0,0.0,0.0,0.0,0.0,0.0,0.0,0.0,0.0,0.0,0.0,0.0,0.0,0.0,0.0,0.0,0.0,0.0,0.0,0.0,0.0,0.0,0.0,0.0,0.0,0.0,0.0,0.0,0.0,0.0,0.0,0.0,0.0,0.0,0.0,0.0,0.0,0.0,0.0,0.0,0.0,0.0,0.0,0.0,0.0,0.0,0.0,0.0,0.0,0.0,0.0,0.0,0.0,0.0,0.0,0.0,0.0,0.0,0.0,0.0,0.0,0.0,0.0,0.0,0.0,0.0,0.0,0.0,0.0,0.0,0.0,0.0,0.0,0.0,0.0,0.0,0.0,0.0,0.0,0.0,0.0,0.0,0.0,0.0,0.0,0.0,0.0,0.0,0.0,0.0,0.0,0.0,0.0,0.0,0.0,0.0,0.0,0.0,0.0,0.0,0.0,0.0,0.0,0.0,0.0,0.0,0.0,0.0,0.0,0.0,0.0,0.0,0.0,0.0,0.0,0.0,0.0,0.0,0.0,0.0,0.0,0.0,0.0,0.0,0.0,0.0,0.0,0.0,0.0,0.0,0.0,0.0,0.0,0.0,0.0,0.0,0.0,0.0,0.0,0.0,0.0,0.0,0.0,0.0,0.0,0.0,0.0,0.0,0.0,0.0,0.0,0.0,0.0,0.0,0.0,0.0,0.0,0.0,0.0,0.0,0.0,0.0,0.0,0.0,0.0,0.0,0.0,0.0,0.0,0.0,0.0,0.0,0.0,0.0,0.0,0.0,0.0,0.0,0.0,0.0,0.0,0.0,0.0,0.0,0.0,0.0,0.0,0.0,0.0,0.0,0.0,0.0,0.0,0.0,0.0,0.0,0.0,0.0,0.0,0.0,0.0,0.0,0.0,0.0,0.0,0.0,0.0,0.0,0.0,0.0,0.0,0.0,0.0,0.0,0.0,0.0,0.0,0.0,0.0,0.0,0.0,0.0,0.0,0.0,0.0,0.0,0.0,0.0,0.0,0.0,0.0,0.0,0.0,0.0,0.0,0.0,0.0,0.0,0.0,0.0,0.0,0.0,0.0,0.0,0.0,0.0,0.0,0.0,0.0,0.0,0.0,0.0,0.0,0.0,0.0,0.0,0.0,0.0,0.0,0.0,0.0,0.0,0.0,0.0,0.0,0.0,0.0,0.0,0.0,0.0,0.0,0.0,0.0,0.0,0.0,0.0,0.0,0.0,0.0,0.0,0.0,0.0,0.0,0.0,0.0,0.0,0.0,0.0,0.0,0.0,0.0,0.0,0.0,0.0,0.0,0.0,0.0,0.0,0.0,0.0,0.0,0.0,0.0,0.0,0.0,0.0,0.0,0.0,0.0,0.0,0.0,0.0,0.0,0.0,0.0,0.0,0.0,0.0,0.0,0.0,0.0,0.0,0.0,0.0,0.0,0.0,0.0,0.0,0.0,0.0,0.0,0.0,0.0,0.0,0.0,0.0,0.0,0.0,0.0,0.0,0.0,0.0,0.0,0.0,0.0,0.0,0.0,0.0,0.0,0.0,0.0,0.0,0.0,0.0,0.0,0.0,0.0,0.0,0.0,0.0,0.0,0.0,0.0,0.0,0.0,0.0,0.0,0.0,0.0,0.0,0.0,0.0,0.0,0.0,0.0,0.0,0.0,0.0,0.0,0.0,0.0,0.0,0.0,0.0,0.0,0.0,0.0,0.0,0.0,0.0,0.0,0.0,0.0,0.0,0.0,0.0,0.0,0.0,0.0,0.0,0.0,0.0,0.0,0.0,0.0,0.0,0.0,0.0,0.0,0.0,0.0,0.0,0.0,0.0,0.0,0.0,0.0,0.0,0.0,0.0,0.0,0.0,0.0,0.0,0.0,0.0,0.0,0.0,0.0,0.0,0.0,0.0,0.0,0.0,0.0,0.0,0.0,0.0,0.0,0.0,0.0,0.0,0.0,0.0,0.0,0.0,0.0,0.0,0.0,0.0,0.0,0.0,0.0,0.0,0.0,0.0,0.0,0.0,0.0,0.0,0.0,0.0,0.0,0.0,0.0,0.0,0.0,0.0,0.0,0.0,0.0,0.0,0.0,0.0,0.0,0.0,0.0,0.0,0.0,0.0,0.0,0.0,0.0,0.0,0.0,0.0,0.0,0.0,0.0,0.0,0.0,0.0,0.0,0.0,0.0,0.0,0.0,0.0,0.0,0.0,0.0,0.0,0.0,0.0,0.0,0.0,0.0,0.0,0.0,0.0,0.0,0.0,0.0,0.0,0.0,0.0,0.0,0.0,0.0,0.0,0.0,0.0,0.0,0.0,0.0,0.0,0.0,0.0,0.0,0.0,0.0,0.0,0.0,0.0,0.0,0.0,0.0,0.0,0.0,0.0,0.0,0.0,0.0,0.0,0.0,0.0,0.0,0.0,0.0,0.0,0.0,0.0,0.0,0.0,0.0,0.0,0.0,0.0,0.0,0.0,0.0,0.0,0.0,0.0,0.0,0.0,0.0,0.0,0.0,0.0,0.0,0.0,0.0,0.0,0.0,0.0,0.0,0.0,0.0,0.0,0.0,0.0,0.0,0.0,0.0,0.0,0.0,0.0,0.0,0.0,0.0,0.0,0.0,0.0,0.0,0.0,0.0,0.0,0.0,0.0,0.0,0.0,0.0,0.0,0.0,0.0,0.0,0.0,0.0,0.0,0.0,0.0,0.0,0.0,0.0,0.0,0.0,0.0,0.0,0.0,0.0,0.0,0.0,0.0,0.0,0.0,0.0,0.0,0.0,0.0,0.0,0.0,0.0,0.0,0.0,0.0,0.0,0.0,0.0,0.0,0.0,0.0,0.0,0.0,0.0,0.0,0.0,0.0,0.0,0.0,0.0,0.0,0.0,0.0,0.0,0.0,0.0,0.0,0.0,0.0,0.0,0.0,0.0,0.0,0.0,0.0,0.0,0.0,0.0,0.0,0.0,0.0,0.0,0.0,0.0,0.0,0.0,0.0,0.0,0.0,0.0,0.0,0.0,0.0,0.0,0.0,0.0,0.0,0.0,0.0,0.0,0.0,0.0,0.0,0.0,0.0,0.0,0.0,0.0,0.0,0.0,0.0,0.0,0.0,0.0,0.0,0.0,0.0,0.0,0.0,0.0,0.0,0.0,0.0,0.0,0.0,0.0,0.0,0.0,0.0,0.0,0.0,0.0,0.0,0.0,0.0,0.0,0.0,0.0,0.0,0.0,0.0,0.0,0.0,0.0,0.0,0.0,0.0,0.0,0.0,0.0,0.0,0.0,0.0,0.0,0.0,0.0,0.0,0.0,0.0,0.0,0.0,0.0,0.0,0.0,0.0,0.0,0.0,0.0,0.0,0.0,0.0,0.0,0.0,0.0,0.0,0.0,0.0,0.0,0.0,0.0,0.0,0.0,0.0,0.0,0.0,0.0,0.0,0.0,0.0,0.0,0.0,0.0337,0.0,0.0,0.0,0.0,0.0,0.0,0.0,0.0,0.0,0.0,0.0,0.0,0.0,0.0,0.0,0.0,0.0,0.0,0.0,0.0,0.0,0.0,0.0,0.0,0.0,0.0,0.0,0.0,0.0,0.0,0.0,0.0,0.0,0.0,0.0,0.0,0.0,0.0,0.0,0.0,0.0,0.0,0.0,0.0,0.0,0.0,0.0,0.0,0.0,0.0,0.0,0.0,0.0,0.0,0.0,0.0,0.0,0.0,0.0,0.0,0.0,0.0,0.0,0.0,0.0,0.0,0.0,0.0,0.0,0.0,0.0,0.0,0.0,0.0,0.0,0.0,0.0,0.0,0.0,0.0,0.0,0.0,0.0,0.0,0.0,0.0,0.0,0.0,0.0,0.0,0.0,0.0,0.0,0.0,0.0,0.0,0.0,0.0,0.0,0.0,0.0,0.0,0.0,0.0,0.0,0.0,0.0,0.0,0.0,0.0,0.018,0.0406,0.0337,0.0315,0.0406,0.0,0.0,0.0,0.0,0.0,0.0,0.0,0.0,0.0,0.0,0.0,0.0,0.0,0.0,0.0,0.0,0.0,0.0,0.0,0.0,0.0,0.0,0.0,0.0,0.0,0.0,0.0,0.0,0.0,0.0,0.0,0.0,0.0,0.0,0.0,0.0,0.0,0.0,0.0,0.0,0.0,0.0,0.0,0.0,0.0,0.0,0.0,0.0,0.0,0.0,0.0,0.0,0.0,0.0,0.0,0.0,0.0,0.0,0.0,0.0,0.0,0.0,0.0,0.0,0.0,0.0,0.0,0.0,0.0,0.0,0.0,0.0,0.0,0.0,0.0,0.0,0.0,0.0,0.0,0.0,0.0,0.0,0.0,0.0,0.0,0.0,0.0,0.0,0.0,0.0,0.0,0.0,0.0,0.0,0.0,0.0,0.0,0.0,0.0,0.0,0.0,0.0,0.0,0.0,0.0,0.0,0.0,0.0,0.0,0.0,0.0,0.0,0.0452,0.0451,0.0593,0.0,0.0,0.0,0.0,0.0,0.0,0.0,0.0,0.0,0.0,0.0,0.0,0.0,0.0,0.0,0.0,0.0,0.0,0.0,0.0,0.0,0.0,0.0,0.0,0.0,0.0,0.0,0.0,0.0,0.0,0.0,0.0,0.0,0.0,0.0,0.0,0.0,0.0,0.0,0.0,0.0,0.0,0.0,0.0,0.0,0.0,0.0,0.0,0.0,0.0,0.0,0.0,0.0,0.0,0.0,0.0,0.0,0.0,0.0,0.0,0.0,0.0,0.0,0.0,0.0,0.0,0.0,0.0,0.0,0.0,0.0,0.0,0.0,0.0,0.0,0.0,0.0,0.0,0.0,0.0,0.0,0.0,0.0,0.0,0.0,0.0,0.0,0.0,0.0,0.0,0.0,0.0,0.0,0.0,0.0,0.0,0.0,0.0,0.0,0.0,0.0,0.0,0.0,0.0,0.0,0.0,0.0,0.0,0.0,0.0,0.0338,0.1021,0.1019,0.0,0.1184,0.0,0.0,0.0,0.0,0.0,0.0,0.0,0.0,0.0,0.0,0.0,0.0,0.0,0.0,0.0,0.0,0.0,0.0,0.0,0.0,0.0,0.0,0.0,0.0,0.0,0.0,0.0,0.0,0.0,0.0,0.0,0.0,0.0,0.0,0.0,0.0,0.0,0.0,0.0,0.0,0.0,0.0,0.0,0.0,0.0,0.0,0.0,0.0,0.0,0.0,0.0,0.0,0.0,0.0,0.0,0.0,0.0,0.0,0.0,0.0,0.0,0.0,0.0,0.0,0.0,0.0,0.0,0.0,0.0,0.0,0.0,0.0,0.0,0.0,0.0,0.0,0.0,0.0,0.0,0.0,0.0,0.0,0.0,0.0,0.0,0.0,0.0,0.0,0.0,0.0,0.0,0.0,0.0,0.0,0.0,0.0,0.0,0.0,0.0,0.0,0.0,0.0,0.0,0.0,0.0,0.0,0.0,0.0,0.0,0.0,0.0,0.0701,0.0702,0.0731,0.0,0.0,0.0,0.0,0.0,0.0,0.0,0.0,0.0,0.0,0.0,0.0,0.0,0.0,0.0,0.0,0.0,0.0,0.0,0.0,0.0,0.0,0.0,0.0,0.0,0.0,0.0,0.0,0.0,0.0,0.0,0.0,0.0,0.0,0.0,0.0,0.0,0.0,0.0,0.0,0.0,0.0,0.0,0.0,0.0,0.0,0.0,0.0,0.0,0.0,0.0,0.0,0.0,0.0,0.0,0.0,0.0,0.0,0.0,0.0,0.0,0.0,0.0,0.0,0.0,0.0,0.0,0.0,0.0,0.0,0.0,0.0,0.0,0.0,0.0,0.0,0.0,0.0,0.0,0.0,0.0,0.0,0.0,0.0,0.0,0.0,0.0,0.0,0.0,0.0,0.0,0.0,0.0,0.0,0.0,0.0,0.0,0.0,0.0,0.0,0.0,0.0,0.0,0.0,0.0,0.0,0.0,0.0,0.0,0.0,0.1745,0.0,0.0353,0.0378,0.0515,0.0676,0.0,0.0,0.0,0.0,0.0,0.0,0.0,0.0,0.0,0.0,0.0,0.0,0.0,0.0,0.0,0.0,0.0,0.0,0.0,0.0,0.0,0.0,0.0,0.0,0.0,0.0,0.0,0.0,0.0,0.0,0.0,0.0,0.0,0.0,0.0,0.0,0.0,0.0,0.0,0.0,0.0,0.0,0.0,0.0,0.0,0.0,0.0,0.0,0.0,0.0,0.0,0.0,0.0,0.0,0.0,0.0,0.0,0.0,0.0,0.0,0.0,0.0,0.0,0.0,0.0,0.0,0.0,0.0,0.0,0.0,0.0,0.0,0.0,0.0,0.0,0.0,0.0,0.0,0.0,0.0,0.0,0.0,0.0,0.0,0.0,0.0,0.0,0.0,0.0,0.0,0.0,0.0,0.0,0.0,0.0,0.0,0.0,0.0,0.0,0.0,0.0,0.0,0.0,0.0,0.0,0.0,0.0,0.0,0.0,0.1676,0.1255,0.0099,0.0316,0.0716,0.0,0.0,0.0,0.0,0.0,0.0,0.0,0.0,0.0,0.0,0.0,0.0,0.0,0.0,0.0,0.0,0.0,0.0,0.0,0.0,0.0,0.0,0.0,0.0,0.0,0.0,0.0,0.0,0.0,0.0,0.0,0.0,0.0,0.0,0.0,0.0,0.0,0.0,0.0,0.0,0.0,0.0,0.0,0.0,0.0,0.0,0.0,0.0,0.0,0.0,0.0,0.0,0.0,0.0,0.0,0.0,0.0,0.0,0.0,0.0,0.0,0.0,0.0,0.0,0.0,0.0,0.0,0.0,0.0,0.0,0.0,0.0,0.0,0.0,0.0,0.0,0.0,0.0,0.0,0.0,0.0,0.0,0.0,0.0,0.0,0.0,0.0,0.0,0.0,0.0,0.0,0.0,0.0,0.0,0.0,0.0,0.0,0.0,0.0,0.0,0.0,0.0,0.0,0.0,0.0,0.0,0.0,0.0,0.0,0.0788,0.1433,0.1522,0.0908,0.0501,0.0557,0.0,0.0,0.0,0.0,0.0,0.0,0.0,0.0,0.0,0.0,0.0,0.0,0.0,0.0,0.0,0.0,0.0,0.0,0.0,0.0,0.0,0.0,0.0,0.0,0.0,0.0,0.0,0.0,0.0,0.0,0.0,0.0,0.0,0.0,0.0,0.0,0.0,0.0,0.0,0.0,0.0,0.0,0.0,0.0,0.0,0.0,0.0,0.0,0.0,0.0,0.0,0.0,0.0,0.0,0.0,0.0,0.0,0.0,0.0,0.0,0.0,0.0,0.0,0.0,0.0,0.0,0.0,0.0,0.0,0.0,0.0,0.0,0.0,0.0,0.0,0.0,0.0,0.0,0.0,0.0,0.0,0.0,0.0,0.0,0.0,0.0,0.0,0.0,0.0,0.0,0.0,0.0,0.0,0.0,0.0,0.0,0.0,0.0,0.0,0.0,0.0,0.0,0.0,0.0,0.0,0.0,0.0,0.0,0.0,0.044,0.0,0.116,0.0,0.0736,0.0646,0.0,0.0,0.0,0.0,0.0,0.0,0.0,0.0,0.0,0.0,0.0,0.0,0.0,0.0,0.0,0.0,0.0,0.0,0.0,0.0,0.0,0.0,0.0,0.0,0.0,0.0,0.0,0.0,0.0,0.0,0.0,0.0,0.0,0.0,0.0,0.0,0.0,0.0,0.0,0.0,0.0,0.0,0.0,0.0,0.0,0.0,0.0,0.0,0.0,0.0,0.0,0.0,0.0,0.0,0.0,0.0,0.0,0.0,0.0,0.0,0.0,0.0,0.0,0.0,0.0,0.0,0.0,0.0,0.0,0.0,0.0,0.0,0.0,0.0,0.0,0.0,0.0,0.0,0.0,0.0,0.0,0.0,0.0,0.0,0.0,0.0,0.0,0.0,0.0,0.0,0.0,0.0,0.0,0.0,0.0,0.0,0.0,0.0,0.0,0.0,0.0,0.0,0.0,0.0,0.0,0.0,0.0,0.0,0.0651,0.0396,0.014,0.0211,0.0403,0.0927,0.1076,0.0,0.0,0.0,0.0,0.0,0.0,0.0,0.0,0.0,0.0,0.0,0.0,0.0,0.0,0.0,0.0,0.0,0.0,0.0,0.0,0.0,0.0,0.0,0.0,0.0,0.0,0.0,0.0,0.0,0.0,0.0,0.0,0.0,0.0,0.0,0.0,0.0,0.0,0.0,0.0,0.0,0.0,0.0,0.0,0.0,0.0,0.0,0.0,0.0,0.0,0.0,0.0,0.0,0.0,0.0,0.0,0.0,0.0,0.0,0.0,0.0,0.0,0.0,0.0,0.0,0.0,0.0,0.0,0.0,0.0,0.0,0.0,0.0,0.0,0.0,0.0,0.0,0.0,0.0,0.0,0.0,0.0,0.0,0.0,0.0,0.0,0.0,0.0,0.0,0.0,0.0,0.0,0.0,0.0,0.0,0.0,0.0,0.0,0.0,0.0,0.0,0.0,0.0,0.0,0.0,0.0,0.0,0.0,0.0,0.0335,0.0124,0.0164,0.0468,0.089,0.1149,0.0,0.0,0.0,0.0,0.0,0.0,0.0,0.0,0.0,0.0,0.0,0.0,0.0,0.0,0.0,0.0,0.0,0.0,0.0,0.0,0.0,0.0,0.0,0.0,0.0,0.0,0.0,0.0,0.0,0.0,0.0,0.0,0.0,0.0,0.0,0.0,0.0,0.0,0.0,0.0,0.0,0.0,0.0,0.0,0.0,0.0,0.0,0.0,0.0,0.0,0.0,0.0,0.0,0.0,0.0,0.0,0.0,0.0,0.0,0.0,0.0,0.0,0.0,0.0,0.0,0.0,0.0,0.0,0.0,0.0,0.0,0.0,0.0,0.0,0.0,0.0,0.0,0.0,0.0,0.0,0.0,0.0,0.0,0.0,0.0,0.0,0.0,0.0,0.0,0.0,0.0,0.0,0.0,0.0,0.0,0.0,0.0,0.0,0.0,0.0,0.0,0.0,0.0,0.0,0.0,0.0,0.0,0.0,0.0,0.0327,0.0231,0.0246,0.0321,0.0755,0.1136,0.1345,0.0,0.0,0.0,0.0,0.0,0.0,0.0,0.0,0.0,0.0,0.0,0.0,0.0,0.0,0.0,0.0,0.0,0.0,0.0,0.0,0.0,0.0,0.0,0.0,0.0,0.0,0.0,0.0,0.0,0.0,0.0,0.0,0.0,0.0,0.0,0.0,0.0,0.0,0.0,0.0,0.0,0.0,0.0,0.0,0.0,0.0,0.0,0.0,0.0,0.0,0.0,0.0,0.0,0.0,0.0,0.0,0.0,0.0,0.0,0.0,0.0,0.0,0.0,0.0,0.0,0.0,0.0,0.0,0.0,0.0,0.0,0.0,0.0,0.0,0.0,0.0,0.0,0.0,0.0,0.0,0.0,0.0,0.0,0.0,0.0,0.0,0.0,0.0,0.0,0.0,0.0,0.0,0.0,0.0,0.0,0.0,0.0,0.0,0.0,0.0,0.0,0.0,0.0,0.0,0.0,0.0,0.0,0.0,0.0406,0.0487,0.0374,0.004,0.0613,0.1059,0.0,0.0,0.0,0.0,0.0,0.0,0.0,0.0,0.0,0.0,0.0,0.0,0.0,0.0,0.0,0.0,0.0,0.0,0.0,0.0,0.0,0.0,0.0,0.0,0.0,0.0,0.0,0.0,0.0,0.0,0.0,0.0,0.0,0.0,0.0,0.0,0.0,0.0,0.0,0.0,0.0,0.0,0.0,0.0,0.0,0.0,0.0,0.0,0.0,0.0,0.0,0.0,0.0,0.0,0.0,0.0,0.0,0.0,0.0,0.0,0.0,0.0,0.0,0.0,0.0,0.0,0.0,0.0,0.0,0.0,0.0,0.0,0.0,0.0,0.0,0.0,0.0,0.0,0.0,0.0,0.0,0.0,0.0,0.0,0.0,0.0,0.0,0.0,0.0,0.0,0.0,0.0,0.0,0.0,0.0,0.0,0.0,0.0,0.0,0.0,0.0,0.0,0.0,0.0,0.0,0.0,0.0,0.0,0.0,0.0512,0.0695,0.0607,0.0261,0.0759,0.1254,0.0,0.0,0.0,0.0,0.0,0.0,0.0,0.0,0.0,0.0,0.0,0.0,0.0,0.0,0.0,0.0,0.0,0.0,0.0,0.0,0.0,0.0,0.0,0.0,0.0,0.0,0.0,0.0,0.0,0.0,0.0,0.0,0.0,0.0,0.0,0.0,0.0,0.0,0.0,0.0,0.0,0.0,0.0,0.0,0.0,0.0,0.0,0.0,0.0,0.0,0.0,0.0,0.0,0.0,0.0,0.0,0.0,0.0,0.0,0.0,0.0,0.0,0.0,0.0,0.0,0.0,0.0,0.0,0.0,0.0,0.0,0.0,0.0,0.0,0.0,0.0,0.0,0.0,0.0,0.0,0.0,0.0,0.0,0.0,0.0,0.0,0.0,0.0,0.0,0.0,0.0,0.0,0.0,0.0,0.0,0.0,0.0,0.0,0.0,0.0,0.0,0.0,0.0,0.0,0.0,0.0,0.0,0.0,0.078,0.0507,0.0758,0.0771,0.0582,0.0945,0.1253,0.0,0.0,0.0,0.0,0.0,0.0,0.0,0.0,0.0,0.0,0.0,0.0,0.0,0.0,0.0,0.0,0.0,0.0,0.0,0.0,0.0,0.0,0.0,0.0,0.0,0.0,0.0,0.0,0.0,0.0,0.0,0.0,0.0,0.0,0.0,0.0,0.0,0.0,0.0,0.0,0.0,0.0,0.0,0.0,0.0,0.0,0.0,0.0,0.0,0.0,0.0,0.0,0.0,0.0,0.0,0.0,0.0,0.0,0.0,0.0,0.0,0.0,0.0,0.0,0.0,0.0,0.0,0.0,0.0,0.0,0.0,0.0,0.0,0.0,0.0,0.0,0.0,0.0,0.0,0.0,0.0,0.0,0.0,0.0,0.0,0.0,0.0,0.0,0.0,0.0,0.0,0.0,0.0,0.0,0.0,0.0,0.0,0.0,0.0,0.0,0.0,0.0,0.0,0.0,0.0,0.0,0.0,0.0,0.0839,0.0528,0.0799,0.0884,0.091,0.1057,0.1126,0.0,0.0,0.0,0.0,0.0,0.0,0.0,0.0,0.0,0.0,0.0,0.0,0.0,0.0,0.0,0.0,0.0,0.0,0.0,0.0,0.0,0.0,0.0,0.0,0.0,0.0,0.0,0.0,0.0,0.0,0.0,0.0,0.0,0.0,0.0,0.0,0.0,0.0,0.0,0.0,0.0,0.0,0.0,0.0,0.0,0.0,0.0,0.0,0.0,0.0,0.0,0.0,0.0,0.0,0.0,0.0,0.0,0.0,0.0,0.0,0.0,0.0,0.0,0.0,0.0,0.0,0.0,0.0,0.0,0.0,0.0,0.0,0.0,0.0,0.0,0.0,0.0,0.0,0.0,0.0,0.0,0.0,0.0,0.0,0.0,0.0,0.0,0.0,0.0,0.0,0.0,0.0,0.0,0.0,0.0,0.0,0.0,0.0,0.0,0.0,0.0,0.0,0.0,0.0,0.0,0.0,0.0,0.0,0.1059,0.0847,0.0864,0.0894,0.0887,0.0952,0.0886,0.0,0.0,0.0,0.0,0.0,0.0,0.0,0.0,0.0,0.0,0.0,0.0,0.0,0.0,0.0,0.0,0.0,0.0,0.0,0.0,0.0,0.0,0.0,0.0,0.0,0.0,0.0,0.0,0.0,0.0,0.0,0.0,0.0,0.0,0.0,0.0,0.0,0.0,0.0,0.0,0.0,0.0,0.0,0.0,0.0,0.0,0.0,0.0,0.2311,0.0,0.0,0.0,0.0,0.0,0.0,0.0,0.0,0.0,0.0,0.0,0.0,0.0,0.0,0.0,0.0,0.0,0.0,0.0,0.0,0.0,0.0,0.0,0.0,0.0,0.0,0.0,0.0,0.0,0.0,0.0,0.0,0.0,0.0,0.0,0.0,0.0,0.0,0.0,0.0,0.0,0.0,0.0,0.0,0.0,0.0,0.0,0.0,0.0,0.0,0.0,0.0,0.0,0.0,0.0,0.0,0.0,0.0,0.0,0.0912,0.0878,0.0873,0.0897,0.0895,0.089,0.0898,0.0,0.0,0.0,0.0,0.0,0.0,0.0,0.0,0.0,0.0,0.0,0.0,0.0,0.0,0.0,0.0,0.0,0.0,0.0,0.0,0.0,0.0,0.0,0.0,0.0,0.0,0.0,0.0,0.0,0.0,0.0,0.0,0.0,0.0,0.0,0.0,0.0,0.0,0.0,0.0,0.0,0.0,0.0,0.0,0.0,0.0,0.0,0.0,0.0,0.0,0.0,0.0,0.0,0.0,0.0,0.0,0.0,0.0,0.0,0.0,0.0,0.0,0.0,0.0,0.0,0.0,0.0,0.0,0.0,0.0,0.0,0.0,0.0,0.0,0.0,0.0,0.0,0.0,0.0,0.0,0.0,0.0,0.0,0.0,0.0,0.0,0.0,0.0,0.0,0.0,0.0,0.0,0.0,0.0,0.0,0.0,0.0,0.0,0.0,0.0,0.0,0.0,0.0,0.0,0.0,0.0,0.0,0.0617,0.0642,0.0803,0.0884,0.0897,0.0897,0.0873,0.0953,0.1109,0.0,0.0,0.0,0.0,0.0,0.0,0.0,0.0,0.0,0.0,0.0,0.0,0.0,0.0,0.0,0.0,0.0,0.0,0.0,0.0,0.0,0.0,0.0,0.0,0.0,0.0,0.0,0.0,0.0,0.0,0.0,0.0,0.0,0.0,0.0,0.0,0.0,0.0,0.2211,0.2382,0.0,0.0,0.0,0.0,0.0,0.0,0.0,0.0,0.2648,0.0,0.0,0.0,0.0,0.0,0.0,0.0,0.0,0.0,0.0,0.0,0.0,0.0,0.0,0.0,0.0,0.0,0.0,0.0,0.0,0.0,0.0,0.0,0.0,0.0,0.0,0.0,0.0,0.0,0.0,0.0,0.0,0.0,0.0,0.0,0.0,0.0,0.0,0.0,0.0,0.0,0.0,0.0,0.0,0.0,0.0,0.0,0.0,0.0,0.0,0.0,0.0,0.0,0.0,0.0,0.0,0.0478,0.0583,0.0633,0.0499,0.0783,0.0897,0.0897,0.0892,0.0885,0.0893,0.0,0.0,0.0,0.0,0.0,0.0,0.0,0.0,0.0,0.0,0.0,0.0,0.0,0.0,0.0,0.0,0.0,0.0,0.0,0.0,0.0,0.0,0.0,0.0,0.0,0.0,0.0,0.0,0.0,0.0,0.0,0.0,0.0,0.0,0.0,0.0,0.0,0.0,0.0,0.3051,0.3345,0.0,0.0,0.0,0.0,0.0,0.0,0.0,0.0,0.2872,0.0,0.0,0.0,0.0,0.0,0.0,0.0,0.0,0.0,0.0,0.0,0.0,0.0,0.0,0.0,0.0,0.0,0.0,0.0,0.0,0.0,0.0,0.0,0.0,0.0,0.0,0.0,0.0,0.0,0.0,0.0,0.0,0.0,0.0,0.0,0.0,0.0,0.0,0.0,0.0,0.0,0.0,0.0,0.0,0.0,0.0,0.0,0.0,0.0,0.0,0.0,0.0,0.0,0.0,0.0,0.0459,0.0367,0.0455,0.067,0.0841,0.0897,0.0896,0.0866,0.0808,0.0,0.0,0.0,0.0,0.0,0.0,0.0,0.0,0.0,0.0,0.0,0.0,0.0,0.0,0.0,0.0,0.0,0.0,0.0,0.0,0.0,0.0,0.0,0.0,0.0,0.0,0.0,0.0,0.0,0.0,0.0,0.0,0.0,0.0,0.0,0.0,0.0,0.0,0.0,0.0,0.31,0.3263,0.3627,0.0,0.0,0.0,0.0,0.0,0.0,0.3284,0.3107,0.0,0.0,0.0,0.0,0.0,0.0,0.0,0.0,0.0,0.0,0.0,0.0,0.0,0.0,0.0,0.0,0.0,0.0,0.0,0.0,0.0,0.0,0.0,0.0,0.0,0.0,0.0,0.0,0.0,0.0,0.0,0.0,0.0,0.0,0.0,0.0,0.0,0.0,0.0,0.0,0.0,0.0,0.0,0.0,0.0,0.0,0.0,0.0,0.0,0.0,0.0,0.0,0.0,0.0,0.0,0.0433,0.0184,0.0258,0.067,0.0785,0.0841,0.0896,0.0845,0.0783,0.0,0.0,0.0,0.0,0.0,0.0,0.0,0.0,0.0,0.0,0.0,0.0,0.0,0.0,0.0,0.0,0.0,0.0,0.0,0.0,0.0,0.0,0.0,0.0,0.0,0.0,0.0,0.0,0.0,0.0,0.0,0.0,0.0,0.0,0.0,0.0,0.0,0.0,0.0,0.0,0.0,0.3328,0.3782,0.3556,0.0,0.0,0.0,0.0,0.4077,0.3722,0.0,0.0,0.0,0.0,0.0,0.0,0.0,0.0,0.0,0.0,0.0,0.0,0.0,0.0,0.0,0.0,0.0,0.0,0.0,0.0,0.0,0.0,0.0,0.0,0.0,0.0,0.0,0.0,0.0,0.0,0.0,0.0,0.0,0.0,0.0,0.0,0.0,0.0,0.0,0.0,0.0,0.0,0.0,0.0,0.0,0.0,0.0,0.0,0.0,0.0,0.0,0.0,0.0,0.0,0.0,0.0,0.0235,0.0174,0.0147,0.0111,0.0336,0.0617,0.0897,0.0864,0.0744,0.0,0.0,0.0,0.0,0.0,0.0,0.0,0.0,0.0,0.0,0.0,0.0,0.0,0.0,0.0,0.0,0.0,0.0,0.0,0.0,0.0,0.0,0.0,0.0,0.0,0.0,0.0,0.0,0.0,0.0,0.0,0.0,0.0,0.0,0.0,0.0,0.0,0.0,0.0,0.0,0.0,0.4406,0.4405,0.4256,0.4248,0.0,0.0,0.4252,0.4409,0.4389,0.0,0.0,0.0,0.0,0.0,0.0,0.0,0.0,0.0,0.0,0.0,0.0,0.0,0.0,0.0,0.0,0.0,0.0,0.0,0.0,0.0,0.0,0.0,0.0,0.0,0.0,0.0,0.0,0.0,0.0,0.0,0.0,0.0,0.0,0.0,0.0,0.0,0.0,0.0,0.0,0.0,0.0,0.0,0.0,0.0,0.0,0.0,0.0,0.0,0.0,0.0,0.0,0.0,0.0,0.0,0.0355,0.0204,0.014,0.0052,-0.0,0.0112,0.0224,0.0393,0.0522,0.0572,0.0,0.0,0.0,0.0,0.0,0.0,0.0,0.0,0.0,0.0,0.0,0.0,0.0,0.0,0.0,0.0,0.0,0.0,0.0,0.0,0.0,0.0,0.0,0.0,0.0,0.0,0.0,0.0,0.0,0.0,0.0,0.0,0.0,0.0,0.0,0.0,0.0,0.0,0.0,0.0,0.0,0.0,0.4275,0.4353,0.0,0.0,0.0,0.4487,0.4618,0.0,0.0,0.0,0.0,0.0,0.0,0.0,0.0,0.0,0.0,0.0,0.0,0.0,0.0,0.0,0.0,0.0,0.0,0.0,0.0,0.0,0.0,0.0,0.0,0.0,0.0,0.0,0.0,0.0,0.0,0.0,0.0,0.0,0.0,0.0,0.0,0.0,0.0,0.0,0.0,0.0,0.0,0.0,0.0,0.0,0.0,0.0,0.0,0.0,0.0,0.0,0.0,0.0,0.0,0.0,0.0,0.0,0.0253,0.0099,-0.0,-0.0,-0.0,-0.0,-0.0,0.0204,0.0,0.0,0.0,0.0,0.0,0.0,0.0,0.0,0.0,0.0,0.0,0.0,0.0,0.0,0.0,0.0,0.0,0.0,0.0,0.0,0.0,0.0,0.0,0.0,0.0,0.0,0.0,0.078,0.0,0.0,0.0,0.0,0.0,0.0,0.0,0.0,0.0,0.0,0.0,0.0,0.0,0.0,0.4194,0.4026,0.4217,0.43,0.0,0.0,0.4593,0.4863,0.4719,0.4495,0.0,0.0,0.0,0.0,0.0,0.0,0.0,0.0,0.0,0.0,0.0,0.0,0.0,0.0,0.0,0.0,0.0,0.0,0.0,0.0,0.0,0.0,0.0,0.0,0.0,0.0,0.0,0.0,0.0,0.0,0.0,0.0,0.0,0.0,0.0,0.0,0.0,0.0,0.0,0.0,0.0,0.0,0.0,0.0,0.0,0.0,0.0,0.0,0.0,0.0,0.0,0.0,0.0,0.0,0.0,0.038,0.0148,-0.0,-0.0,-0.0,-0.0,-0.0,0.0052,0.0143,0.0,0.0,0.0,0.0,0.0,0.0,0.0,0.0,0.0,0.0,0.0,0.0,0.0,0.0,0.0,0.0,0.0,0.0,0.0,0.0,0.0,0.0,0.0,0.0,0.0,0.0,0.0,0.0,0.0,0.0,0.0,0.0,0.0,0.0,0.0,0.0,0.0,0.0,0.0,0.0,0.0,0.3946,0.3835,0.3847,0.4049,0.0,0.0,0.4576,0.5179,0.5241,0.506,0.4562,0.0,0.0,0.0,0.0,0.0,0.0,0.0,0.0,0.0,0.0,0.0,0.0,0.0,0.0,0.0,0.0,0.0,0.0,0.0,0.0,0.0,0.0,0.0,0.0,0.0,0.0,0.0,0.0,0.0,0.0,0.0,0.0,0.0,0.0,0.0,0.0,0.0,0.0,0.0,0.0,0.0,0.0,0.0,0.0,0.0,0.0,0.0,0.0,0.0,0.0,0.0,0.0,0.0,0.0441,0.0439,0.0154,-0.0,-0.0,-0.0,-0.0,-0.0,-0.0428,-0.0637,0.0,0.0,0.0,0.0,0.0,0.0,0.0,0.0,0.0,0.0,0.0,0.0,0.0,0.0,0.0,0.0,0.0,0.0,0.0,0.0,0.0,0.0,0.0,0.0,0.0,0.0,0.0,0.0,0.0637,0.0926,0.1181,0.0,0.0,0.0,0.0,0.0,0.0,0.0,0.0,0.0,0.0,0.331,0.3049,0.3392,0.0,0.0,0.392,0.4232,0.4457,0.466,0.4692,0.4451,0.4525,0.0,0.0,0.0,0.0,0.0,0.0,0.0,0.0,0.0,0.0,0.0,0.0,0.0,0.0,0.0,0.0,0.0,0.0,0.0,0.0,0.0,0.0,0.0,0.0,0.0,0.0,0.0,0.0,0.0,0.0,0.0,0.0,0.0,0.0,0.0,0.0,0.0,0.0,0.0,0.0,0.0,0.0,0.0,0.0,0.0,0.0,0.0,0.0,0.0,0.0,0.0,0.0,0.037,0.036,0.0105,-0.0,-0.0,-0.0,-0.0336,-0.1065,-0.1574,-0.1763,0.0,0.0,0.0,0.0,0.0,0.0,0.0,0.0,0.0,0.0,0.0,0.0,0.0,0.0,0.0,0.0,0.0,0.0,0.0,0.0,0.0,0.0,0.0,0.0,0.0,0.0,0.0,0.0,0.056,0.0715,0.0895,0.0,0.0,0.0,0.0,0.0,0.0,0.0,0.0,0.0,0.0,0.2626,0.2332,0.3014,0.3477,0.317,0.3766,0.4203,0.4297,0.444,0.4445,0.425,0.0,0.0,0.0,0.0,0.0,0.0,0.0,0.0,0.0,0.0,0.0,0.0,0.0,0.0,0.0,0.0,0.0,0.0,0.0,0.0,0.0,0.0,0.0,0.0,0.0,0.0,0.0,-0.0,0.0,0.0,-0.0,0.0,0.0,0.0,0.0,0.0,0.0,0.0,0.0,0.0,0.0,0.0,0.0,0.0,0.0,0.0,0.0,0.0,0.0,0.0,0.0,0.0,0.0,0.0288,-0.0,-0.0,-0.0,-0.0,-0.0,-0.1178,-0.338,-0.3547,-0.3314,-0.2815,0.0,0.0,0.0,0.0,0.0,0.0,0.0,0.0,0.0,0.0,0.0,0.0,0.0,0.0,0.0,0.0,0.0,0.0,0.0,0.0,0.0,0.0,0.0,0.0,0.0,0.0,0.0406,0.045,0.0518,0.0,0.0,0.0,0.0,0.0,0.0,0.0,0.0,0.0,0.0,0.2022,0.2041,0.1838,0.2742,0.3403,0.3677,0.4223,0.4689,0.4833,0.484,0.4568,0.0,0.0,0.0,0.0,0.0,0.0,0.0,0.0,0.0,0.0,0.0,0.0,0.0,0.0,0.0,0.0,0.0,0.0,0.0,0.0,0.0,0.0,0.0,0.0,0.0,0.0,0.0,-0.1486,-0.0,0.0,0.0,0.0,0.0,0.0,0.0,0.0,0.0,0.0,0.0,0.0,0.0429,0.0152,0.0,0.0,0.0,0.0,0.0,0.0,0.0,0.0,0.0,0.0,0.0,0.0,0.0086,-0.0,-0.0,-0.0,-0.0,-0.1572,-0.2757,-0.3554,-0.3627,-0.336,-0.2909,0.0,0.0,0.0,0.0,0.0,0.0,0.0,0.0,0.0,0.0,0.0,0.0,0.0,0.0,0.0,0.0,0.0,0.0,0.0,0.0,0.0,0.0,0.0,0.0,0.0,0.039,0.0,0.0,0.0,0.0,0.0,0.0,0.0,0.0,0.0,0.0,0.0,0.2132,0.1819,0.1679,0.152,0.1218,0.1709,0.2095,0.0,0.0,0.0,0.0,0.0,0.0,0.0,0.0,0.0,0.0,0.0,0.0,0.0,0.0,0.2941,0.2898,0.3043,0.3104,0.3057,0.0,0.0,0.0,0.0,0.0,0.0,0.0,0.0,0.0,0.0,0.0,0.0,0.0,0.0,-0.2759,0.0,-0.0936,0.0,0.0,0.0,0.0,0.0,0.0,0.0,0.0,-0.3964,-0.316,-0.1414,-0.0464,-0.0231,0.0,-0.0266,-0.0,0.0,0.0,0.0,0.0,0.0,0.0,0.0,0.0,-0.0,-0.0,-0.0,-0.0393,-0.129,-0.2813,-0.3383,-0.2981,-0.3337,-0.3318,-0.3012,-0.2762,-0.2533,0.0,0.0,0.0,0.0,0.0,0.0,0.0,0.0,0.0,0.0,0.0,0.0,0.0,0.0,0.0,0.0,0.0,0.0,0.0,0.0,0.0,0.0,0.0,0.042,0.0,0.0,0.0,0.0,0.0,0.0,0.0,0.0,0.0,0.1553,0.1601,0.1592,0.1478,0.1433,0.1289,0.0975,0.0,0.0,0.0,0.0,0.0,0.0,0.0,0.3076,0.2979,0.3463,0.395,0.4113,0.3834,0.3597,0.3682,0.0,0.0,0.2916,0.3048,0.3131,0.3118,0.3334,0.3507,0.3477,0.354,0.3618,0.0,0.0,0.0,0.0,0.0,0.0,0.0,0.0,-0.3118,-0.3712,0.0,-0.2618,0.0,0.0,0.0,0.0,0.0,-0.2596,0.0,0.0,-0.3854,-0.3904,-0.3837,-0.1423,-0.0803,-0.191,-0.074,-0.0,-0.0,-0.0,0.0,0.0,0.0,0.0,0.0,0.0,-0.0047,-0.0,-0.0,-0.1236,-0.3388,-0.3559,-0.3037,-0.1958,-0.2826,-0.3308,-0.3227,-0.3163,-0.2943,-0.2629,-0.2296,0.0,0.0,0.0,0.0,0.0,0.0,0.0,0.0,0.0,0.0,0.0,0.0,0.0,0.0,0.0,0.0,0.0,0.0,0.0,0.0,0.0434,0.0,0.0,0.0,0.0,0.0,0.0,0.0,0.0,0.0,0.0,0.0831,0.0928,0.0877,0.0956,0.0,0.0,0.0,0.0,0.2402,0.2338,0.2825,0.3091,0.284,0.314,0.3113,0.2636,0.0,0.0,0.3852,0.3582,0.3472,0.3857,0.3502,0.3179,0.3059,0.3301,0.3564,0.3593,0.349,0.347,0.3552,0.3349,0.3115,-0.3746,0.0,0.0,0.0,0.0,-0.3482,-0.3579,-0.3595,-0.3954,-0.3966,-0.3836,-0.3632,0.0,0.0,0.0,0.0,0.0,0.0,-0.3897,-0.4299,-0.4466,-0.44,-0.4196,-0.3515,-0.2316,-0.0656,-0.2299,-0.2041,-0.0,-0.0,-0.0,-0.0,0.0,0.0,0.0,0.0,-0.0988,-0.2889,-0.2732,-0.2499,-0.2324,-0.3187,-0.3426,-0.3079,-0.3387,-0.3477,-0.3354,-0.3316,-0.3175,-0.2908,-0.2738,0.0,0.0,0.0,0.0,0.0,0.0,0.0,0.0,0.0,0.0,0.0,0.0,0.0,0.0,0.0,0.0,0.0,0.0,0.0,-0.0185,-0.0539,-0.0662,0.0,0.0,0.0,0.0,0.0,0.0,0.0,0.0,0.0,-0.0258,0.0193,0.0449,0.0,0.0,0.1239,0.1068,0.1366,0.1541,0.1564,0.1698,0.0,0.1723,0.1913,0.2109,0.1991,0.2581,0.3162,0.3568,0.3516,0.3524,0.3566,0.3493,0.3389,0.3295,0.3385,0.3452,0.334,0.3374,0.3411,0.3442,0.3363,0.3342,-0.4518,-0.4137,-0.4078,-0.4041,-0.4058,-0.4253,-0.4327,-0.4333,-0.433,-0.4204,-0.4105,-0.4218,-0.4317,-0.4352,-0.3495,0.0,0.0,0.0,-0.4519,-0.4535,-0.4671,-0.4621,-0.4412,-0.4557,-0.3652,-0.201,-0.3059,-0.2802,-0.1255,-0.0968,-0.0833,-0.0869,0.0,0.0,-0.1713,-0.1117,-0.169,-0.3379,-0.3749,-0.3483,-0.2755,-0.3369,-0.3637,-0.3588,-0.3585,-0.3547,-0.3477,-0.3474,-0.3387,-0.3194,-0.305,-0.2788,0.0,0.0,0.0,0.0,0.0,0.0,0.0,0.0,0.0,0.0,0.0,-0.0637,0.0,0.0,0.0,0.0,-0.0487,-0.057,-0.0583,-0.1148,0.0,0.0,0.0,0.0,0.0,0.0,0.0,-0.0936,-0.1186,-0.1387,-0.1312,-0.0771,-0.0351,-0.0207,0.0356,0.0795,0.0779,0.0,0.117,0.1183,0.1185,0.1189,0.1275,0.1483,0.1845,0.2173,0.2327,0.2627,0.3004,0.2853,0.2627,0.2627,0.2627,0.2843,0.3481,0.3051,0.2779,0.3238,0.3393,0.3416,0.3418,0.3462,0.3499,-0.514,-0.5007,-0.4569,-0.4376,-0.4357,-0.4357,-0.436,-0.4357,-0.4349,-0.4401,-0.4499,-0.4488,-0.4497,-0.4526,-0.4623,0.0,-0.4554,-0.4743,-0.4725,-0.4518,-0.4701,-0.4681,-0.4535,-0.4692,-0.4832,-0.4742,-0.3356,-0.2843,-0.3186,-0.263,-0.2333,-0.2337,-0.3645,-0.4314,-0.4203,-0.296,-0.2282,-0.2342,-0.3589,-0.4209,-0.4069,-0.3878,-0.3705,-0.3604,-0.3591,-0.3585,-0.3585,-0.3585,-0.3531,-0.342,-0.3297,-0.3028,-0.2585,0.0,0.0,0.0,0.0,0.0,0.0,0.0,0.0,0.0,0.0,0.0,0.0,0.0,0.0,0.0,-0.0898,0.0,-0.0972,-0.1515,0.0,0.0,0.0,-0.0887,-0.0947,-0.1223,-0.1463,-0.1543,0.0,0.0,-0.2269,-0.1879,-0.1451,-0.0917,-0.0298,0.0148,0.0226,0.0669,0.1035,0.0984,0.1063,0.1072,0.1012,0.1327,0.1792,0.2419,0.2273,0.1876,0.2189,0.1798,0.1331,0.1406,0.1331,0.172,0.3288,0.2259,0.1708,0.3006,0.3259,0.3304,0.3379,0.3312,0.3242,-0.5309,-0.5276,-0.5162,-0.501,-0.4847,-0.4847,-0.4847,-0.4841,-0.4746,-0.4722,-0.4741,-0.4651,-0.4668,-0.4637,-0.4683,-0.4739,-0.4711,-0.4738,-0.4803,-0.4887,-0.4917,-0.4931,-0.4852,-0.4931,-0.4966,-0.4958,-0.4579,-0.4461,-0.453,-0.44,-0.4217,-0.4116,-0.4485,-0.4563,-0.429,-0.3958,-0.3741,-0.3766,-0.4025,-0.4105,-0.3939,-0.3878,-0.3798,-0.3771,-0.3629,-0.3585,-0.3585,-0.3585,-0.3572,-0.3539,-0.3425,-0.3262,-0.3058,-0.2648,0.0,0.0,0.0,0.0,0.0,0.0,0.0,0.0,0.0,-0.1598,-0.1194,0.0,-0.134,0.0,-0.1226,-0.1197,-0.1492,-0.1873,0.0,0.0,-0.1841,-0.1772,-0.1817,-0.1942,-0.2053,-0.201,-0.2281,-0.2452,-0.2466,-0.2402,-0.2382,-0.2216,-0.1189,-0.0384,-0.0456,-0.0307,-0.0155,-0.0156,-0.0156,-0.0156,-0.0079,-0.0078,0.0157,0.0627,0.0627,0.0627,0.1175,0.1096,0.1018,0.1254,0.1332,0.1332,0.1254,0.1175,0.1173,0.1241,0.1467,0.2004,0.2544,0.2234,0.2156,-0.5532,-0.5532,-0.5532,-0.5455,-0.5328,-0.5219,-0.5173,-0.517,-0.5099,-0.5072,-0.5067,-0.5002,-0.4972,-0.5049,-0.4969,-0.5007,-0.5072,-0.5072,-0.508,-0.5094,-0.5091,-0.5067,-0.5018,-0.5018,-0.4985,-0.5002,-0.5002,-0.4969,-0.4983,-0.493,-0.4825,-0.4749,-0.4762,-0.4638,-0.4452,-0.438,-0.4328,-0.4273,-0.4208,-0.4145,-0.4018,-0.3895,-0.3808,-0.3812,-0.3699,-0.3585,-0.3585,-0.3585,-0.3558,-0.3504,-0.3439,-0.3422,-0.3386,-0.2871,-0.2364,0.0,0.0,0.0,0.0,0.0,0.0,0.0,0.0,0.0,0.0,0.0,-0.1938,-0.1809,-0.1366,-0.1293,-0.1801,-0.2071,-0.2248,-0.2254,-0.2202,-0.217,-0.2263,-0.2326,-0.2373,-0.2401,-0.2514,-0.2591,-0.2593,-0.2649,-0.2694,-0.2694,-0.2058,-0.1452,-0.1196,-0.0884,-0.0648,-0.0648,-0.0729,-0.0729,-0.0648,-0.0642,-0.056,-0.0242,-0.0397,-0.0393,0.0079,-0.008,-0.0159,-0.0,0.008,0.008,-0.0237,-0.0079,-0.0,-0.016,-0.008,0.0555,0.1728,0.1567,0.1645,-0.5733,-0.5733,-0.5733,-0.5733,-0.5716,-0.5504,-0.5407,-0.5393,-0.5377,-0.5371,-0.5371,-0.5371,-0.5371,-0.5371,-0.5371,-0.5371,-0.5371,-0.5371,-0.5311,-0.5214,-0.5208,-0.5148,-0.504,-0.5037,-0.5029,-0.5015,-0.5015,-0.5015,-0.501,-0.4909,-0.4855,-0.4852,-0.4751,-0.4764,-0.4742,-0.4569,-0.445,-0.4325,-0.4308,-0.4249,-0.4143,-0.402,-0.3901,-0.3778,-0.3664,-0.3599,-0.3585,-0.3585,-0.3536,-0.3433,-0.3475,-0.3585,-0.3742,-0.3193,-0.2734,0.0,-0.2893,0.0,0.0,0.0,0.0,0.0,0.0,0.0,0.0,-0.2916,-0.2854,-0.237,-0.1847,-0.1787,-0.2328,-0.2461,-0.2565,-0.2558,-0.2428,-0.238,-0.2436,-0.2496,-0.2555,-0.2608,-0.2666,-0.2704,-0.2702,-0.271,-0.2717,-0.2723,-0.2721,-0.2374,-0.1948,-0.1431,-0.1173,-0.1009,-0.1009,-0.117,-0.117,-0.1073,-0.0903,-0.0665,-0.106,-0.1358,-0.0975,-0.1306,-0.1625,-0.1522,-0.1311,-0.1244,-0.1277,-0.1292,-0.1228,-0.1235,-0.1149,-0.065,0.0638,0.0953,0.1029,-0.5733,-0.5733,-0.5733,-0.5733,-0.573,-0.5684,-0.5608,-0.551,-0.5412,-0.5371,-0.5371,-0.5455,-0.5455,-0.5371,-0.5371,-0.5371,-0.5371,-0.5371,-0.5358,-0.5333,-0.5336,-0.5268,-0.4994,-0.5074,-0.5184,-0.5326,-0.5243,-0.5243,-0.5243,-0.522,-0.5132,-0.4982,-0.4958,-0.4898,-0.4803,0.0,0.0,0.0,-0.4346,-0.4289,-0.4265,-0.4145,-0.4023,-0.3903,-0.3784,0.0,-0.3591,-0.3585,-0.3572,-0.3605,-0.3871,0.0,0.0,0.0,0.0,0.0,0.0,0.0,0.0,0.0,0.0,0.0,-0.4698,-0.4536,-0.4151,-0.4069,-0.4032,-0.4045,-0.3942,-0.403,-0.4175,-0.3895,-0.3651,-0.3444,-0.2828,-0.2501,-0.2561,-0.262,-0.2662,-0.2673,-0.2729,-0.2766,-0.2768,-0.2808,-0.2837,-0.2834,-0.2839,-0.2841,-0.2658,-0.241,-0.236,-0.2356,-0.2279,-0.2274,-0.2356,-0.2264,-0.2179,-0.2265,-0.2259,-0.2329,-0.2086,-0.2089,-0.2089,-0.1741,-0.1672,-0.1514,-0.1331,-0.1336,-0.1339,-0.1341,-0.1341,-0.1003,-0.0083,-0.0332,-0.0415,-0.5733,0.0,-0.5733,-0.5733,0.0,-0.5733,-0.5697,-0.5547,-0.5575,-0.5551,-0.5551,-0.5548,-0.5548,-0.5551,-0.5551,-0.5548,-0.5551,-0.5717,-0.5684,-0.5625,-0.5797,-0.5728,-0.5519,-0.5522,-0.5493,-0.5511,-0.5368,-0.5255,-0.5252,-0.5196,-0.5093,-0.5018,-0.5018,-0.4985,-0.4925,-0.479,-0.4743,-0.4564,-0.4444,-0.4384,-0.4379,-0.4208,-0.4088,-0.3961,-0.3849,0.0,0.0,0.0,0.0,0.0,0.0,0.0,0.0,0.0,0.0,-0.5531,-0.5403,-0.5642,-0.6399,-0.5864,-0.5615,-0.5845,-0.6132,-0.5994,-0.5212,-0.5016,-0.4935,-0.5016,-0.5645,-0.5509,-0.4359,-0.4438,-0.4253,-0.329,-0.2804,-0.2614,-0.2646,-0.27,-0.2736,-0.2743,-0.2792,-0.2828,-0.2828,-0.2852,-0.2873,-0.2875,-0.2875,-0.2875,-0.2869,-0.2823,-0.2782,-0.2782,-0.2782,-0.2783,-0.2781,-0.2782,-0.2781,-0.2778,-0.2733,-0.271,-0.2648,-0.248,-0.2301,-0.1943,-0.1795,-0.1642,-0.1354,-0.1358,-0.1369,-0.1369,-0.1369,-0.1289,-0.0864,-0.1026,-0.1095,-0.5795,-0.5798,-0.5795,-0.5784,-0.5763,-0.5763,-0.5754,-0.5733,0.0,0.0,0.0,-0.5822,-0.5822,-0.5819,-0.5819,-0.5822,-0.5819,-0.6083,-0.611,-0.601,-0.6186,-0.6202,-0.6074,-0.5823,-0.5647,-0.5705,-0.5434,-0.53,-0.5294,-0.5184,-0.5048,-0.5045,-0.5026,-0.5093,-0.501,-0.4917,-0.4817,-0.4789,-0.4575,-0.449,-0.4535,-0.4278,-0.4159,-0.4118,-0.4044,-0.4163,-0.4429,-0.4431,-0.4584,-0.4839,-0.4889,-0.5156,-0.5539,-0.5477,-0.5609,-0.6138,-0.6467,-0.673,-0.6906,-0.6889,-0.688,-0.6951,-0.7395,-0.7259,-0.6262,-0.6002,-0.5936,-0.5967,-0.666,-0.6257,-0.4447,-0.4617,-0.4412,-0.2942,-0.2754,-0.2707,-0.2713,-0.2763,-0.2798,-0.2805,-0.2842,-0.2875,-0.2872,-0.2873,-0.2875,-0.2875,-0.2875,-0.2875,-0.2875,-0.2869,-0.2862,-0.2862,-0.2858,-0.2868,-0.2872,-0.2868,-0.2875,-0.2861,-0.2789,-0.2747,-0.2783,-0.2624,-0.2431,-0.2142,-0.2019,-0.1761,-0.1463,-0.147,-0.1485,-0.1397,-0.1398,-0.1406,-0.1424,-0.1398,-0.1282,-0.6037,-0.6034,-0.6034,-0.5975,-0.588,-0.588,-0.5822,-0.5735,-0.5735,-0.5822,-0.6083,-0.6266,-0.6263,-0.6254,-0.6343,-0.6343,-0.6343,-0.6343,-0.6331,-0.6313,-0.6231,-0.6075,-0.5952,-0.5695,-0.5559,-0.5713,-0.569,-0.5598,-0.5581,-0.547,-0.5325,-0.5228,-0.5218,-0.5243,-0.5243,-0.5076,-0.4982,-0.4961,-0.4741,-0.4646,-0.4474,-0.4436,-0.4322,-0.4129,-0.4523,-0.4693,-0.4645,-0.509,-0.537,-0.5403,-0.5762,-0.6003,-0.6062,-0.6352,-0.6438,-0.6236,-0.6557,-0.6957,-0.7375,-0.721,-0.7272,-0.7626,-0.8033,-0.8037,-0.7599,-0.7683,-0.7737,-0.7655,-0.6506,-0.574,-0.6029,-0.5004,-0.4174,-0.3762,-0.3156,-0.2771,-0.2858,-0.291,-0.2946,-0.2857,-0.2868,-0.2875,-0.2875,-0.2875,-0.2875,-0.2875,-0.2875,-0.2875,-0.2875,-0.2875,-0.2875,-0.2875,-0.2875,-0.2875,-0.2875,-0.2875,-0.2875,-0.2875,-0.2858,-0.2838,-0.285,-0.2853,-0.2671,-0.249,-0.2411,-0.2234,-0.1863,-0.1781,-0.1694,-0.1515,-0.1425,-0.1429,-0.1435,-0.1424,-0.1419,-0.6086,-0.6086,-0.6086,-0.6053,-0.6002,-0.6005,-0.6065,-0.6107,-0.6104,-0.6116,-0.6088,-0.6266,-0.6352,-0.6257,-0.6083,-0.5991,-0.5994,-0.6169,-0.6257,-0.6257,-0.6257,-0.6316,-0.6349,-0.6081,-0.6135,-0.6254,-0.6099,-0.6069,-0.6051,-0.5927,-0.5743,-0.5586,-0.5541,-0.5401,-0.5323,-0.5323,-0.5249,-0.5165,-0.4914,-0.4724,-0.467,-0.4959,-0.4969,-0.4785,-0.5229,-0.5563,-0.5596,-0.5807,-0.5996,-0.6181,-0.6422,-0.6547,-0.6547,-0.6671,-0.6713,-0.6555,-0.6823,-0.713,-0.7506,-0.7514,-0.7673,-0.808,-0.8292,-0.8373,-0.8292,-0.8363,-0.8356,-0.8264,-0.7492,-0.6905,-0.6756,-0.5966,-0.5281,-0.486,-0.4526,-0.4146,-0.3714,-0.3652,-0.3409,-0.2963,-0.2875,-0.2875,-0.2875,-0.2875,-0.2875,-0.2875,-0.2875,-0.2876,-0.2877,-0.2876,-0.2876,-0.2875,-0.2875,-0.2875,-0.2875,-0.2875,-0.2875,-0.2875,-0.2875,-0.2875,-0.2875,-0.2875,-0.2785,-0.2604,-0.2515,-0.2424,-0.2064,-0.1885,-0.1795,-0.1705,-0.1436,-0.1436,-0.1436,-0.1436,-0.1436,-0.6923,-0.6923,-0.7016,-0.7095,-0.7064,-0.6935,-0.7108,-0.7295,-0.7192,-0.7168,-0.7075,-0.6799,-0.6424,-0.6215,-0.595,-0.5936,-0.5911,-0.6174,-0.6263,-0.626,-0.6435,-0.6612,-0.6792,-0.652,-0.652,-0.6694,-0.6418,-0.6282,-0.627,-0.6232,-0.6077,-0.5919,-0.5732,-0.5587,-0.5398,-0.5712,-0.5786,-0.5622,-0.56,-0.5385,-0.513,-0.5689,-0.5847,-0.5633,-0.6022,-0.6338,-0.6531,-0.647,-0.6616,-0.6927,-0.6988,-0.6927,-0.6988,-0.6932,-0.695,-0.6999,-0.7095,-0.7316,-0.7584,-0.7801,-0.8061,-0.8373,-0.8444,-0.8538,-0.8675,-0.8703,-0.8635,-0.8532,-0.8565,-0.8046,-0.7094,-0.6528,-0.627,-0.5846,-0.575,-0.5356,-0.4741,-0.4654,-0.4387,-0.3676,-0.3497,-0.3497,-0.3232,-0.3244,-0.3174,-0.3008,-0.2914,-0.2914,-0.2914,-0.2914,-0.2914,-0.2907,-0.2894,-0.2876,-0.2875,-0.2875,-0.2875,-0.2875,-0.2875,-0.2875,-0.2875,-0.2875,-0.2875,-0.2694,-0.2604,-0.2515,-0.2334,-0.2064,-0.1885,-0.1795,-0.1615,-0.1436,-0.1436,-0.1436,-0.1436,-0.9257,-0.9359,-0.9722,-0.993,-0.9672,-0.9605,-0.9537,-0.9532,-0.9309,-0.9481,-0.9657,-0.8013,-0.7015,-0.6539,-0.6615,-0.6548,-0.6355,-0.6612,-0.6707,-0.6704,-0.6704,-0.6792,-0.6792,-0.652,-0.6428,-0.6428,-0.6413,-0.6401,-0.6395,-0.6362,-0.626,-0.6186,-0.5981,-0.5912,-0.5883,-0.6483,-0.6791,-0.6788,-0.7456,-0.7219,-0.6115,-0.6752,-0.6883,-0.6433,-0.6757,-0.6929,-0.6967,-0.7188,-0.7404,-0.7404,-0.7469,-0.7469,-0.7469,-0.7464,-0.7424,-0.7414,-0.7432,-0.7591,-0.7855,-0.815,-0.8349,-0.8406,-0.8571,-0.8675,-0.8708,-0.8703,-0.8789,-0.8913,-0.8729,-0.8221,-0.724,-0.6492,-0.6222,-0.6669,-0.6157,-0.5633,-0.563,-0.5544,-0.5542,-0.5455,-0.5188,-0.5099,-0.4314,-0.4278,-0.3983,-0.3288,-0.3197,-0.3199,-0.3108,-0.3108,-0.3109,-0.3099,-0.3042,-0.2888,-0.2884,-0.2875,-0.2882,-0.288,-0.2875,-0.2875,-0.2875,-0.2875,-0.2875,-0.2785,-0.2875,-0.2694,-0.2515,-0.2334,-0.2064,-0.1885,-0.1615,-0.1436,-0.1436,-0.1436,-0.1436,-0.9801,-1.0083,-1.0271,-1.0325,-1.0343,-1.0263,-1.0332,-1.0432,-1.0323,-1.0423,-1.0532,-0.9677,-0.9135,-0.8858,-0.8485,-0.8039,-0.7434,-0.7439,-0.7051,-0.6609,-0.6609,-0.6612,-0.6792,-0.67,-0.67,-0.6786,-0.6786,-0.6782,-0.676,-0.6737,-0.661,-0.6582,-0.649,-0.6569,-0.6987,-0.7288,-0.7548,-0.8008,-0.8755,-0.8803,-0.8129,-0.7966,-0.7799,-0.7556,-0.7682,-0.7801,-0.7687,-0.7798,-0.7825,-0.7825,-0.7893,-0.7825,-0.7825,-0.7825,-0.7789,-0.7581,-0.7957,-0.8272,-0.8332,-0.8354,-0.8374,-0.8566,-0.8656,-0.8751,-0.8874,-0.8779,-0.8883,-0.9269,-0.9397,-0.9122,-0.8352,-0.7796,-0.7669,-0.776,-0.7588,-0.7143,-0.6609,-0.6517,-0.6343,-0.5811,-0.5722,-0.566,-0.5368,-0.5371,-0.4984,-0.4275,-0.3996,-0.3813,-0.3337,-0.3146,-0.3334,-0.3705,-0.3471,-0.3075,-0.3064,-0.2943,-0.2929,-0.2918,-0.2895,-0.2875,-0.288,-0.2875,-0.2875,-0.2877,-0.2883,-0.2883,-0.2785,-0.2515,-0.2334,-0.2068,-0.1706,-0.1436,-0.1436,-0.1436,-0.1436,-1.0877,-1.1258,-1.1346,-1.1444,-1.1448,-1.1444,-1.1546,-1.1755,-1.1755,-1.1755,-1.1755,-1.1755,-1.1677,-1.1366,-1.0311,-0.9349,-0.8603,-0.8484,-0.8047,-0.7312,-0.7302,-0.7485,-0.7665,-0.7665,-0.7753,-0.7837,-0.7921,-0.7925,-0.7826,-0.7729,-0.7733,-0.7677,-0.7567,-0.7729,-0.8237,-0.8426,-0.8736,-0.9223,-0.9935,-1.0133,-0.976,-0.9291,-0.8769,-0.8486,-0.8425,-0.8325,-0.8174,-0.8108,-0.808,-0.808,-0.808,-0.808,-0.808,-0.808,-0.7952,-0.7785,-0.8298,-0.8699,-0.8714,-0.8486,-0.8468,-0.8685,-0.8746,-0.885,-0.8968,-0.893,-0.911,-0.9559,-0.9833,-0.9777,-0.934,-0.9082,-0.8819,-0.8636,-0.8644,-0.8296,-0.7584,-0.7499,-0.7228,-0.6605,-0.6697,-0.6406,-0.6377,-0.6233,-0.5849,-0.5216,-0.5122,-0.4923,-0.4251,-0.4066,-0.4353,-0.4923,-0.4442,-0.3941,-0.3531,-0.32,-0.3078,-0.2977,-0.2951,-0.2933,-0.3014,-0.2924,-0.2925,-0.2956,-0.2931,-0.2914,-0.2916,-0.2726,-0.2464,-0.2096,-0.1728,-0.1455,-0.1467,-0.1453,-0.1442,-1.334,-1.3437,-1.3908,-1.4004,-1.4094,-1.3998,-1.4106,-1.3908,-1.4004,-1.4106,-1.4004,-1.4004,-1.4088,-1.382,-1.1467,-0.9961,-0.9651,-0.9782,-0.9673,-0.9349,-0.9501,-0.9753,-0.9749,-0.9744,-0.9662,-0.9488,-0.9488,-0.9575,-0.9657,-0.9643,-0.9728,-0.9555,-0.9367,-0.9433,-0.9534,-1.0055,-1.0413,-1.0331,-1.099,-1.1236,-1.101,-1.0599,-0.9997,-0.9271,-0.8733,-0.8406,-0.8373,-0.8188,-0.8094,-0.8089,-0.8108,-0.8099,-0.8089,-0.8099,-0.8117,-0.8139,-0.8477,-0.8746,-0.8685,-0.8689,-0.8708,-0.8746,-0.8911,-0.902,-0.9086,-0.919,-0.9379,-0.955,-0.9842,-0.9956,-0.9878,-0.9349,-0.8907,-0.8636,-0.8644,-0.8564,-0.8476,-0.8404,-0.8484,-0.8404,-0.8267,-0.8042,-0.7543,-0.6745,-0.6571,-0.6352,-0.6294,-0.6187,-0.5973,-0.6088,-0.6082,-0.6179,-0.6069,-0.5836,-0.4799,-0.4188,-0.3521,-0.3509,-0.3782,-0.3309,-0.3133,-0.3137,-0.3132,-0.3127,-0.3112,-0.3,-0.2978,-0.2798,-0.2447,-0.2162,-0.1767,-0.1488,-0.1496,-0.1465,-0.1457,-1.3727,-1.4016,-1.4202,-1.4298,-1.4298,-1.4298,-1.4298,-1.4298,-1.4298,-1.4298,-1.4298,-1.4298,-1.4298,-1.4196,-1.3324,-1.2336,-1.1477,-1.142,-1.0865,-1.0149,-1.013,-1.006,-0.9927,-0.9923,-0.9923,-0.9923,-0.9923,-0.9923,-0.9923,-0.9923,-0.9889,-0.9833,-0.9814,-1.0032,-1.0547,-1.0752,-1.1046,-1.1532,-1.1712,-1.1648,-1.133,-1.0983,-1.0532,-1.0073,-0.9396,-0.8825,-0.8595,-0.8519,-0.8477,-0.8481,-0.8481,-0.8477,-0.8477,-0.8477,-0.8505,-0.851,-0.8585,-0.8842,-0.9048,-0.8989,-0.8968,-0.9091,-0.9167,-0.9275,-0.9393,-0.946,-0.9573,-0.979,-0.9894,-1.0038,-0.9956,-0.9607,-0.9248,-0.9069,-0.8907,-0.8836,-0.8765,-0.8746,-0.8731,-0.8763,-0.8909,-0.8945,-0.8744,-0.8534,-0.816,-0.7611,-0.7422,-0.712,-0.6623,-0.642,-0.6722,-0.7123,-0.6822,-0.6495,-0.692,-0.5843,-0.5126,-0.5204,-0.509,-0.4668,-0.4379,-0.4204,-0.4199,-0.3446,-0.3258,-0.3163,-0.3133,-0.2748,-0.2395,-0.2297,-0.1896,-0.1611,-0.1523,-0.1498,-0.1496,-1.4016,-1.4298,-1.4298,-1.4298,-1.4298,-1.4298,-1.4298,-1.4298,-1.4298,-1.4298,-1.4298,-1.4298,-1.4298,-1.4298,-1.4298,-1.3921,-1.3059,-1.2811,-1.2199,-1.1356,-1.1346,-1.1258,-1.1123,-1.1014,-1.1061,-1.0901,-1.0819,-1.0794,-1.0788,-1.0788,-1.0788,-1.0788,-1.0794,-1.1052,-1.1638,-1.159,-1.1819,-1.2218,-1.2137,-1.192,-1.1618,-1.1329,-1.1091,-1.0704,-1.0001,-0.9387,-0.8941,-0.878,-0.8703,-0.8703,-0.8703,-0.8703,-0.8703,-0.8703,-0.8703,-0.8703,-0.8703,-0.888,-0.9154,-0.9187,-0.9194,-0.9304,-0.9389,-0.9497,-0.9634,-0.9663,-0.9776,-0.9904,-1.0038,-1.0052,-0.9943,-0.9879,-0.9675,-0.9367,-0.913,-0.8996,-0.892,-0.8894,-0.8893,-0.8946,-0.9149,-0.9315,-0.9376,-0.9518,-0.9201,-0.8623,-0.852,-0.8124,-0.7624,-0.7422,-0.7624,-0.8326,-0.8021,-0.7918,-0.8178,-0.771,-0.6499,-0.6285,-0.6166,-0.581,-0.5583,-0.5302,-0.4827,-0.3967,-0.3586,-0.3396,-0.3198,-0.2801,-0.2609,-0.2518,-0.2129,-0.1741,-0.1641,-0.1538,-0.1534,-1.4298,-1.4298,-1.4298,-1.4298,-1.4298,-1.4298,-1.4298,-1.4298,-1.4298,-1.4298,-1.4298,-1.4298,-1.4298,-1.4298,-1.4298,-1.4286,-1.4124,-1.382,-1.3576,-1.3259,-1.3241,-1.3223,-1.3164,-1.3146,-1.3022,-1.2803,-1.2659,-1.2619,-1.2443,-1.2437,-1.2443,-1.2534,-1.2443,-1.2351,-1.2619,-1.2498,-1.2475,-1.2391,-1.2324,-1.2186,-1.1956,-1.1846,-1.1662,-1.1289,-1.0622,-0.9953,-0.9367,-0.8951,-0.8703,-0.8703,-0.8703,-0.8703,-0.8727,-0.8732,-0.8718,-0.8755,-0.8737,-0.8908,-0.9109,-0.9161,-0.919,-0.9379,-0.954,-0.9653,-0.97,-0.9819,-1.0009,-1.0028,-0.9979,-1.0041,-1.0023,-1.0168,-1.0027,-0.9411,-0.9272,-0.9182,-0.8943,-0.8982,-0.91,-0.9137,-0.9291,-0.9356,-0.9397,-0.9514,-0.9517,-0.9426,-0.9426,-0.9327,-0.9126,-0.9027,-0.943,-0.9525,-0.9126,-0.9023,-0.9324,-0.9422,-0.8216,-0.7208,-0.6988,-0.6747,-0.6527,-0.6328,-0.5826,-0.5143,-0.4747,-0.465,-0.425,-0.3844,-0.3357,-0.3165,-0.2566,-0.2068,-0.1871,-0.1768,-0.1563,-1.4298,-1.4298,-1.4298,-1.4298,-1.4298,-1.4298,-1.4298,-1.4298,-1.4298,-1.4298,-1.4298,-1.4298,-1.4298,-1.4298,-1.4298,-1.4298,-1.4292,-1.4201,-1.4032,-1.3815,-1.3785,-1.3694,-1.355,-1.3519,-1.3375,-1.3115,-1.2843,-1.2705,-1.2711,-1.2711,-1.2705,-1.2705,-1.2705,-1.2705,-1.2705,-1.2699,-1.2644,-1.2596,-1.2584,-1.2457,-1.2216,-1.2192,-1.2026,-1.1697,-1.0958,-1.0402,-1.0169,-0.9246,-0.8713,-0.8713,-0.8703,-0.877,-0.8892,-0.8926,-0.8992,-0.9025,-0.9129,-0.9399,-0.9591,-0.9542,-0.9526,-0.971,-0.9819,-0.9847,-0.9856,-0.9995,-1.0038,-1.0057,-1.0083,-1.0121,-1.0083,-1.0309,-1.0255,-0.9739,-0.9614,-0.9468,-0.9225,-0.9259,-0.9324,-0.9441,-0.951,-0.9539,-0.9543,-0.9612,-0.962,-0.9624,-0.9624,-0.9624,-0.9624,-0.9624,-0.9628,-0.9628,-0.9624,-0.9624,-0.9624,-0.9624,-0.9023,-0.8322,-0.812,-0.7822,-0.7624,-0.7422,-0.6924,-0.6326,-0.6027,-0.5625,-0.532,-0.4914,-0.4409,-0.391,-0.3494,-0.2902,-0.2215,-0.1806,-0.169,-1.4298,-1.4298,-1.4298,-1.4298,-1.4298,-1.4298,-1.4298,-1.4298,-1.4298,-1.4298,-1.4298,-1.4298,-1.4298,-1.4298,-1.4298,-1.4298,-1.4298,-1.4298,-1.4208,-1.4069,-1.4057,-1.3954,-1.3791,-1.3694,-1.3592,-1.3393,-1.3139,-1.2952,-1.2862,-1.2856,-1.2813,-1.2723,-1.2705,-1.2705,-1.2705,-1.2705,-1.2705,-1.2705,-1.2699,-1.262,-1.2493,-1.2457,-1.2379,-1.2064,-1.1215,-1.0767,-1.0653,-0.9587,-0.893,-0.893,-0.893,-0.9006,-0.9124,-0.9223,-0.9195,-0.9203,-0.9332,-0.9504,-0.9793,-0.9625,-0.9734,-0.9899,-1.0038,-1.0033,-1.0033,-1.0038,-1.0038,-1.0067,-1.014,-1.0301,-1.0295,-1.0477,-1.0519,-1.0324,-1.0072,-0.9793,-0.9569,-0.9481,-0.9486,-0.9583,-0.9616,-0.9624,-0.9624,-0.9624,-0.9624,-0.9624,-0.9624,-0.9624,-0.9624,-0.9624,-0.9624,-0.9624,-0.9624,-0.9624,-0.9624,-0.9624,-0.9624,-0.9426,-0.9324,-0.8924,-0.8627,-0.8623,-0.8223,-0.7223,-0.6725,-0.6224,-0.5819,-0.5922,-0.562,-0.5024,-0.4526,-0.3624,-0.2922,-0.2019,-0.1707,-1.4298,-1.4298,-1.4298,-1.4298,-1.4298,-1.4298,-1.4298,-1.4298,-1.4298,-1.4298,-1.4298,-1.4298,-1.4298,-1.4298,-1.4298,-1.4298,-1.4298,-1.4298,-1.4292,-1.4268,-1.4268,-1.4232,-1.4183,-1.3966,-1.3839,-1.3797,-1.358,-1.3344,-1.3085,-1.3073,-1.2982,-1.2729,-1.2705,-1.2705,-1.2705,-1.2705,-1.2705,-1.2705,-1.2705,-1.2687,-1.2674,-1.2687,-1.2674,-1.2559,-1.1691,-1.1088,-1.0883,-0.9955,-0.9341,-0.9318,-0.9266,-0.928,-0.9337,-0.9428,-0.9437,-0.9403,-0.937,-0.9493,-0.963,-0.9611,-0.9672,-0.9927,-1.0038,-1.0038,-1.0038,-1.0038,-1.0038,-1.0052,-1.0178,-1.0376,-1.0551,-1.0773,-1.0972,-1.1039,-1.043,-0.9934,-0.9686,-0.9608,-0.9612,-0.962,-0.9624,-0.9624,-0.9624,-0.9624,-0.9624,-0.9624,-0.9624,-0.9624,-0.9624,-0.9624,-0.9624,-0.9624,-0.9624,-0.9624,-0.9624,-0.9624,-0.9624,-0.9624,-0.9624,-0.9525,-0.9327,-0.9324,-0.9225,-0.8223,-0.7521,-0.6921,-0.6822,-0.7024,-0.6924,-0.6423,-0.5622,-0.4524,-0.3624,-0.2822,-0.2221,-1.4298,-1.4298,-1.4298,-1.4298,-1.4298,-1.4298,-1.4298,-1.4298,-1.4298,-1.4298,-1.4298,-1.4298,-1.4298,-1.4298,-1.4298,-1.4298,-1.4298,-1.4298,-1.4298,-1.4298,-1.4298,-1.4298,-1.4244,-1.4032,-1.3912,-1.3882,-1.3688,-1.3375,-1.3139,-1.3145,-1.2988,-1.2711,-1.2705,-1.2705,-1.2705,-1.2705,-1.2705,-1.2705,-1.2705,-1.2705,-1.2705,-1.2705,-1.2705,-1.2607,-1.2031,-1.1566,-1.115,-1.0328,-0.9625,-0.9346,-0.9322,-0.9403,-0.954,-0.9563,-0.9615,-0.9729,-0.9767,-0.979,-0.9842,-0.9861,-0.9899,-1.0024,-1.0038,-1.0038,-1.0038,-1.0038,-1.0038,-1.01,-1.0263,-1.0513,-1.0622,-1.0896,-1.1123,-1.1096,-1.0551,-0.9955,-0.9706,-0.9624,-0.9624,-0.9624,-0.9624,-0.9624,-0.9624,-0.9624,-0.9624,-0.9624,-0.9624,-0.9624,-0.9624,-0.9624,-0.9624,-0.9624,-0.9624,-0.9624,-0.9624,-0.9624,-0.9624,-0.9624,-0.9624,-0.9624,-0.9525,-0.9525,-0.9426,-0.9126,-0.8722,-0.8219,-0.852,-0.8825,-0.8322,-0.7621,-0.6921,-0.6019,-0.5022,-0.4223,-0.3425,-1.4298,-1.4298,-1.4298,-1.4298,-1.4298,-1.4298,-1.4298,-1.4298,-1.4298,-1.4298,-1.4298,-1.4298,-1.4298,-1.4298,-1.4298,-1.4298,-1.4298,-1.4298,-1.4298,-1.4298,-1.4298,-1.4298,-1.4256,-1.4117,-1.4075,-1.4057,-1.3918,-1.3646,-1.3357,-1.329,-1.3079,-1.2771,-1.2705,-1.2705,-1.2705,-1.2705,-1.2705,-1.2705,-1.2705,-1.2705,-1.2705,-1.2705,-1.2705,-1.2613,-1.2272,-1.1757,-1.1068,-1.0463,-1.0081,-0.9719,-0.9597,-0.9644,-0.9752,-0.9776,-0.9833,-1.0033,-1.0038,-1.0028,-1.0038,-1.0038,-1.0038,-1.0038,-1.0038,-1.0038,-1.0038,-1.0038,-1.0052,-1.0205,-1.0395,-1.0579,-1.0646,-1.1005,-1.1072,-1.1012,-1.0614,-1.0216,-0.9821,-0.9826,-0.9723,-0.9624,-0.9624,-0.9624,-0.9624,-0.9624,-0.9624,-0.9624,-0.9624,-0.9624,-0.9624,-0.9624,-0.9624,-0.9624,-0.9624,-0.9624,-0.9624,-0.9624,-0.9624,-0.9624,-0.9624,-0.9624,-0.9624,-0.9624,-0.9628,-0.9529,-0.9628,-0.9624,-0.9624,-0.9628,-0.9225,-0.8623,-0.8117,-0.7415,-0.6418,-0.5322,-0.4626,-1.4298,-1.4298,-1.4298,-1.4298,-1.4298,-1.4298,-1.4298,-1.4298,-1.4298,-1.4298,-1.4298,-1.4298,-1.4298,-1.4298,-1.4298,-1.4298,-1.4298,-1.4298,-1.4298,-1.4298,-1.4298,-1.4298,-1.4292,-1.4268,-1.4256,-1.4256,-1.4292,-1.399,-1.3646,-1.3525,-1.3236,-1.288,-1.2747,-1.2705,-1.2705,-1.2705,-1.2705,-1.2705,-1.2705,-1.2705,-1.2705,-1.2705,-1.2705,-1.2619,-1.21,-1.1585,-1.0895,-1.0549,-1.0265,-1.0028,-1.0038,-1.0005,-1.0024,-1.0028,-0.9946,-0.9946,-1.0038,-1.0038,-1.0038,-1.0038,-1.0038,-1.0038,-1.0038,-1.0038,-1.0043,-0.9989,-1.0171,-1.022,-1.0471,-1.0613,-1.0801,-1.1002,-1.1077,-1.1002,-1.0806,-1.0609,-1.0216,-1.0019,-0.9924,-0.9628,-0.9628,-0.9624,-0.9624,-0.9624,-0.9624,-0.9624,-0.9624,-0.9624,-0.9624,-0.9624,-0.9624,-0.9624,-0.9624,-0.9624,-0.9624,-0.9624,-0.9624,-0.9624,-0.9624,-0.9624,-0.9624,-0.9624,-0.9624,-0.9624,-0.9624,-0.9624,-0.9624,-0.9529,-0.9529,-0.9327,-0.8718,-0.8216,-0.7617,-0.642,-0.5525,-1.4298,-1.4298,-1.4298,-1.4298,-1.4298,-1.4298,-1.4298,-1.4298,-1.4298,-1.4298,-1.4298,-1.4298,-1.4298,-1.4298,-1.4298,-1.4298,-1.4298,-1.4298,-1.4298,-1.4298,-1.4298,-1.4298,-1.4298,-1.4298,-1.4298,-1.4298,-1.4298,-1.4123,-1.3845,-1.3586,-1.3357,-1.3049,-1.2795,-1.2705,-1.2705,-1.2705,-1.2705,-1.2705,-1.2705,-1.2705,-1.2705,-1.2705,-1.2705,-1.2619,-1.1929,-1.1413,-1.1063,-1.0467,-1.0125,-1.0038,-1.0038,-1.0038,-1.0038,-1.0038,-1.0038,-1.0038,-1.0038,-1.0038,-1.0038,-1.0038,-1.0038,-1.0038,-1.0038,-1.0038,-1.0052,-1.0107,-1.0206,-1.0343,-1.0603,-1.0882,-1.0979,-1.1156,-1.1189,-1.1096,-1.11,-1.1002,-1.0703,-1.0413,-1.0117,-0.9826,-0.9826,-0.9821,-0.9628,-0.9624,-0.9624,-0.9624,-0.9624,-0.9624,-0.9624,-0.9624,-0.9624,-0.9624,-0.9624,-0.9624,-0.9624,-0.9624,-0.9624,-0.9624,-0.9624,-0.9624,-0.9624,-0.9624,-0.9624,-0.9624,-0.9624,-0.9624,-0.9624,-0.9624,-0.9529,-0.9426,-0.9324,-0.8924,-0.8322,-0.7322,-0.6526,-1.4298,-1.4298,-1.4298,-1.4298,-1.4298,-1.4298,-1.4298,-1.4298,-1.4298,-1.4298,-1.4298,-1.4298,-1.4298,-1.4298,-1.4298,-1.4298,-1.4298,-1.4298,-1.4298,-1.4298,-1.4298,-1.4298,-1.4298,-1.4298,-1.4298,-1.4298,-1.4298,-1.4153,-1.39,-1.3646,-1.3381,-1.3121,-1.2843,-1.2717,-1.2705,-1.2705,-1.2705,-1.2705,-1.2705,-1.2705,-1.2705,-1.2705,-1.2705,-1.2619,-1.2015,-1.1585,-1.1235,-1.0636,-1.0212,-1.0038,-1.0038,-1.0038,-1.0038,-1.0038,-1.0038,-1.0038,-1.0038,-1.0038,-1.0038,-1.0038,-1.0038,-1.0038,-1.0038,-1.0105,-1.0167,-1.022,-1.0376,-1.0546,-1.0768,-1.0976,-1.1165,-1.1194,-1.1194,-1.1194,-1.1194,-1.1096,-1.1002,-1.0708,-1.0417,-1.0027,-0.9924,-0.9826,-0.9727,-0.9628,-0.9624,-0.9624,-0.9624,-0.9624,-0.9624,-0.9624,-0.9624,-0.9624,-0.9624,-0.9624,-0.9624,-0.9624,-0.9624,-0.9624,-0.9624,-0.9624,-0.9624,-0.9624,-0.9624,-0.9624,-0.9624,-0.9624,-0.9624,-0.9624,-0.9624,-0.9525,-0.9525,-0.9426,-0.9126,-0.8322,-0.7524,-1.4298,-1.4298,-1.4298,-1.4298,-1.4298,-1.4298,-1.4298,-1.4298,-1.4298,-1.4298,-1.4298,-1.4298,-1.4298,-1.4298,-1.4298,-1.4298,-1.4298,-1.4298,-1.4298,-1.4298,-1.4298,-1.4298,-1.4298,-1.4298,-1.4298,-1.4298,-1.4298,-1.4165,-1.3966,-1.367,-1.3429,-1.3169,-1.2843,-1.2717,-1.2705,-1.2705,-1.2705,-1.2705,-1.2705,-1.2705,-1.2705,-1.2705,-1.2705,-1.2619,-1.2186,-1.1757,-1.1322,-1.0804,-1.0376,-1.0033,-1.0038,-1.0038,-1.0038,-1.0038,-1.0038,-1.0038,-1.0038,-1.0038,-1.0038,-1.0038,-1.0038,-1.0038,-1.0086,-1.0171,-1.022,-1.0367,-1.056,-1.0754,-1.0943,-1.1028,-1.117,-1.1194,-1.1194,-1.1194,-1.1194,-1.1194,-1.1194,-1.0998,-1.0708,-1.0422,-1.022,-1.0019,-0.9826,-0.9628,-0.9628,-0.9624,-0.9624,-0.9624,-0.9624,-0.9624,-0.9624,-0.9624,-0.9624,-0.9624,-0.9624,-0.9624,-0.9624,-0.9624,-0.9624,-0.9624,-0.9624,-0.9624,-0.9624,-0.9624,-0.9624,-0.9624,-0.9624,-0.9624,-0.9624,-0.9624,-0.9624,-0.9525,-0.9426,-0.9126,-0.8524,-1.4298,-1.4298,-1.4298,-1.4298,-1.4298,-1.4298,-1.4298,-1.4298,-1.4298,-1.4298,-1.4298,-1.4298,-1.4298,-1.4298,-1.4298,-1.4298,-1.4298,-1.4298,-1.4298,-1.4298,-1.4298,-1.4298,-1.4298,-1.4298,-1.4298,-1.4298,-1.4298,-1.4256,-1.4111,-1.3773,-1.3544,-1.3357,-1.2964,-1.2735,-1.2759,-1.2705,-1.2735,-1.2783,-1.2741,-1.2705,-1.2747,-1.2717,-1.2705,-1.2619,-1.2277,-1.1757,-1.1322,-1.089,-1.0376,-1.0038,-1.0038,-1.0038,-1.0038,-1.0038,-1.0038,-1.0038,-1.0038,-1.0038,-1.0038,-1.0038,-1.0038,-1.0076,-1.0097,-1.0211,-1.0353,-1.057,-1.0764,-1.0891,-1.1047,-1.1156,-1.1184,-1.1194,-1.1194,-1.1194,-1.1194,-1.1194,-1.1194,-1.1096,-1.0998,-1.0708,-1.0511,-1.0216,-0.9924,-0.9727,-0.9628,-0.9624,-0.9624,-0.9624,-0.9624,-0.9624,-0.9624,-0.9624,-0.9624,-0.9624,-0.9624,-0.9624,-0.9624,-0.9624,-0.9624,-0.9624,-0.9624,-0.9624,-0.9624,-0.9624,-0.9624,-0.9624,-0.9624,-0.9624,-0.9624,-0.9624,-0.9624,-0.9624,-0.9426,-0.9327,-0.9027,-1.4298,-1.4298,-1.4298,-1.4298,-1.4298,-1.4298,-1.4298,-1.4298,-1.4298,-1.4298,-1.4298,-1.4298,-1.4298,-1.4298,-1.4298,-1.4298,-1.4298,-1.4298,-1.4298,-1.4298,-1.4298,-1.4298,-1.4298,-1.4298,-1.4298,-1.4298,-1.4298,-1.4298,-1.4262,-1.3918,-1.3719,-1.3592,-1.3181,-1.2988,-1.3012,-1.2843,-1.2904,-1.297,-1.2868,-1.2777,-1.2874,-1.2795,-1.2711,-1.2619,-1.2277,-1.1757,-1.1327,-1.0809,-1.0381,-1.0125,-1.0038,-1.0038,-1.0038,-1.0038,-1.0038,-1.0038,-1.0038,-1.0038,-1.0038,-1.0043,-1.0086,-1.0116,-1.0234,-1.039,-1.0565,-1.0783,-1.0938,-1.1042,-1.1099,-1.1194,-1.1194,-1.1194,-1.1194,-1.1194,-1.1194,-1.1194,-1.1194,-1.1194,-1.1096,-1.0998,-1.0605,-1.0314,-1.0023,-0.9826,-0.9628,-0.9624,-0.9624,-0.9624,-0.9624,-0.9624,-0.9624,-0.9624,-0.9624,-0.9624,-0.9624,-0.9624,-0.9624,-0.9624,-0.9624,-0.9624,-0.9624,-0.9624,-0.9624,-0.9624,-0.9624,-0.9624,-0.9624,-0.9624,-0.9624,-0.9624,-0.9624,-0.9624,-0.9529,-0.943,-0.913,-1.4298,-1.4298,-1.4298,-1.4298,-1.4298,-1.4298,-1.4298,-1.4298,-1.4298,-1.4298,-1.4298,-1.4298,-1.4298,-1.4298,-1.4298,-1.4298,-1.4298,-1.4298,-1.4298,-1.4298,-1.4298,-1.4298,-1.4298,-1.4298,-1.4298,-1.4298,-1.4298,-1.4298,-1.4244,-1.4002,-1.3912,-1.3755,-1.3405,-1.329,-1.335,-1.3109,-1.3218,-1.3145,-1.3061,-1.2922,-1.2934,-1.2831,-1.2705,-1.2705,-1.2357,-1.1929,-1.1322,-1.0982,-1.0467,-1.0207,-1.0038,-1.0038,-1.0038,-1.0038,-1.0038,-1.0038,-1.0038,-1.0038,-1.0047,-1.0114,-1.0112,-1.0225,-1.0357,-1.0584,-1.0773,-1.092,-1.1033,-1.1156,-1.1194,-1.1194,-1.1194,-1.1194,-1.1194,-1.1194,-1.1194,-1.1194,-1.1194,-1.1194,-1.1194,-1.0998,-1.0703,-1.0408,-1.0216,-0.9826,-0.9628,-0.9624,-0.9624,-0.9624,-0.9624,-0.9624,-0.9624,-0.9624,-0.9624,-0.9624,-0.9624,-0.9624,-0.9624,-0.9624,-0.9624,-0.9624,-0.9624,-0.9624,-0.9624,-0.9624,-0.9624,-0.9624,-0.9624,-0.9624,-0.9624,-0.9624,-0.9624,-0.9628,-0.9529,-0.943,-0.9331,-1.4298,-1.4298,-1.4298,-1.4298,-1.4298,-1.4298,-1.4298,-1.4298,-1.4298,-1.4298,-1.4298,-1.4298,-1.4298,-1.4298,-1.4298,-1.4298,-1.4298,-1.4298,-1.4298,-1.4298,-1.4298,-1.4298,-1.4298,-1.4298,-1.4298,-1.4298,-1.4298,-1.4298,-1.425,-1.4045,-1.393,-1.3857,-1.367,-1.3513,-1.3592,-1.3399,-1.3332,-1.3218,-1.3133,-1.3,-1.2843,-1.2783,-1.2759,-1.2735,-1.2564,-1.2198,-1.1505,-1.1241,-1.0809,-1.0125,-1.0038,-1.0038,-1.0038,-1.0038,-1.0038,-1.0038,-1.0038,-1.0038,-1.0086,-1.014,-1.0267,-1.04,-1.0589,-1.0801,-1.0934,-1.1052,-1.1142,-1.1175,-1.1194,-1.1194,-1.1194,-1.1194,-1.1194,-1.1194,-1.1194,-1.1194,-1.1194,-1.1194,-1.1194,-1.1096,-1.0801,-1.0605,-1.0413,-0.992,-0.9624,-0.9624,-0.9624,-0.9624,-0.9624,-0.9624,-0.9624,-0.9624,-0.9624,-0.9624,-0.9624,-0.9624,-0.9624,-0.9624,-0.9624,-0.9624,-0.9624,-0.9624,-0.9624,-0.9624,-0.9624,-0.9624,-0.9624,-0.9624,-0.9624,-0.9624,-0.9624,-0.9624,-0.9628,-0.9529,-0.943,-1.4298,-1.4298,-1.4298,-1.4298,-1.4298,-1.4298,-1.4298,-1.4298,-1.4298,-1.4298,-1.4298,-1.4298,-1.4298,-1.4298,-1.4298,-1.4298,-1.4298,-1.4298,-1.4298,-1.4298,-1.4298,-1.4298,-1.4298,-1.4298,-1.4298,-1.4298,-1.4298,-1.4298,-1.425,-1.4208,-1.4129,-1.4081,-1.3894,-1.3833,-1.3851,-1.3646,-1.3676,-1.3694,-1.3652,-1.3429,-1.3236,-1.3151,-1.3091,-1.2952,-1.2946,-1.2429,-1.1894,-1.1408,-1.0982,-1.0381,-1.0125,-1.0038,-1.0038,-1.0047,-1.0081,-1.0135,-1.014,-1.0229,-1.0257,-1.0429,-1.0471,-1.0608,-1.0801,-1.0924,-1.1042,-1.1132,-1.1194,-1.1194,-1.1194,-1.1194,-1.1194,-1.1194,-1.1194,-1.1194,-1.1194,-1.1194,-1.1194,-1.1194,-1.1194,-1.1096,-1.1002,-1.0806,-1.0511,-1.0117,-0.9821,-0.9628,-0.9628,-0.9624,-0.9624,-0.9624,-0.9624,-0.9624,-0.9624,-0.9624,-0.9624,-0.9624,-0.9624,-0.9624,-0.9624,-0.9624,-0.9624,-0.9624,-0.9624,-0.9624,-0.9624,-0.9624,-0.9624,-0.9624,-0.9624,-0.9624,-0.9624,-0.9624,-0.9624,-0.9624,-0.943,-1.4298,-1.4298,-1.4298,-1.4298,-1.4298,-1.4298,-1.4298,-1.4298,-1.4298,-1.4298,-1.4298,-1.4298,-1.4298,-1.4298,-1.4298,-1.4298,-1.4298,-1.4298,-1.4298,-1.4298,-1.4298,-1.4298,-1.4298,-1.4298,-1.4298,-1.4298,-1.4298,-1.4298,-1.4298,-1.4286,-1.4274,-1.4292,-1.4099,-1.4099,-1.4129,-1.3984,-1.3888,-1.4008,-1.3833,-1.364,-1.3507,-1.3477,-1.3375,-1.3278,-1.3105,-1.2851,-1.2243,-1.1964,-1.1532,-1.0838,-1.0593,-1.0435,-1.0248,-1.0173,-1.0216,-1.0343,-1.04,-1.0557,-1.0586,-1.0691,-1.0735,-1.0849,-1.0967,-1.1052,-1.1146,-1.1194,-1.1194,-1.1194,-1.1194,-1.1194,-1.1194,-1.1194,-1.1194,-1.1194,-1.1194,-1.1194,-1.1194,-1.1194,-1.1194,-1.1194,-1.0998,-1.0806,-1.0609,-1.031,-1.0019,-0.9727,-0.9628,-0.9628,-0.9624,-0.9624,-0.9624,-0.9624,-0.9624,-0.9624,-0.9624,-0.9624,-0.9624,-0.9624,-0.9624,-0.9624,-0.9624,-0.9624,-0.9624,-0.9624,-0.9624,-0.9624,-0.9624,-0.9624,-0.9624,-0.9624,-0.9624,-0.9624,-0.9624,-0.9624,-0.9525,-1.4298,-1.4298,-1.4298,-1.4298,-1.4298,-1.4298,-1.4298,-1.4298,-1.4298,-1.4298,-1.4298,-1.4298,-1.4298,-1.4298,-1.4298,-1.4298,-1.4298,-1.4298,-1.4298,-1.4298,-1.4298,-1.4298,-1.4298,-1.4298,-1.4298,-1.4298,-1.4298,-1.4298,-1.4298,-1.4298,-1.4298,-1.4286,-1.4226,-1.4262,-1.4274,-1.4183,-1.4045,-1.4051,-1.3827,-1.3688,-1.3616,-1.3592,-1.355,-1.3513,-1.3393,-1.32,-1.2813,-1.257,-1.218,-1.1359,-1.1167,-1.0899,-1.0505,-1.0601,-1.0639,-1.0736,-1.1238,-1.1412,-1.1477,-1.1114,-1.0872,-1.0948,-1.1134,-1.1336,-1.1189,-1.1194,-1.1194,-1.1194,-1.1194,-1.1194,-1.1194,-1.1194,-1.1194,-1.1194,-1.1194,-1.1194,-1.1194,-1.1194,-1.1194,-1.1194,-1.1096,-1.09,-1.0708,-1.0413,-1.0015,-0.9821,-0.9628,-0.9624,-0.9624,-0.9624,-0.9624,-0.9624,-0.9624,-0.9624,-0.9624,-0.9624,-0.9624,-0.9624,-0.9624,-0.9624,-0.9624,-0.9624,-0.9624,-0.9624,-0.9624,-0.9624,-0.9624,-0.9624,-0.9624,-0.9624,-0.9624,-0.9624,-0.9624,-0.9624,-0.9624,-1.4298,-1.4298,-1.4298,-1.4298,-1.4298,-1.4298,-1.4298,-1.4298,-1.4298,-1.4298,-1.4298,-1.4298,-1.4298,-1.4298,-1.4298,-1.4298,-1.4298,-1.4298,-1.4298,-1.4298,-1.4298,-1.4298,-1.4298,-1.4298,-1.4298,-1.4298,-1.4298,-1.4298,-1.4298,-1.4298,-1.4298,-1.4298,-1.4298,-1.4298,-1.4298,-1.4298,-1.4226,-1.4165,-1.4051,-1.399,-1.3996,-1.3984,-1.3918,-1.3761,-1.3755,-1.3567,-1.3265,-1.2968,-1.2415,-1.1967,-1.161,-1.1256,-1.1076,-1.1246,-1.1482,-1.1662,-1.2283,-1.2747,-1.2581,-1.1925,-1.108,-1.1279,-1.1628,-1.1863,-1.1482,-1.1194,-1.1194,-1.1194,-1.1184,-1.1175,-1.1189,-1.1194,-1.1194,-1.1194,-1.1292,-1.1385,-1.1482,-1.1678,-1.1482,-1.158,-1.1287,-1.0998,-1.0806,-1.0511,-1.0117,-0.9821,-0.9723,-0.9624,-0.9624,-0.9624,-0.9624,-0.9624,-0.9624,-0.9624,-0.9624,-0.9624,-0.9624,-0.9624,-0.9624,-0.9624,-0.9624,-0.9624,-0.9624,-0.9624,-0.9624,-0.9624,-0.9624,-0.9624,-0.9624,-0.9624,-0.9624,-0.9624,-0.9624,-0.9624,-0.9624,-1.4111,-1.4177,-1.4177,-1.4226,-1.4292,-1.4298,-1.4298,-1.4298,-1.4298,-1.4298,-1.4298,-1.4298,-1.4298,-1.4298,-1.4298,-1.4298,-1.4298,-1.4298,-1.4298,-1.4298,-1.4298,-1.4298,-1.4298,-1.4298,-1.4298,-1.4298,-1.4298,-1.4298,-1.4298,-1.4298,-1.4298,-1.4298,-1.4298,-1.4298,-1.4298,-1.4298,-1.4298,-1.4298,-1.4298,-1.4298,-1.428,-1.4268,-1.422,-1.4032,-1.402,-1.3966,-1.3752,-1.3543,-1.3153,-1.2681,-1.239,-1.2088,-1.1978,-1.2165,-1.2703,-1.3074,-1.3437,-1.398,-1.3825,-1.321,-1.2155,-1.2522,-1.2813,-1.2732,-1.2252,-1.1678,-1.1389,-1.2247,-1.1833,-1.1225,-1.1429,-1.1726,-1.2339,-1.2635,-1.2635,-1.2635,-1.264,-1.264,-1.2252,-1.1965,-1.1673,-1.1575,-1.0801,-1.0511,-1.0117,-0.9821,-0.9723,-0.9624,-0.9624,-0.9624,-0.9624,-0.9624,-0.9624,-0.9624,-0.9624,-0.9624,-0.9624,-0.9624,-0.9624,-0.9624,-0.9624,-0.9624,-0.9624,-0.9624,-0.9624,-0.9624,-0.9624,-0.9624,-0.9624,-0.9624,-0.9624,-0.9624,-0.9624,-0.9624,-0.9624,-1.3694,-1.3906,-1.3912,-1.4051,-1.4238,-1.4292,-1.4298,-1.4298,-1.4298,-1.4298,-1.4298,-1.4298,-1.4298,-1.4298,-1.4298,-1.4298,-1.4298,-1.4298,-1.4298,-1.4298,-1.4298,-1.4298,-1.4298,-1.4298,-1.4298,-1.4298,-1.4298,-1.4298,-1.4298,-1.4298,-1.4298,-1.4298,-1.4298,-1.4298,-1.4298,-1.4298,-1.4298,-1.4298,-1.4298,-1.4298,-1.4298,-1.4298,-1.4262,-1.4238,-1.422,-1.4165,-1.4141,-1.4218,-1.3921,-1.3547,-1.3844,-1.3648,-1.3368,-1.3755,-1.4165,-1.4297,-1.3784,-1.3903,-1.4262,-1.4262,-1.4172,-1.3884,-1.398,-1.398,-1.3692,-1.2926,-1.2252,-1.3397,-1.2822,-1.1879,-1.2086,-1.2816,-1.3465,-1.4112,-1.4118,-1.3692,-1.3596,-1.3698,-1.3312,-1.2732,-1.2538,-1.2247,-1.1184,-1.0413,-1.0019,-0.9821,-0.9624,-0.9624,-0.9628,-0.9624,-0.9624,-0.9624,-0.9624,-0.9624,-0.9624,-0.9624,-0.9624,-0.9624,-0.9624,-0.9624,-0.9624,-0.9624,-0.9624,-0.9624,-0.9624,-0.9624,-0.9624,-0.9624,-0.9624,-0.9624,-0.9624,-0.9624,-0.9624,-0.9624,-0.9624,-1.3568,-1.3646,-1.3646,-1.3694,-1.3827,-1.4159,-1.4298,-1.4298,-1.4298,-1.4298,-1.4298,-1.4298,-1.4298,-1.4298,-1.4298,-1.4298,-1.4298,-1.4298,-1.4298,-1.4298,-1.4298,-1.4298,-1.4298,-1.4298,-1.4298,-1.4298,-1.4298,-1.4394,-1.4298,-1.449,-1.4394,-1.4298,-1.449,-1.4298,-1.4298,-1.4298,-1.4298,-1.4298,-1.4298,-1.4298,-1.4298,-1.4394,-1.4394,-1.4394,-1.4394,-1.449,-1.449,-1.4771,-1.4771,-1.4478,-1.4854,-1.4848,-1.4561,-1.4937,-1.5317,-1.5507,-1.5373,-1.5961,-1.6271,-1.6177,-1.5609,-1.5127,-1.4937,-1.5032,-1.4268,-1.5222,-1.493,-1.474,-1.4766,-1.4046,-1.4017,-1.3843,-1.4484,-1.5665,-1.5658,-1.4688,-1.4364,-1.4657,-1.4561,-1.3788,-1.3301,-1.2344,-1.1282,-1.0895,-1.0502,-1.0019,-0.9821,-0.9727,-0.9628,-0.9628,-0.9624,-0.9624,-0.9624,-0.9624,-0.9624,-0.9624,-0.9624,-0.9624,-0.9624,-0.9624,-0.9624,-0.9624,-0.9624,-0.9624,-0.9624,-0.9624,-0.9624,-0.9624,-0.9624,-0.9624,-0.9624,-0.9624,-0.9624,-0.9624,-0.9624,-1.329,-1.3381,-1.3381,-1.3435,-1.3574,-1.3984,-1.4201,-1.428,-1.4298,-1.4298,-1.4298,-1.4298,-1.4298,-1.4298,-1.4298,-1.4298,-1.4298,-1.4298,-1.4298,-1.4298,-1.4298,-1.4298,-1.4298,-1.4394,-1.449,-1.4586,-1.4682,-1.4777,-1.5248,-1.5153,-1.5153,-1.5255,-1.5064,-1.5248,-1.5057,-1.4777,-1.4298,-1.4394,-1.4484,-1.4771,-1.4867,-1.4968,-1.5159,-1.5153,-1.5153,-1.5153,-1.5248,-1.5439,-1.5717,-1.552,-1.5704,-1.5886,-1.5792,-1.5988,-1.6466,-1.6763,-1.685,-1.7232,-1.7138,-1.7138,-1.6466,-1.5704,-1.6089,-1.5988,-1.5602,-1.6365,-1.6271,-1.6278,-1.6756,-1.6278,-1.5507,-1.5229,-1.5655,-1.6933,-1.6606,-1.5622,-1.5609,-1.59,-1.5615,-1.4841,-1.4166,-1.3017,-1.1765,-1.138,-1.1082,-1.06,-1.0117,-0.992,-0.9727,-0.9628,-0.9628,-0.9624,-0.9624,-0.9624,-0.9624,-0.9624,-0.9624,-0.9624,-0.9624,-0.9624,-0.9624,-0.9624,-0.9624,-0.9624,-0.9624,-0.9624,-0.9624,-0.9624,-0.9624,-0.9624,-0.9624,-0.9624,-0.9624,-0.9624,-0.9624,-1.2954,-1.3097,-1.3115,-1.3248,-1.3592,-1.3915,-1.4102,-1.4268,-1.428,-1.428,-1.4298,-1.4298,-1.4298,-1.4298,-1.4298,-1.4394,-1.4394,-1.4394,-1.449,-1.449,-1.449,-1.449,-1.4586,-1.4682,-1.5064,-1.5343,-1.5439,-1.5724,-1.6393,-1.6204,-1.6204,-1.6393,-1.6211,-1.6204,-1.5825,-1.535,-1.4777,-1.4962,-1.5248,-1.5432,-1.5534,-1.6015,-1.6109,-1.6204,-1.6204,-1.6204,-1.6298,-1.648,-1.6581,-1.6669,-1.6951,-1.7239,-1.7333,-1.7527,-1.7729,-1.7628,-1.7426,-1.7333,-1.7333,-1.7333,-1.7239,-1.6756,-1.7044,-1.7232,-1.7138,-1.7044,-1.6943,-1.685,-1.7138,-1.7239,-1.7044,-1.6951,-1.6951,-1.7276,-1.7276,-1.6951,-1.6951,-1.6857,-1.6567,-1.6082,-1.5609,-1.4549,-1.3108,-1.2436,-1.2047,-1.1375,-1.089,-1.0408,-1.0216,-0.9628,-0.9628,-0.9723,-0.9624,-0.9624,-0.9624,-0.9624,-0.9624,-0.9624,-0.9624,-0.9624,-0.9624,-0.9624,-0.9624,-0.9624,-0.9624,-0.9624,-0.9624,-0.9624,-0.9624,-0.9624,-0.9624,-0.9624,-0.9624,-0.9624,-0.9624,-1.3861,-1.3519,-1.3519,-1.357,-1.3758,-1.4454,-1.4488,-1.4078,-1.4233,-1.4319,-1.4298,-1.4298,-1.4345,-1.4298,-1.4867,-1.4669,-1.4675,-1.4771,-1.5057,-1.5057,-1.5057,-1.5439,-1.573,-1.5825,-1.6109,-1.6204,-1.6298,-1.6393,-1.6588,-1.6683,-1.6683,-1.6588,-1.6777,-1.6777,-1.6581,-1.6204,-1.6008,-1.5913,-1.6197,-1.6197,-1.6292,-1.6581,-1.6777,-1.6777,-1.6777,-1.6777,-1.6864,-1.7232,-1.7326,-1.7512,-1.79,-1.8102,-1.8195,-1.8087,-1.7893,-1.7412,-1.7318,-1.7333,-1.7333,-1.7333,-1.7333,-1.7333,-1.7333,-1.7333,-1.7333,-1.7333,-1.7333,-1.7333,-1.7333,-1.7333,-1.7333,-1.7333,-1.7333,-1.7333,-1.7333,-1.7333,-1.7333,-1.7239,-1.6951,-1.6756,-1.6372,-1.5514,-1.4166,-1.3782,-1.3301,-1.2533,-1.1765,-1.1282,-1.0605,-1.0117,-0.9727,-0.9821,-0.9723,-0.9624,-0.9624,-0.9624,-0.9624,-0.9624,-0.9624,-0.9624,-0.9624,-0.9624,-0.9624,-0.9624,-0.9624,-0.9624,-0.9624,-0.9624,-0.9624,-0.9624,-0.9624,-0.9624,-0.9624,-0.9624,-0.9624,-1.4489,-1.4153,-1.4062,-1.4068,-1.4179,-1.4682,-1.469,-1.4463,-1.463,-1.4686,-1.4347,-1.4434,-1.4603,-1.4967,-1.5162,-1.522,-1.5343,-1.5629,-1.5913,-1.5913,-1.5818,-1.6103,-1.6487,-1.6683,-1.677,-1.6864,-1.7138,-1.7232,-1.7333,-1.7434,-1.752,-1.752,-1.752,-1.7426,-1.752,-1.7512,-1.7512,-1.7326,-1.7232,-1.7044,-1.7138,-1.7232,-1.7426,-1.7426,-1.7426,-1.7426,-1.7426,-1.7978,-1.8071,-1.8164,-1.8558,-1.8566,-1.8574,-1.8473,-1.7986,-1.7598,-1.7512,-1.7426,-1.7333,-1.7333,-1.7333,-1.7333,-1.7333,-1.7333,-1.7333,-1.7333,-1.7333,-1.7333,-1.7333,-1.7333,-1.7333,-1.7333,-1.7333,-1.7333,-1.7333,-1.7333,-1.7333,-1.7333,-1.7232,-1.7138,-1.6662,-1.5988,-1.5412,-1.5032,-1.4453,-1.3499,-1.263,-1.2052,-1.1277,-1.0507,-1.0117,-0.992,-0.9723,-0.9624,-0.9624,-0.9624,-0.9624,-0.9624,-0.9624,-0.9624,-0.9624,-0.9624,-0.9624,-0.9624,-0.9624,-0.9624,-0.9624,-0.9624,-0.9624,-0.9624,-0.9624,-0.9624,-0.9624,-0.9624,-0.9624,-1.4817,-1.4734,-1.4817,-1.4734,-1.4734,-1.4838,-1.5,-1.5081,-1.5434,-1.5253,-1.4687,-1.4597,-1.504,-1.5508,-1.5596,-1.579,-1.6019,-1.6383,-1.6612,-1.6655,-1.6669,-1.6857,-1.6958,-1.6871,-1.7419,-1.7699,-1.7885,-1.7986,-1.8542,-1.855,-1.8458,-1.8827,-1.8643,-1.8458,-1.845,-1.845,-1.8357,-1.8272,-1.7986,-1.7792,-1.7978,-1.8357,-1.8827,-1.8643,-1.8643,-1.8643,-1.8643,-1.8735,-1.8827,-1.8827,-1.8827,-1.8743,-1.8751,-1.8674,-1.8187,-1.78,-1.7714,-1.7527,-1.7426,-1.7333,-1.7333,-1.7333,-1.7333,-1.7333,-1.7333,-1.7333,-1.7333,-1.7333,-1.7333,-1.7333,-1.7333,-1.7333,-1.7333,-1.7333,-1.7333,-1.7333,-1.7333,-1.7333,-1.7333,-1.7232,-1.7138,-1.6466,-1.6271,-1.5886,-1.5507,-1.4459,-1.3878,-1.3204,-1.2242,-1.1277,-1.06,-1.0212,-0.992,-0.9723,-0.9624,-0.9624,-0.9624,-0.9624,-0.9624,-0.9624,-0.9624,-0.9624,-0.9624,-0.9624,-0.9624,-0.9624,-0.9624,-0.9624,-0.9624,-0.9624,-0.9624,-0.9624,-0.9624,-0.9624,-0.9624,-1.5899,-1.5477,-1.5484,-1.5151,-1.4901,-1.5816,-1.5604,-1.493,-1.6012,-1.5992,-1.5396,-1.5274,-1.5397,-1.5756,-1.6328,-1.6414,-1.6168,-1.6992,-1.7228,-1.725,-1.7294,-1.7699,-1.8079,-1.7986,-1.8265,-1.845,-1.8542,-1.8542,-1.8735,-1.8827,-1.8827,-1.8827,-1.8827,-1.8827,-1.8827,-1.8827,-1.8827,-1.8743,-1.8643,-1.845,-1.845,-1.8542,-1.8827,-1.8827,-1.8827,-1.8827,-1.8827,-1.8827,-1.8827,-1.8827,-1.8827,-1.8827,-1.8827,-1.8666,-1.8381,-1.7986,-1.7815,-1.7628,-1.7434,-1.7333,-1.7333,-1.7333,-1.7333,-1.7333,-1.7333,-1.7333,-1.7333,-1.7333,-1.7333,-1.7333,-1.7333,-1.7333,-1.7333,-1.7333,-1.7333,-1.7333,-1.7333,-1.7333,-1.7333,-1.7333,-1.7333,-1.7138,-1.6943,-1.6655,-1.6278,-1.5893,-1.5507,-1.474,-1.359,-1.263,-1.1277,-1.0797,-1.0117,-0.9924,-0.9723,-0.9624,-0.9624,-0.9624,-0.9624,-0.9624,-0.9624,-0.9624,-0.9624,-0.9624,-0.9624,-0.9624,-0.9624,-0.9624,-0.9624,-0.9624,-0.9624,-0.9624,-0.9624,-0.9624,-0.9624,-1.6484,-1.6147,-1.6154,-1.5899,-1.5733,-1.6402,-1.6229,-1.5816,-1.6402,-1.6437,-1.5977,-1.5763,-1.5828,-1.6126,-1.672,-1.6936,-1.6581,-1.75,-1.7781,-1.7811,-1.7942,-1.8403,-1.8727,-1.8819,-1.8735,-1.8827,-1.8827,-1.8735,-1.8827,-1.8827,-1.8827,-1.8827,-1.8827,-1.8827,-1.8827,-1.8827,-1.8827,-1.8827,-1.8827,-1.8827,-1.8827,-1.8827,-1.8827,-1.8827,-1.8827,-1.8827,-1.8827,-1.8827,-1.8827,-1.8827,-1.8827,-1.8827,-1.8827,-1.8743,-1.8465,-1.828,-1.8001,-1.7822,-1.7527,-1.7333,-1.7333,-1.7333,-1.7333,-1.7333,-1.7333,-1.7333,-1.7333,-1.7333,-1.7333,-1.7333,-1.7333,-1.7333,-1.7333,-1.7333,-1.7333,-1.7333,-1.7333,-1.7333,-1.7333,-1.7333,-1.7333,-1.7239,-1.7138,-1.7044,-1.6756,-1.656,-1.6271,-1.5893,-1.4835,-1.3782,-1.2533,-1.1375,-1.0797,-1.0117,-0.9723,-0.9624,-0.9624,-0.9624,-0.9624,-0.9624,-0.9624,-0.9624,-0.9624,-0.9624,-0.9624,-0.9624,-0.9624,-0.9624,-0.9624,-0.9624,-0.9624,-0.9624,-0.9624,-0.9624,-0.9624,-1.6648,-1.673,-1.6648,-1.6648,-1.6648,-1.673,-1.6648,-1.6648,-1.673,-1.673,-1.6539,-1.6042,-1.6437,-1.6691,-1.6777,-1.711,-1.751,-1.776,-1.8063,-1.8134,-1.8443,-1.853,-1.8617,-1.8796,-1.8812,-1.8827,-1.8827,-1.8827,-1.8827,-1.8827,-1.8827,-1.8827,-1.8827,-1.8827,-1.8827,-1.8827,-1.8827,-1.8827,-1.8827,-1.8827,-1.8827,-1.8827,-1.8827,-1.8827,-1.8827,-1.8827,-1.8827,-1.8827,-1.8827,-1.8827,-1.8827,-1.8827,-1.8827,-1.8735,-1.8542,-1.8365,-1.8396,-1.8109,-1.7721,-1.7419,-1.7326,-1.7333,-1.7333,-1.7333,-1.7333,-1.7333,-1.7333,-1.7333,-1.7333,-1.7333,-1.7333,-1.7333,-1.7333,-1.7333,-1.7333,-1.7333,-1.7333,-1.7333,-1.7333,-1.7333,-1.7333,-1.7333,-1.7333,-1.7333,-1.7232,-1.7037,-1.6756,-1.6372,-1.5704,-1.474,-1.3584,-1.2431,-1.1565,-1.0792,-0.9916,-0.9628,-0.9628,-0.9624,-0.9624,-0.9624,-0.9624,-0.9624,-0.9624,-0.9624,-0.9624,-0.9624,-0.9624,-0.9624,-0.9624,-0.9624,-0.9624,-0.9624,-0.9624,-0.9624,-0.9624,-1.673,-1.673,-1.673,-1.673,-1.673,-1.673,-1.673,-1.673,-1.673,-1.673,-1.6648,-1.6656,-1.6719,-1.6865,-1.7091,-1.7186,-1.7075,-1.7596,-1.762,-1.7572,-1.8152,-1.8343,-1.8518,-1.8732,-1.8804,-1.8827,-1.8827,-1.8827,-1.8827,-1.8827,-1.8827,-1.8827,-1.8827,-1.8827,-1.8827,-1.8827,-1.8827,-1.8827,-1.8827,-1.8827,-1.8827,-1.8827,-1.8827,-1.8827,-1.8827,-1.8827,-1.8827,-1.8827,-1.8827,-1.8827,-1.8827,-1.8827,-1.8827,-1.8827,-1.8635,-1.8558,-1.8489,-1.8202,-1.7815,-1.7512,-1.7419,-1.7333,-1.7333,-1.7333,-1.7333,-1.7333,-1.7333,-1.7333,-1.7333,-1.7333,-1.7333,-1.7333,-1.7333,-1.7333,-1.7333,-1.7333,-1.7333,-1.7333,-1.7333,-1.7333,-1.7333,-1.7333,-1.7333,-1.7333,-1.7333,-1.7232,-1.7232,-1.6756,-1.656,-1.5697,-1.4543,-1.3488,-1.2339,-1.1277,-1.0212,-0.9727,-0.9628,-0.9628,-0.9624,-0.9624,-0.9624,-0.9624,-0.9624,-0.9624,-0.9624,-0.9624,-0.9624,-0.9624,-0.9624,-0.9624,-0.9624,-0.9624,-0.9624,-0.9624,-0.9624]},{"header":{"parameterUnit":"m.s-1","parameterCategory":1,"la1":31.0,"la2":29.5877,"lo1":-88.7671,"lo2":-86.6584,"dy":0.0162,"dx":0.0185,"nx":115,"ny":88,"refTime":"2024-07-09T06:00:00:Z","depth":0,"parameterNumber":3,"parameterNumberName":"V-component_of_WINDS"},"data":[0.0,0.0,0.0,0.0,0.0,0.0,0.0,0.0,0.0,0.0,0.0,0.0,0.0,0.0,0.0,0.0,0.0,0.0,0.0,0.0,0.0,0.0,0.0,0.0,0.0,0.0,0.0,0.0,0.0,0.0,0.0,0.0,0.0,0.0,0.0,0.0,0.0,0.0,0.0,0.0,0.0,0.0,0.0,0.0,0.0,0.0,0.0,0.0,0.0,0.0,0.0,0.0,0.0,0.0,0.0,0.0,0.0,0.0,0.0,0.0,0.0,0.0,0.0,0.0,0.0,0.0,0.0,0.0,0.0,0.0,0.0,0.0,0.0,0.0,0.0,0.0,0.0,0.0,0.0,0.0,0.0,0.0,0.0,0.0,0.0,0.0,0.0,0.0,0.0,0.0,0.0,0.0,0.0,0.0,0.0,0.0,0.0,0.0,0.0,0.0,0.0,0.0,0.0,0.0,0.0,0.0,0.0,0.0,0.0,0.0,0.0,0.0,0.0,0.0,0.0,0.0,0.0,0.0,0.0,0.0,0.0,0.0,0.0,0.0,0.0,0.0,0.0,0.0,0.0,0.0,0.0,0.0,0.0,0.0,0.0,0.0,0.0,0.0,0.0,0.0,0.0,0.0,0.0,0.0,0.0,0.0,0.0,0.0,0.0,0.0,0.0,0.0,0.0,0.0,0.0,0.0,0.0,0.0,0.0,0.0,0.0,0.0,0.0,0.0,0.0,0.0,0.0,0.0,0.0,0.0,0.0,0.0,0.0,0.0,0.0,0.0,0.0,0.0,0.0,0.0,0.0,0.0,0.0,0.0,0.0,0.0,0.0,0.0,0.0,0.0,0.0,0.0,0.0,0.0,0.0,0.0,0.0,0.0,0.0,0.0,0.0,0.0,0.0,0.0,0.0,0.0,0.0,0.0,0.0,0.0,0.0,0.0,0.0,0.0,0.0,0.0,0.0,0.0,0.0,0.0,0.0,0.0,0.0,0.0,0.0,0.0,0.0,0.0,0.0,0.0,0.0,0.0,0.0,0.0,0.0,0.0,0.0,0.0,0.0,0.0,0.0,0.0,0.0,0.0,0.0,0.0,0.0,0.0,0.0,0.0,0.0,0.0,0.0,0.0,0.0,0.0,0.0,0.0,0.0,0.0,0.0,0.0,0.0,0.0,0.0,0.0,0.0,0.0,0.0,0.0,0.0,0.0,0.0,0.0,0.0,0.0,0.0,0.0,0.0,0.0,0.0,0.0,0.0,0.0,0.0,0.0,0.0,0.0,0.0,0.0,0.0,0.0,0.0,0.0,0.0,0.0,0.0,0.0,0.0,0.0,0.0,0.0,0.0,0.0,0.0,0.0,0.0,0.0,0.0,0.0,0.0,0.0,0.0,0.0,0.0,0.0,0.0,0.0,0.0,0.0,0.0,0.0,0.0,0.0,0.0,0.0,0.0,0.0,0.0,0.0,0.0,0.0,0.0,0.0,0.0,0.0,0.0,0.0,0.0,0.0,0.0,0.0,0.0,0.0,0.0,0.0,0.0,0.0,0.0,0.0,0.0,0.0,0.0,0.0,0.0,0.0,0.0,0.0,0.0,0.0,0.0,0.0,0.0,0.0,0.0,0.0,0.0,0.0,0.0,0.0,0.0,0.0,0.0,0.0,0.0,0.0,0.0,0.0,0.0,0.0,0.0,0.0,0.0,0.0,0.0,0.0,0.0,0.0,0.0,0.0,0.0,0.0,0.0,0.0,0.0,0.0,0.0,0.0,0.0,0.0,0.0,0.0,0.0,0.0,0.0,0.0,0.0,0.0,0.0,0.0,0.0,0.0,0.0,0.0,0.0,0.0,0.0,0.0,0.0,0.0,0.0,0.0,0.0,0.0,0.0,0.0,0.0,0.0,0.0,0.0,0.0,0.0,0.0,0.0,0.0,0.0,0.0,0.0,0.0,0.0,0.0,0.0,0.0,0.0,0.0,0.0,0.0,0.0,0.0,0.0,0.0,0.0,0.0,0.0,0.0,0.0,0.0,0.0,0.0,0.0,0.0,0.0,0.0,0.0,0.0,0.0,0.0,0.0,0.0,0.0,0.0,0.0,0.0,0.0,0.0,0.0,0.0,0.0,0.0,0.0,0.0,0.0,0.0,0.0,0.0,0.0,0.0,0.0,0.0,0.0,0.0,0.0,0.0,0.0,0.0,0.0,0.0,0.0,0.0,0.0,0.0,0.0,0.0,0.0,0.0,0.0,0.0,0.0,0.0,0.0,0.0,0.0,0.0,0.0,0.0,0.0,0.0,0.0,0.0,0.0,0.0,0.0,0.0,0.0,0.0,0.0,0.0,0.0,0.0,0.0,0.0,0.0,0.0,0.0,0.0,0.0,0.0,0.0,0.0,0.0,0.0,0.0,0.0,0.0,0.0,0.0,0.0,0.0,0.0,0.0,0.0,0.0,0.0,0.0,0.0,0.0,0.0,0.0,0.0,0.0,0.0,0.0,0.0,0.0,0.0,0.0,0.0,0.0,0.0,0.0,0.0,0.0,0.0,0.0,0.0,0.0,0.0,0.0,0.0,0.0,0.0,0.0,0.0,0.0,0.0,0.0,0.0,0.0,0.0,0.0,0.0,0.0,0.0,0.0,0.0,0.0,0.0,0.0,0.0,0.0,0.0,0.0,0.0,0.0,0.0,0.0,0.0,0.0,0.0,0.0,0.0,0.0,0.0,0.0,0.0,0.0,0.0,0.0,0.0,0.0,0.0,0.0,0.0,0.0,0.0,0.0,0.0,0.0,0.0,0.0,0.0,0.0,0.0,0.0,0.0,0.0,0.0,0.0,0.0,0.0,0.0,0.0,0.0,0.0,0.0,0.0,0.0,0.0,0.0,0.0,0.0,0.0,0.0,0.0,0.0,0.0,0.0,0.0,0.0,0.0,0.0,0.0,0.0,0.0,0.0,0.0,0.0,0.0,0.0,0.0,0.0,0.0,0.0,0.0,0.0,0.0,0.0,0.0,0.0,0.0,0.0,0.0,0.0,0.0,0.0,0.0,0.0,0.0,0.0,0.0,0.0,0.0,0.0,0.0,0.0,0.0,0.0,0.0,0.0,0.0,0.0,0.0,0.0,0.0,0.0,0.0,0.0,0.0,0.0,0.0,0.0,0.0,0.0,0.0,0.0,0.0,0.0,0.0,0.0,0.0,0.0,0.0,0.0,0.0,0.0,0.0,0.0,0.0,0.0,0.0,0.0,0.0,0.0,0.0,0.0,0.0,0.0,0.0,0.0,0.0,0.0,0.0,0.0,0.0,0.0,0.0,0.0,0.0,0.0,0.0,0.0,0.0,0.0,0.0,0.0,0.0,0.0,0.0,0.0,0.0,0.0,0.0,0.0,0.0,0.0,0.0,0.0,0.0,0.0,0.0,0.0,0.0,0.0,0.0,0.0,0.0,0.0,0.0,0.0,0.0,0.0,0.0,0.0,0.0,0.0,0.0,0.0,0.0,0.0,0.0,0.0,0.0,0.0,0.0,0.0,0.0,0.0,0.0,0.0,0.0,0.0,0.0,0.0,0.0,0.0,0.0,0.0,0.0,0.0,0.0,0.0,0.0,0.0,0.0,0.0,0.0,0.0,0.0,0.0,0.0,0.0,0.0,0.0,0.0,0.0,0.0,0.0,0.0,0.0,0.0,0.0,0.0,0.0,0.0,0.0,0.0,0.0,0.0,0.0,0.0,0.0,0.0,0.0,0.0,0.0,0.0,0.0,0.0,0.0,0.0,0.0,0.0,0.0,0.0,0.0,0.0,0.0,0.0,0.0,0.0,0.0,0.0,0.0,0.0,0.0,0.0,0.0,0.0,0.0,0.0,0.0,0.0,0.0,0.0,0.0,0.0,0.0,0.0,0.0,0.0,0.0,0.0,0.0,0.0,0.0,0.0,0.0,0.0,0.0,0.0,0.0,0.0,0.0,0.0,0.0,0.0,0.0,0.0,0.0,0.0,0.0,0.0,0.0,0.0,0.0,0.0,0.0,0.0,0.0,0.0,0.0,0.0,0.0,0.0,0.0,0.0,0.0,0.0,0.0,0.0,0.0,0.0,0.0,0.0,0.0,0.0,0.0,0.0,0.0,0.0,0.0,0.0,0.0,0.0,0.0,0.0,0.0,0.0,0.0,0.0,0.0,0.0,0.0,0.0,0.0,0.0,0.0,0.0,0.0,0.0,0.0,0.0,0.0,0.0,0.0,0.0,0.0,0.0,0.0,0.0,0.0,0.0,0.0,0.0,0.0,0.0,-1.0307,0.0,0.0,0.0,0.0,0.0,0.0,0.0,0.0,0.0,0.0,0.0,0.0,0.0,0.0,0.0,0.0,0.0,0.0,0.0,0.0,0.0,0.0,0.0,0.0,0.0,0.0,0.0,0.0,0.0,0.0,0.0,0.0,0.0,0.0,0.0,0.0,0.0,0.0,0.0,0.0,0.0,0.0,0.0,0.0,0.0,0.0,0.0,0.0,0.0,0.0,0.0,0.0,0.0,0.0,0.0,0.0,0.0,0.0,0.0,0.0,0.0,0.0,0.0,0.0,0.0,0.0,0.0,0.0,0.0,0.0,0.0,0.0,0.0,0.0,0.0,0.0,0.0,0.0,0.0,0.0,0.0,0.0,0.0,0.0,0.0,0.0,0.0,0.0,0.0,0.0,0.0,0.0,0.0,0.0,0.0,0.0,0.0,0.0,0.0,0.0,0.0,0.0,0.0,0.0,0.0,0.0,0.0,0.0,0.0,0.0,-1.0311,-1.0324,-1.0307,-1.0308,-1.0324,0.0,0.0,0.0,0.0,0.0,0.0,0.0,0.0,0.0,0.0,0.0,0.0,0.0,0.0,0.0,0.0,0.0,0.0,0.0,0.0,0.0,0.0,0.0,0.0,0.0,0.0,0.0,0.0,0.0,0.0,0.0,0.0,0.0,0.0,0.0,0.0,0.0,0.0,0.0,0.0,0.0,0.0,0.0,0.0,0.0,0.0,0.0,0.0,0.0,0.0,0.0,0.0,0.0,0.0,0.0,0.0,0.0,0.0,0.0,0.0,0.0,0.0,0.0,0.0,0.0,0.0,0.0,0.0,0.0,0.0,0.0,0.0,0.0,0.0,0.0,0.0,0.0,0.0,0.0,0.0,0.0,0.0,0.0,0.0,0.0,0.0,0.0,0.0,0.0,0.0,0.0,0.0,0.0,0.0,0.0,0.0,0.0,0.0,0.0,0.0,0.0,0.0,0.0,0.0,0.0,0.0,0.0,0.0,0.0,0.0,0.0,0.0,-1.0889,-1.087,-1.0863,0.0,0.0,0.0,0.0,0.0,0.0,0.0,0.0,0.0,0.0,0.0,0.0,0.0,0.0,0.0,0.0,0.0,0.0,0.0,0.0,0.0,0.0,0.0,0.0,0.0,0.0,0.0,0.0,0.0,0.0,0.0,0.0,0.0,0.0,0.0,0.0,0.0,0.0,0.0,0.0,0.0,0.0,0.0,0.0,0.0,0.0,0.0,0.0,0.0,0.0,0.0,0.0,0.0,0.0,0.0,0.0,0.0,0.0,0.0,0.0,0.0,0.0,0.0,0.0,0.0,0.0,0.0,0.0,0.0,0.0,0.0,0.0,0.0,0.0,0.0,0.0,0.0,0.0,0.0,0.0,0.0,0.0,0.0,0.0,0.0,0.0,0.0,0.0,0.0,0.0,0.0,0.0,0.0,0.0,0.0,0.0,0.0,0.0,0.0,0.0,0.0,0.0,0.0,0.0,0.0,0.0,0.0,0.0,0.0,0.0,-1.105,-1.2615,-1.2596,0.0,-1.2581,0.0,0.0,0.0,0.0,0.0,0.0,0.0,0.0,0.0,0.0,0.0,0.0,0.0,0.0,0.0,0.0,0.0,0.0,0.0,0.0,0.0,0.0,0.0,0.0,0.0,0.0,0.0,0.0,0.0,0.0,0.0,0.0,0.0,0.0,0.0,0.0,0.0,0.0,0.0,0.0,0.0,0.0,0.0,0.0,0.0,0.0,0.0,0.0,0.0,0.0,0.0,0.0,0.0,0.0,0.0,0.0,0.0,0.0,0.0,0.0,0.0,0.0,0.0,0.0,0.0,0.0,0.0,0.0,0.0,0.0,0.0,0.0,0.0,0.0,0.0,0.0,0.0,0.0,0.0,0.0,0.0,0.0,0.0,0.0,0.0,0.0,0.0,0.0,0.0,0.0,0.0,0.0,0.0,0.0,0.0,0.0,0.0,0.0,0.0,0.0,0.0,0.0,0.0,0.0,0.0,0.0,0.0,0.0,0.0,0.0,0.0,-1.2832,-1.2852,-1.287,0.0,0.0,0.0,0.0,0.0,0.0,0.0,0.0,0.0,0.0,0.0,0.0,0.0,0.0,0.0,0.0,0.0,0.0,0.0,0.0,0.0,0.0,0.0,0.0,0.0,0.0,0.0,0.0,0.0,0.0,0.0,0.0,0.0,0.0,0.0,0.0,0.0,0.0,0.0,0.0,0.0,0.0,0.0,0.0,0.0,0.0,0.0,0.0,0.0,0.0,0.0,0.0,0.0,0.0,0.0,0.0,0.0,0.0,0.0,0.0,0.0,0.0,0.0,0.0,0.0,0.0,0.0,0.0,0.0,0.0,0.0,0.0,0.0,0.0,0.0,0.0,0.0,0.0,0.0,0.0,0.0,0.0,0.0,0.0,0.0,0.0,0.0,0.0,0.0,0.0,0.0,0.0,0.0,0.0,0.0,0.0,0.0,0.0,0.0,0.0,0.0,0.0,0.0,0.0,0.0,0.0,0.0,0.0,0.0,0.0,-1.2417,0.0,-1.3472,-1.3334,-1.3115,-1.2892,0.0,0.0,0.0,0.0,0.0,0.0,0.0,0.0,0.0,0.0,0.0,0.0,0.0,0.0,0.0,0.0,0.0,0.0,0.0,0.0,0.0,0.0,0.0,0.0,0.0,0.0,0.0,0.0,0.0,0.0,0.0,0.0,0.0,0.0,0.0,0.0,0.0,0.0,0.0,0.0,0.0,0.0,0.0,0.0,0.0,0.0,0.0,0.0,0.0,0.0,0.0,0.0,0.0,0.0,0.0,0.0,0.0,0.0,0.0,0.0,0.0,0.0,0.0,0.0,0.0,0.0,0.0,0.0,0.0,0.0,0.0,0.0,0.0,0.0,0.0,0.0,0.0,0.0,0.0,0.0,0.0,0.0,0.0,0.0,0.0,0.0,0.0,0.0,0.0,0.0,0.0,0.0,0.0,0.0,0.0,0.0,0.0,0.0,0.0,0.0,0.0,0.0,0.0,0.0,0.0,0.0,0.0,0.0,0.0,-1.3647,-1.3653,-1.5175,-1.4489,-1.3653,0.0,0.0,0.0,0.0,0.0,0.0,0.0,0.0,0.0,0.0,0.0,0.0,0.0,0.0,0.0,0.0,0.0,0.0,0.0,0.0,0.0,0.0,0.0,0.0,0.0,0.0,0.0,0.0,0.0,0.0,0.0,0.0,0.0,0.0,0.0,0.0,0.0,0.0,0.0,0.0,0.0,0.0,0.0,0.0,0.0,0.0,0.0,0.0,0.0,0.0,0.0,0.0,0.0,0.0,0.0,0.0,0.0,0.0,0.0,0.0,0.0,0.0,0.0,0.0,0.0,0.0,0.0,0.0,0.0,0.0,0.0,0.0,0.0,0.0,0.0,0.0,0.0,0.0,0.0,0.0,0.0,0.0,0.0,0.0,0.0,0.0,0.0,0.0,0.0,0.0,0.0,0.0,0.0,0.0,0.0,0.0,0.0,0.0,0.0,0.0,0.0,0.0,0.0,0.0,0.0,0.0,0.0,0.0,0.0,-1.2025,-1.2575,-1.3901,-1.599,-1.4347,-1.3426,0.0,0.0,0.0,0.0,0.0,0.0,0.0,0.0,0.0,0.0,0.0,0.0,0.0,0.0,0.0,0.0,0.0,0.0,0.0,0.0,0.0,0.0,0.0,0.0,0.0,0.0,0.0,0.0,0.0,0.0,0.0,0.0,0.0,0.0,0.0,0.0,0.0,0.0,0.0,0.0,0.0,0.0,0.0,0.0,0.0,0.0,0.0,0.0,0.0,0.0,0.0,0.0,0.0,0.0,0.0,0.0,0.0,0.0,0.0,0.0,0.0,0.0,0.0,0.0,0.0,0.0,0.0,0.0,0.0,0.0,0.0,0.0,0.0,0.0,0.0,0.0,0.0,0.0,0.0,0.0,0.0,0.0,0.0,0.0,0.0,0.0,0.0,0.0,0.0,0.0,0.0,0.0,0.0,0.0,0.0,0.0,0.0,0.0,0.0,0.0,0.0,0.0,0.0,0.0,0.0,0.0,0.0,0.0,0.0,-1.1867,0.0,-1.474,0.0,-1.4043,-1.2855,0.0,0.0,0.0,0.0,0.0,0.0,0.0,0.0,0.0,0.0,0.0,0.0,0.0,0.0,0.0,0.0,0.0,0.0,0.0,0.0,0.0,0.0,0.0,0.0,0.0,0.0,0.0,0.0,0.0,0.0,0.0,0.0,0.0,0.0,0.0,0.0,0.0,0.0,0.0,0.0,0.0,0.0,0.0,0.0,0.0,0.0,0.0,0.0,0.0,0.0,0.0,0.0,0.0,0.0,0.0,0.0,0.0,0.0,0.0,0.0,0.0,0.0,0.0,0.0,0.0,0.0,0.0,0.0,0.0,0.0,0.0,0.0,0.0,0.0,0.0,0.0,0.0,0.0,0.0,0.0,0.0,0.0,0.0,0.0,0.0,0.0,0.0,0.0,0.0,0.0,0.0,0.0,0.0,0.0,0.0,0.0,0.0,0.0,0.0,0.0,0.0,0.0,0.0,0.0,0.0,0.0,0.0,0.0,-1.1916,-1.5131,-1.6074,-1.6112,-1.5405,-1.368,-1.2003,0.0,0.0,0.0,0.0,0.0,0.0,0.0,0.0,0.0,0.0,0.0,0.0,0.0,0.0,0.0,0.0,0.0,0.0,0.0,0.0,0.0,0.0,0.0,0.0,0.0,0.0,0.0,0.0,0.0,0.0,0.0,0.0,0.0,0.0,0.0,0.0,0.0,0.0,0.0,0.0,0.0,0.0,0.0,0.0,0.0,0.0,0.0,0.0,0.0,0.0,0.0,0.0,0.0,0.0,0.0,0.0,0.0,0.0,0.0,0.0,0.0,0.0,0.0,0.0,0.0,0.0,0.0,0.0,0.0,0.0,0.0,0.0,0.0,0.0,0.0,0.0,0.0,0.0,0.0,0.0,0.0,0.0,0.0,0.0,0.0,0.0,0.0,0.0,0.0,0.0,0.0,0.0,0.0,0.0,0.0,0.0,0.0,0.0,0.0,0.0,0.0,0.0,0.0,0.0,0.0,0.0,0.0,0.0,0.0,-1.2808,-1.4179,-1.5058,-1.5305,-1.3134,-1.2212,0.0,0.0,0.0,0.0,0.0,0.0,0.0,0.0,0.0,0.0,0.0,0.0,0.0,0.0,0.0,0.0,0.0,0.0,0.0,0.0,0.0,0.0,0.0,0.0,0.0,0.0,0.0,0.0,0.0,0.0,0.0,0.0,0.0,0.0,0.0,0.0,0.0,0.0,0.0,0.0,0.0,0.0,0.0,0.0,0.0,0.0,0.0,0.0,0.0,0.0,0.0,0.0,0.0,0.0,0.0,0.0,0.0,0.0,0.0,0.0,0.0,0.0,0.0,0.0,0.0,0.0,0.0,0.0,0.0,0.0,0.0,0.0,0.0,0.0,0.0,0.0,0.0,0.0,0.0,0.0,0.0,0.0,0.0,0.0,0.0,0.0,0.0,0.0,0.0,0.0,0.0,0.0,0.0,0.0,0.0,0.0,0.0,0.0,0.0,0.0,0.0,0.0,0.0,0.0,0.0,0.0,0.0,0.0,0.0,-1.3629,-1.5154,-1.6131,-1.6364,-1.3827,-1.2664,-1.3075,0.0,0.0,0.0,0.0,0.0,0.0,0.0,0.0,0.0,0.0,0.0,0.0,0.0,0.0,0.0,0.0,0.0,0.0,0.0,0.0,0.0,0.0,0.0,0.0,0.0,0.0,0.0,0.0,0.0,0.0,0.0,0.0,0.0,0.0,0.0,0.0,0.0,0.0,0.0,0.0,0.0,0.0,0.0,0.0,0.0,0.0,0.0,0.0,0.0,0.0,0.0,0.0,0.0,0.0,0.0,0.0,0.0,0.0,0.0,0.0,0.0,0.0,0.0,0.0,0.0,0.0,0.0,0.0,0.0,0.0,0.0,0.0,0.0,0.0,0.0,0.0,0.0,0.0,0.0,0.0,0.0,0.0,0.0,0.0,0.0,0.0,0.0,0.0,0.0,0.0,0.0,0.0,0.0,0.0,0.0,0.0,0.0,0.0,0.0,0.0,0.0,0.0,0.0,0.0,0.0,0.0,0.0,0.0,-1.6909,-1.8607,-1.9059,-1.8144,-1.5613,-1.3454,0.0,0.0,0.0,0.0,0.0,0.0,0.0,0.0,0.0,0.0,0.0,0.0,0.0,0.0,0.0,0.0,0.0,0.0,0.0,0.0,0.0,0.0,0.0,0.0,0.0,0.0,0.0,0.0,0.0,0.0,0.0,0.0,0.0,0.0,0.0,0.0,0.0,0.0,0.0,0.0,0.0,0.0,0.0,0.0,0.0,0.0,0.0,0.0,0.0,0.0,0.0,0.0,0.0,0.0,0.0,0.0,0.0,0.0,0.0,0.0,0.0,0.0,0.0,0.0,0.0,0.0,0.0,0.0,0.0,0.0,0.0,0.0,0.0,0.0,0.0,0.0,0.0,0.0,0.0,0.0,0.0,0.0,0.0,0.0,0.0,0.0,0.0,0.0,0.0,0.0,0.0,0.0,0.0,0.0,0.0,0.0,0.0,0.0,0.0,0.0,0.0,0.0,0.0,0.0,0.0,0.0,0.0,0.0,0.0,-1.9544,-2.1219,-2.1398,-1.994,-1.7386,-1.5496,0.0,0.0,0.0,0.0,0.0,0.0,0.0,0.0,0.0,0.0,0.0,0.0,0.0,0.0,0.0,0.0,0.0,0.0,0.0,0.0,0.0,0.0,0.0,0.0,0.0,0.0,0.0,0.0,0.0,0.0,0.0,0.0,0.0,0.0,0.0,0.0,0.0,0.0,0.0,0.0,0.0,0.0,0.0,0.0,0.0,0.0,0.0,0.0,0.0,0.0,0.0,0.0,0.0,0.0,0.0,0.0,0.0,0.0,0.0,0.0,0.0,0.0,0.0,0.0,0.0,0.0,0.0,0.0,0.0,0.0,0.0,0.0,0.0,0.0,0.0,0.0,0.0,0.0,0.0,0.0,0.0,0.0,0.0,0.0,0.0,0.0,0.0,0.0,0.0,0.0,0.0,0.0,0.0,0.0,0.0,0.0,0.0,0.0,0.0,0.0,0.0,0.0,0.0,0.0,0.0,0.0,0.0,0.0,-1.8812,-2.1127,-2.3152,-2.3562,-2.2219,-1.9665,-1.7377,0.0,0.0,0.0,0.0,0.0,0.0,0.0,0.0,0.0,0.0,0.0,0.0,0.0,0.0,0.0,0.0,0.0,0.0,0.0,0.0,0.0,0.0,0.0,0.0,0.0,0.0,0.0,0.0,0.0,0.0,0.0,0.0,0.0,0.0,0.0,0.0,0.0,0.0,0.0,0.0,0.0,0.0,0.0,0.0,0.0,0.0,0.0,0.0,0.0,0.0,0.0,0.0,0.0,0.0,0.0,0.0,0.0,0.0,0.0,0.0,0.0,0.0,0.0,0.0,0.0,0.0,0.0,0.0,0.0,0.0,0.0,0.0,0.0,0.0,0.0,0.0,0.0,0.0,0.0,0.0,0.0,0.0,0.0,0.0,0.0,0.0,0.0,0.0,0.0,0.0,0.0,0.0,0.0,0.0,0.0,0.0,0.0,0.0,0.0,0.0,0.0,0.0,0.0,0.0,0.0,0.0,0.0,0.0,-2.0217,-2.2005,-2.442,-2.5317,-2.4514,-2.2006,-1.9088,0.0,0.0,0.0,0.0,0.0,0.0,0.0,0.0,0.0,0.0,0.0,0.0,0.0,0.0,0.0,0.0,0.0,0.0,0.0,0.0,0.0,0.0,0.0,0.0,0.0,0.0,0.0,0.0,0.0,0.0,0.0,0.0,0.0,0.0,0.0,0.0,0.0,0.0,0.0,0.0,0.0,0.0,0.0,0.0,0.0,0.0,0.0,0.0,0.0,0.0,0.0,0.0,0.0,0.0,0.0,0.0,0.0,0.0,0.0,0.0,0.0,0.0,0.0,0.0,0.0,0.0,0.0,0.0,0.0,0.0,0.0,0.0,0.0,0.0,0.0,0.0,0.0,0.0,0.0,0.0,0.0,0.0,0.0,0.0,0.0,0.0,0.0,0.0,0.0,0.0,0.0,0.0,0.0,0.0,0.0,0.0,0.0,0.0,0.0,0.0,0.0,0.0,0.0,0.0,0.0,0.0,0.0,0.0,-2.1087,-2.2816,-2.4731,-2.5609,-2.5414,-2.2949,-2.0293,0.0,0.0,0.0,0.0,0.0,0.0,0.0,0.0,0.0,0.0,0.0,0.0,0.0,0.0,0.0,0.0,0.0,0.0,0.0,0.0,0.0,0.0,0.0,0.0,0.0,0.0,0.0,0.0,0.0,0.0,0.0,0.0,0.0,0.0,0.0,0.0,0.0,0.0,0.0,0.0,0.0,0.0,0.0,0.0,0.0,0.0,0.0,0.0,-1.099,0.0,0.0,0.0,0.0,0.0,0.0,0.0,0.0,0.0,0.0,0.0,0.0,0.0,0.0,0.0,0.0,0.0,0.0,0.0,0.0,0.0,0.0,0.0,0.0,0.0,0.0,0.0,0.0,0.0,0.0,0.0,0.0,0.0,0.0,0.0,0.0,0.0,0.0,0.0,0.0,0.0,0.0,0.0,0.0,0.0,0.0,0.0,0.0,0.0,0.0,0.0,0.0,0.0,0.0,0.0,0.0,0.0,0.0,0.0,-2.1993,-2.3675,-2.5004,-2.5687,-2.5629,-2.3987,-2.1661,0.0,0.0,0.0,0.0,0.0,0.0,0.0,0.0,0.0,0.0,0.0,0.0,0.0,0.0,0.0,0.0,0.0,0.0,0.0,0.0,0.0,0.0,0.0,0.0,0.0,0.0,0.0,0.0,0.0,0.0,0.0,0.0,0.0,0.0,0.0,0.0,0.0,0.0,0.0,0.0,0.0,0.0,0.0,0.0,0.0,0.0,0.0,0.0,0.0,0.0,0.0,0.0,0.0,0.0,0.0,0.0,0.0,0.0,0.0,0.0,0.0,0.0,0.0,0.0,0.0,0.0,0.0,0.0,0.0,0.0,0.0,0.0,0.0,0.0,0.0,0.0,0.0,0.0,0.0,0.0,0.0,0.0,0.0,0.0,0.0,0.0,0.0,0.0,0.0,0.0,0.0,0.0,0.0,0.0,0.0,0.0,0.0,0.0,0.0,0.0,0.0,0.0,0.0,0.0,0.0,0.0,0.0,-2.0205,-2.2628,-2.4538,-2.5317,-2.5687,-2.5687,-2.5004,-2.2968,-1.9539,0.0,0.0,0.0,0.0,0.0,0.0,0.0,0.0,0.0,0.0,0.0,0.0,0.0,0.0,0.0,0.0,0.0,0.0,0.0,0.0,0.0,0.0,0.0,0.0,0.0,0.0,0.0,0.0,0.0,0.0,0.0,0.0,0.0,0.0,0.0,0.0,0.0,0.0,-1.0632,-1.2112,0.0,0.0,0.0,0.0,0.0,0.0,0.0,0.0,-1.3313,0.0,0.0,0.0,0.0,0.0,0.0,0.0,0.0,0.0,0.0,0.0,0.0,0.0,0.0,0.0,0.0,0.0,0.0,0.0,0.0,0.0,0.0,0.0,0.0,0.0,0.0,0.0,0.0,0.0,0.0,0.0,0.0,0.0,0.0,0.0,0.0,0.0,0.0,0.0,0.0,0.0,0.0,0.0,0.0,0.0,0.0,0.0,0.0,0.0,0.0,0.0,0.0,0.0,0.0,0.0,0.0,-1.9897,-2.0539,-2.2315,-2.5386,-2.5633,-2.5687,-2.5687,-2.5551,-2.3851,-2.0449,0.0,0.0,0.0,0.0,0.0,0.0,0.0,0.0,0.0,0.0,0.0,0.0,0.0,0.0,0.0,0.0,0.0,0.0,0.0,0.0,0.0,0.0,0.0,0.0,0.0,0.0,0.0,0.0,0.0,0.0,0.0,0.0,0.0,0.0,0.0,0.0,0.0,0.0,0.0,-1.4667,-1.6082,0.0,0.0,0.0,0.0,0.0,0.0,0.0,0.0,-1.3806,0.0,0.0,0.0,0.0,0.0,0.0,0.0,0.0,0.0,0.0,0.0,0.0,0.0,0.0,0.0,0.0,0.0,0.0,0.0,0.0,0.0,0.0,0.0,0.0,0.0,0.0,0.0,0.0,0.0,0.0,0.0,0.0,0.0,0.0,0.0,0.0,0.0,0.0,0.0,0.0,0.0,0.0,0.0,0.0,0.0,0.0,0.0,0.0,0.0,0.0,0.0,0.0,0.0,0.0,0.0,-1.9135,-2.1032,-2.316,-2.5597,-2.5689,-2.5687,-2.5668,-2.4809,-2.315,0.0,0.0,0.0,0.0,0.0,0.0,0.0,0.0,0.0,0.0,0.0,0.0,0.0,0.0,0.0,0.0,0.0,0.0,0.0,0.0,0.0,0.0,0.0,0.0,0.0,0.0,0.0,0.0,0.0,0.0,0.0,0.0,0.0,0.0,0.0,0.0,0.0,0.0,0.0,0.0,-1.5235,-1.6218,-1.7439,0.0,0.0,0.0,0.0,0.0,0.0,-1.5615,-1.4775,0.0,0.0,0.0,0.0,0.0,0.0,0.0,0.0,0.0,0.0,0.0,0.0,0.0,0.0,0.0,0.0,0.0,0.0,0.0,0.0,0.0,0.0,0.0,0.0,0.0,0.0,0.0,0.0,0.0,0.0,0.0,0.0,0.0,0.0,0.0,0.0,0.0,0.0,0.0,0.0,0.0,0.0,0.0,0.0,0.0,0.0,0.0,0.0,0.0,0.0,0.0,0.0,0.0,0.0,0.0,-1.8022,-2.1093,-2.367,-2.5577,-2.5691,-2.5689,-2.5668,-2.4184,-2.2408,0.0,0.0,0.0,0.0,0.0,0.0,0.0,0.0,0.0,0.0,0.0,0.0,0.0,0.0,0.0,0.0,0.0,0.0,0.0,0.0,0.0,0.0,0.0,0.0,0.0,0.0,0.0,0.0,0.0,0.0,0.0,0.0,0.0,0.0,0.0,0.0,0.0,0.0,0.0,0.0,0.0,-1.6922,-1.8185,-1.7673,0.0,0.0,0.0,0.0,-1.9181,-1.7699,0.0,0.0,0.0,0.0,0.0,0.0,0.0,0.0,0.0,0.0,0.0,0.0,0.0,0.0,0.0,0.0,0.0,0.0,0.0,0.0,0.0,0.0,0.0,0.0,0.0,0.0,0.0,0.0,0.0,0.0,0.0,0.0,0.0,0.0,0.0,0.0,0.0,0.0,0.0,0.0,0.0,0.0,0.0,0.0,0.0,0.0,0.0,0.0,0.0,0.0,0.0,0.0,0.0,0.0,0.0,0.0,-1.7928,-1.9902,-2.246,-2.5508,-2.5701,-2.5696,-2.5687,-2.475,-2.2742,0.0,0.0,0.0,0.0,0.0,0.0,0.0,0.0,0.0,0.0,0.0,0.0,0.0,0.0,0.0,0.0,0.0,0.0,0.0,0.0,0.0,0.0,0.0,0.0,0.0,0.0,0.0,0.0,0.0,0.0,0.0,0.0,0.0,0.0,0.0,0.0,0.0,0.0,0.0,0.0,0.0,-2.0728,-2.0948,-2.0241,-1.9983,0.0,0.0,-2.0002,-2.0967,-2.0872,0.0,0.0,0.0,0.0,0.0,0.0,0.0,0.0,0.0,0.0,0.0,0.0,0.0,0.0,0.0,0.0,0.0,0.0,0.0,0.0,0.0,0.0,0.0,0.0,0.0,0.0,0.0,0.0,0.0,0.0,0.0,0.0,0.0,0.0,0.0,0.0,0.0,0.0,0.0,0.0,0.0,0.0,0.0,0.0,0.0,0.0,0.0,0.0,0.0,0.0,0.0,0.0,0.0,0.0,0.0,-1.6266,-1.8729,-2.1406,-2.3711,-2.5605,-2.5703,-2.5702,-2.57,-2.394,-2.1828,0.0,0.0,0.0,0.0,0.0,0.0,0.0,0.0,0.0,0.0,0.0,0.0,0.0,0.0,0.0,0.0,0.0,0.0,0.0,0.0,0.0,0.0,0.0,0.0,0.0,0.0,0.0,0.0,0.0,0.0,0.0,0.0,0.0,0.0,0.0,0.0,0.0,0.0,0.0,0.0,0.0,0.0,-2.1991,-2.1398,0.0,0.0,0.0,-2.111,-2.1961,0.0,0.0,0.0,0.0,0.0,0.0,0.0,0.0,0.0,0.0,0.0,0.0,0.0,0.0,0.0,0.0,0.0,0.0,0.0,0.0,0.0,0.0,0.0,0.0,0.0,0.0,0.0,0.0,0.0,0.0,0.0,0.0,0.0,0.0,0.0,0.0,0.0,0.0,0.0,0.0,0.0,0.0,0.0,0.0,0.0,0.0,0.0,0.0,0.0,0.0,0.0,0.0,0.0,0.0,0.0,0.0,0.0,-1.9315,-2.2656,-2.4824,-2.5644,-2.5703,-2.5703,-2.5644,-2.3417,0.0,0.0,0.0,0.0,0.0,0.0,0.0,0.0,0.0,0.0,0.0,0.0,0.0,0.0,0.0,0.0,0.0,0.0,0.0,0.0,0.0,0.0,0.0,0.0,0.0,0.0,0.0,-0.8911,0.0,0.0,0.0,0.0,0.0,0.0,0.0,0.0,0.0,0.0,0.0,0.0,0.0,0.0,-2.133,-2.2831,-2.2479,-2.2384,0.0,0.0,-2.2325,-2.3127,-2.2199,-2.1149,0.0,0.0,0.0,0.0,0.0,0.0,0.0,0.0,0.0,0.0,0.0,0.0,0.0,0.0,0.0,0.0,0.0,0.0,0.0,0.0,0.0,0.0,0.0,0.0,0.0,0.0,0.0,0.0,0.0,0.0,0.0,0.0,0.0,0.0,0.0,0.0,0.0,0.0,0.0,0.0,0.0,0.0,0.0,0.0,0.0,0.0,0.0,0.0,0.0,0.0,0.0,0.0,0.0,0.0,0.0,-1.9352,-2.2656,-2.4824,-2.5664,-2.5703,-2.5703,-2.5664,-2.3945,-2.1855,0.0,0.0,0.0,0.0,0.0,0.0,0.0,0.0,0.0,0.0,0.0,0.0,0.0,0.0,0.0,0.0,0.0,0.0,0.0,0.0,0.0,0.0,0.0,0.0,0.0,0.0,0.0,0.0,0.0,0.0,0.0,0.0,0.0,0.0,0.0,0.0,0.0,0.0,0.0,0.0,0.0,-2.2964,-2.3874,-2.3951,-2.4195,0.0,0.0,-2.4101,-2.4897,-2.4924,-2.4064,-2.1693,0.0,0.0,0.0,0.0,0.0,0.0,0.0,0.0,0.0,0.0,0.0,0.0,0.0,0.0,0.0,0.0,0.0,0.0,0.0,0.0,0.0,0.0,0.0,0.0,0.0,0.0,0.0,0.0,0.0,0.0,0.0,0.0,0.0,0.0,0.0,0.0,0.0,0.0,0.0,0.0,0.0,0.0,0.0,0.0,0.0,0.0,0.0,0.0,0.0,0.0,0.0,0.0,0.0,-1.8374,-2.0112,-2.3456,-2.5371,-2.5684,-2.5703,-2.5703,-2.5703,-2.4527,-2.2452,0.0,0.0,0.0,0.0,0.0,0.0,0.0,0.0,0.0,0.0,0.0,0.0,0.0,0.0,0.0,0.0,0.0,0.0,0.0,0.0,0.0,0.0,0.0,0.0,0.0,0.0,0.0,0.0,-0.9725,-0.9839,-1.0166,0.0,0.0,0.0,0.0,0.0,0.0,0.0,0.0,0.0,0.0,-2.3932,-2.4833,-2.4926,0.0,0.0,-2.5106,-2.4956,-2.5274,-2.484,-2.4138,-2.317,-2.224,0.0,0.0,0.0,0.0,0.0,0.0,0.0,0.0,0.0,0.0,0.0,0.0,0.0,0.0,0.0,0.0,0.0,0.0,0.0,0.0,0.0,0.0,0.0,0.0,0.0,0.0,0.0,0.0,0.0,0.0,0.0,0.0,0.0,0.0,0.0,0.0,0.0,0.0,0.0,0.0,0.0,0.0,0.0,0.0,0.0,0.0,0.0,0.0,0.0,0.0,0.0,0.0,-1.8844,-2.0602,-2.3965,-2.5703,-2.5703,-2.5703,-2.5701,-2.5681,-2.4852,-2.3038,0.0,0.0,0.0,0.0,0.0,0.0,0.0,0.0,0.0,0.0,0.0,0.0,0.0,0.0,0.0,0.0,0.0,0.0,0.0,0.0,0.0,0.0,0.0,0.0,0.0,0.0,0.0,0.0,-1.0258,-1.0229,-1.0234,0.0,0.0,0.0,0.0,0.0,0.0,0.0,0.0,0.0,0.0,-2.4469,-2.5381,-2.5467,-2.5546,-2.5822,-2.5584,-2.5456,-2.5678,-2.5178,-2.4582,-2.4101,0.0,0.0,0.0,0.0,0.0,0.0,0.0,0.0,0.0,0.0,0.0,0.0,0.0,0.0,0.0,0.0,0.0,0.0,0.0,0.0,0.0,0.0,0.0,0.0,0.0,0.0,0.0,-1.1582,0.0,0.0,-1.0371,0.0,0.0,0.0,0.0,0.0,0.0,0.0,0.0,0.0,0.0,0.0,0.0,0.0,0.0,0.0,0.0,0.0,0.0,0.0,0.0,0.0,0.0,-1.8865,-2.0625,-2.3984,-2.5703,-2.5703,-2.5703,-2.5696,-2.5677,-2.4846,-2.3577,-2.1752,0.0,0.0,0.0,0.0,0.0,0.0,0.0,0.0,0.0,0.0,0.0,0.0,0.0,0.0,0.0,0.0,0.0,0.0,0.0,0.0,0.0,0.0,0.0,0.0,0.0,0.0,-1.0344,-1.0303,-1.0319,0.0,0.0,0.0,0.0,0.0,0.0,0.0,0.0,0.0,0.0,-2.3703,-2.4564,-2.5481,-2.5556,-2.5851,-2.6583,-2.5928,-2.5609,-2.6397,-2.6436,-2.5909,0.0,0.0,0.0,0.0,0.0,0.0,0.0,0.0,0.0,0.0,0.0,0.0,0.0,0.0,0.0,0.0,0.0,0.0,0.0,0.0,0.0,0.0,0.0,0.0,0.0,0.0,0.0,-1.5436,-1.418,0.0,0.0,0.0,0.0,0.0,0.0,0.0,0.0,0.0,0.0,0.0,-2.1851,-2.3242,0.0,0.0,0.0,0.0,0.0,0.0,0.0,0.0,0.0,0.0,0.0,0.0,-1.9726,-2.1504,-2.4258,-2.5703,-2.5703,-2.5694,-2.5692,-2.5693,-2.5406,-2.3906,-2.103,0.0,0.0,0.0,0.0,0.0,0.0,0.0,0.0,0.0,0.0,0.0,0.0,0.0,0.0,0.0,0.0,0.0,0.0,0.0,0.0,0.0,0.0,0.0,0.0,0.0,-1.1165,0.0,0.0,0.0,0.0,0.0,0.0,0.0,0.0,0.0,0.0,0.0,-2.3203,-2.3778,-2.5609,-2.6773,-2.6574,-2.6977,-2.7381,0.0,0.0,0.0,0.0,0.0,0.0,0.0,0.0,0.0,0.0,0.0,0.0,0.0,0.0,-2.4394,-2.0953,-2.0063,-1.9876,-1.9864,0.0,0.0,0.0,0.0,0.0,0.0,0.0,0.0,0.0,0.0,0.0,0.0,0.0,0.0,-1.819,0.0,-1.7142,0.0,0.0,0.0,0.0,0.0,0.0,0.0,0.0,-2.3377,-2.4839,-2.4901,-2.6558,-2.6503,0.0,-2.4373,-2.2344,0.0,0.0,0.0,0.0,0.0,0.0,0.0,0.0,-2.0605,-2.2324,-2.4551,-2.57,-2.569,-2.5686,-2.5696,-2.5667,-2.5348,-2.399,-2.143,-1.9966,-1.8026,0.0,0.0,0.0,0.0,0.0,0.0,0.0,0.0,0.0,0.0,0.0,0.0,0.0,0.0,0.0,0.0,0.0,0.0,0.0,0.0,0.0,0.0,0.0,-1.2024,0.0,0.0,0.0,0.0,0.0,0.0,0.0,0.0,0.0,-2.3699,-2.442,-2.5125,-2.6032,-2.7345,-2.8115,-2.7932,0.0,0.0,0.0,0.0,0.0,0.0,0.0,-2.8663,-2.8949,-2.8718,-2.8556,-2.8809,-2.9124,-2.9292,-2.8946,0.0,0.0,-2.3747,-2.2766,-2.2636,-2.2914,-2.4106,-2.495,-2.4737,-2.601,-2.7024,0.0,0.0,0.0,0.0,0.0,0.0,0.0,0.0,-2.0862,-2.0784,0.0,-2.0576,0.0,0.0,0.0,0.0,0.0,-2.1937,0.0,0.0,-2.6992,-2.8227,-2.8197,-2.8343,-2.8309,-2.8197,-2.8252,-2.7344,-2.5391,-2.0723,0.0,0.0,0.0,0.0,0.0,0.0,-2.1523,-2.3184,-2.4883,-2.5732,-2.5735,-2.5732,-2.5661,-2.5589,-2.48,-2.3913,-2.2958,-2.2158,-2.0611,-1.8131,-1.7152,0.0,0.0,0.0,0.0,0.0,0.0,0.0,0.0,0.0,0.0,0.0,0.0,0.0,0.0,0.0,0.0,0.0,0.0,0.0,0.0,-1.2414,0.0,0.0,0.0,0.0,0.0,0.0,0.0,0.0,0.0,0.0,-2.7194,-2.6566,-2.6782,-2.9203,0.0,0.0,0.0,0.0,-2.8904,-3.0555,-3.0024,-3.0037,-3.167,-3.1877,-3.1605,-3.0903,0.0,0.0,-3.0815,-3.1437,-3.1705,-3.0854,-3.0739,-3.0243,-2.8508,-2.738,-2.7071,-2.7757,-2.7435,-2.728,-2.7919,-2.8299,-2.8443,-2.7086,0.0,0.0,0.0,0.0,-2.5584,-2.63,-2.685,-2.6859,-2.6146,-2.4921,-2.43,0.0,0.0,0.0,0.0,0.0,0.0,-2.6472,-2.7933,-2.9883,-3.082,-3.0829,-3.1464,-3.1164,-3.0051,-3.0049,-2.9186,-2.7519,-2.6074,-2.3047,-1.8633,0.0,0.0,0.0,0.0,-2.3827,-2.4872,-2.599,-2.6562,-2.6559,-2.5957,-2.5592,-2.5538,-2.5302,-2.4737,-2.3867,-2.3596,-2.259,-2.0695,-1.918,0.0,0.0,0.0,0.0,0.0,0.0,0.0,0.0,0.0,0.0,0.0,0.0,0.0,0.0,0.0,0.0,0.0,0.0,0.0,-1.412,-1.4521,-1.5161,0.0,0.0,0.0,0.0,0.0,0.0,0.0,0.0,0.0,-2.9589,-2.955,-2.9391,0.0,0.0,-3.1538,-3.0587,-3.1279,-3.2072,-3.256,-3.2397,0.0,-3.2884,-3.2444,-3.2177,-3.2556,-3.2789,-3.2836,-3.2579,-3.2761,-3.2839,-3.2559,-3.2547,-3.2244,-3.1351,-3.03,-2.9722,-2.9892,-3.0203,-3.0533,-3.0804,-3.1343,-3.1797,-3.2145,-2.9437,-2.8124,-2.7873,-2.8423,-2.8888,-2.939,-2.9883,-2.9863,-2.9447,-2.8751,-2.8222,-2.7258,-2.6006,-2.5681,0.0,0.0,0.0,-2.9361,-3.0346,-3.1728,-3.2367,-3.2416,-3.2948,-3.2687,-3.1733,-3.1767,-3.1242,-3.0247,-2.9574,-2.7272,-2.3421,0.0,0.0,-2.2395,-2.4369,-2.5784,-2.6563,-2.7105,-2.7377,-2.7362,-2.6486,-2.5878,-2.553,-2.5511,-2.524,-2.4737,-2.4718,-2.4099,-2.2726,-2.1365,-1.9529,0.0,0.0,0.0,0.0,0.0,0.0,0.0,0.0,0.0,0.0,0.0,-1.3266,0.0,0.0,0.0,0.0,-1.3116,-1.452,-1.6709,-1.7521,0.0,0.0,0.0,0.0,0.0,0.0,0.0,-2.68,-2.8589,-3.0261,-3.1633,-3.2139,-3.2146,-3.162,-3.2615,-3.3135,-3.2452,0.0,-3.3515,-3.3866,-3.3925,-3.4042,-3.4371,-3.3971,-3.3797,-3.4306,-3.4355,-3.4333,-3.4341,-3.4335,-3.4333,-3.4333,-3.4333,-3.4218,-3.3825,-3.32,-3.2577,-3.2162,-3.2283,-3.2497,-3.2516,-3.2943,-3.3293,-3.6574,-3.5626,-3.2512,-3.1139,-3.1004,-3.1004,-3.1023,-3.1004,-3.0946,-3.1313,-3.201,-3.1932,-3.1497,-3.0743,-3.0037,0.0,-3.0936,-3.1737,-3.2095,-3.2145,-3.2928,-3.3305,-3.3326,-3.3383,-3.3323,-3.3218,-3.3327,-3.3336,-3.3089,-3.1649,-3.0497,-2.9693,-2.8163,-2.7239,-2.692,-2.7026,-2.7464,-2.8184,-2.821,-2.8164,-2.8066,-2.7166,-2.6362,-2.5646,-2.555,-2.5511,-2.5511,-2.5511,-2.5124,-2.4331,-2.3461,-2.1546,-1.8393,0.0,0.0,0.0,0.0,0.0,0.0,0.0,0.0,0.0,0.0,0.0,0.0,0.0,0.0,0.0,-1.644,0.0,-1.9351,-2.1,0.0,0.0,0.0,-2.5395,-2.7112,-2.802,-2.9123,-3.0723,0.0,0.0,-3.3497,-3.4421,-3.4989,-3.5007,-3.4178,-3.3867,-3.4589,-3.4075,-3.389,-3.4693,-3.4788,-3.5101,-3.5689,-3.5757,-3.5678,-3.5719,-3.5885,-3.5791,-3.5792,-3.5795,-3.5874,-3.5793,-3.5874,-3.5818,-3.5787,-3.5651,-3.5564,-3.4361,-3.3847,-3.3549,-3.3561,-3.3626,-3.3672,-3.7773,-3.7541,-3.6729,-3.5646,-3.4485,-3.4485,-3.4485,-3.4447,-3.377,-3.3596,-3.3731,-3.3093,-3.2696,-3.2483,-3.2299,-3.2685,-3.3518,-3.3712,-3.4176,-3.4775,-3.4988,-3.5085,-3.5076,-3.5085,-3.4784,-3.4193,-3.4206,-3.3887,-3.3287,-3.2871,-3.258,-3.2356,-3.1913,-3.0085,-2.7084,-2.8161,-2.8899,-2.9093,-2.9098,-2.8751,-2.8025,-2.7166,-2.6605,-2.6412,-2.582,-2.5511,-2.5511,-2.5511,-2.5414,-2.5182,-2.437,-2.3209,-2.1759,-1.8838,0.0,0.0,0.0,0.0,0.0,0.0,0.0,0.0,0.0,-1.7819,-1.4365,0.0,-1.8036,0.0,-1.871,-2.0297,-2.202,-2.3147,0.0,0.0,-2.7184,-2.7971,-2.971,-3.0661,-3.1319,-3.1733,-3.3673,-3.5071,-3.5265,-3.664,-3.76,-3.7571,-3.6309,-3.5213,-3.4802,-3.5135,-3.5429,-3.5664,-3.5722,-3.5761,-3.5996,-3.5976,-3.5976,-3.5912,-3.5893,-3.5893,-3.5899,-3.5882,-3.5884,-3.5896,-3.5893,-3.5893,-3.5896,-3.5899,-3.5821,-3.5525,-3.536,-3.5295,-3.5279,-3.5261,-3.5247,-3.9359,-3.9359,-3.9359,-3.8818,-3.7909,-3.7135,-3.6806,-3.6787,-3.6284,-3.6091,-3.6052,-3.5588,-3.5375,-3.5364,-3.5356,-3.5626,-3.6091,-3.6091,-3.6149,-3.6245,-3.6226,-3.6052,-3.5704,-3.5704,-3.5472,-3.5035,-3.5035,-3.4803,-3.4367,-3.4,-3.3798,-3.3789,-3.3353,-3.199,-2.9786,-3.0211,-3.0318,-2.9931,-2.994,-2.9495,-2.8586,-2.7716,-2.7097,-2.6702,-2.5909,-2.5511,-2.5511,-2.5511,-2.5318,-2.4931,-2.4467,-2.3601,-2.2323,-2.0109,-1.8266,0.0,0.0,0.0,0.0,0.0,0.0,0.0,0.0,0.0,0.0,0.0,-2.0122,-1.9683,-2.1558,-2.3676,-2.5757,-2.7069,-2.8564,-3.0326,-3.0526,-3.1037,-3.2362,-3.3259,-3.394,-3.433,-3.5947,-3.7058,-3.7077,-3.7876,-3.8519,-3.8519,-3.7698,-3.6944,-3.6543,-3.6825,-3.7123,-3.7123,-3.7122,-3.7102,-3.7123,-3.6772,-3.6675,-3.6933,-3.6424,-3.6052,-3.6426,-3.6504,-3.6406,-3.6074,-3.6562,-3.6816,-3.6151,-3.6289,-3.6543,-3.666,-3.6601,-3.6363,-3.5974,-3.5884,-3.588,-4.079,-4.079,-4.079,-4.079,-4.0674,-3.9166,-3.847,-3.8373,-3.8257,-3.8218,-3.8218,-3.8218,-3.8218,-3.8218,-3.8218,-3.8218,-3.8218,-3.8218,-3.7793,-3.7096,-3.7058,-3.6632,-3.5858,-3.5839,-3.5781,-3.5684,-3.5684,-3.5684,-3.5646,-3.493,-3.4543,-3.4524,-3.3808,-3.3372,-3.3218,-3.2512,-3.1661,-3.0772,-3.0656,-3.023,-2.9476,-2.8606,-2.7755,-2.6884,-2.6072,-2.5608,-2.5511,-2.5511,-2.5163,-2.4428,-2.4343,-2.3636,-2.2068,-2.1048,-2.0088,0.0,-1.8268,0.0,0.0,0.0,0.0,0.0,0.0,0.0,0.0,-2.2153,-2.2436,-2.2552,-2.4853,-2.7266,-2.9576,-3.127,-3.2594,-3.3437,-3.3662,-3.4038,-3.4837,-3.5694,-3.6532,-3.7292,-3.8129,-3.8675,-3.8636,-3.8753,-3.885,-3.8948,-3.8909,-3.8814,-3.8779,-3.8567,-3.838,-3.8522,-3.8522,-3.8302,-3.8302,-3.7817,-3.7606,-3.8119,-3.7348,-3.6596,-3.7253,-3.7399,-3.7211,-3.6687,-3.7536,-3.7987,-3.656,-3.6989,-3.7519,-3.7714,-3.76,-3.7221,-3.6576,-3.6394,-3.6255,-4.079,-4.079,-4.079,-4.079,-4.0771,-4.0442,-3.9901,-3.9204,-3.8508,-3.8218,-3.8218,-3.8206,-3.8206,-3.8218,-3.8218,-3.8218,-3.8218,-3.8218,-3.8121,-3.7947,-3.7967,-3.7483,-3.6693,-3.6682,-3.6311,-3.5639,-3.5612,-3.5612,-3.5612,-3.5458,-3.5392,-3.5452,-3.5278,-3.4853,-3.4176,0.0,0.0,0.0,-3.0926,-3.052,-3.0346,-2.9495,-2.8625,-2.7774,-2.6923,0.0,-2.555,-2.5511,-2.5414,-2.5252,-2.5153,0.0,0.0,0.0,0.0,0.0,0.0,0.0,0.0,0.0,0.0,0.0,-2.3619,-2.3611,-2.267,-2.4647,-2.6195,-2.6668,-2.8498,-3.0102,-3.1187,-3.2305,-3.3336,-3.4202,-3.4964,-3.5772,-3.6629,-3.7467,-3.8071,-3.8227,-3.9026,-3.9552,-3.9591,-4.0156,-4.0565,-4.0526,-4.0604,-4.0623,-4.0557,-3.9399,-3.858,-3.8522,-3.8644,-3.8566,-3.8522,-3.839,-3.8376,-3.841,-3.8312,-3.8073,-3.8205,-3.8263,-3.8263,-3.7968,-3.8303,-3.8525,-3.8121,-3.8258,-3.8355,-3.8414,-3.8394,-3.8288,-3.8047,-3.8045,-3.8064,-4.079,0.0,-4.079,-4.079,0.0,-4.079,-4.0539,-4.0106,-3.9669,-3.9495,-3.9495,-3.9475,-3.9475,-3.9495,-3.9495,-3.9475,-3.9495,-3.9431,-3.9199,-3.8793,-3.8788,-3.8324,-3.7486,-3.7506,-3.7313,-3.6876,-3.6462,-3.6242,-3.6223,-3.5836,-3.5673,-3.5704,-3.5704,-3.5472,-3.5046,-3.4631,-3.375,-3.2474,-3.1623,-3.1197,-3.1159,-2.994,-2.9089,-2.8634,-2.7387,0.0,0.0,0.0,0.0,0.0,0.0,0.0,0.0,0.0,0.0,-2.3719,-2.2947,-2.2628,-2.3074,-2.3518,-2.4321,-2.5571,-2.6828,-2.7039,-2.5907,-2.6741,-2.7986,-2.9578,-3.1609,-3.2921,-3.3113,-3.4284,-3.5272,-3.5806,-3.6651,-3.7389,-3.7837,-3.8617,-3.9123,-3.9221,-3.9922,-4.0448,-4.0448,-4.0779,-4.1091,-4.111,-4.111,-4.111,-4.1033,-4.037,-3.9786,-3.9786,-3.9786,-3.9805,-3.9766,-3.9786,-3.9766,-3.9727,-3.9084,-3.8753,-3.909,-3.914,-3.9014,-3.8682,-3.9158,-3.9595,-3.8785,-3.8902,-3.9195,-3.9195,-3.9195,-3.9373,-3.96,-3.9166,-3.8598,-4.1235,-4.1255,-4.1235,-4.1158,-4.1003,-4.1003,-4.0945,-4.079,0.0,0.0,0.0,-4.0778,-4.0778,-4.0759,-4.0759,-4.0778,-4.0759,-4.07,-4.0281,-3.9625,-3.9617,-3.916,-3.835,-3.8389,-3.8356,-3.817,-3.7479,-3.7123,-3.7085,-3.6311,-3.5916,-3.5897,-3.5762,-3.5673,-3.5646,-3.4988,-3.4272,-3.3546,-3.2551,-3.1952,-3.1768,-3.0443,-2.9592,-2.9302,-2.7892,-2.7045,-2.6824,-2.6131,-2.5351,-2.4607,-2.4577,-2.4522,-2.4479,-2.4453,-2.5043,-2.6325,-2.6427,-2.6744,-2.7445,-2.7631,-2.7854,-2.8139,-2.9658,-3.0235,-2.9459,-2.8855,-2.9506,-3.1808,-3.4261,-3.5488,-3.4953,-3.6289,-3.7279,-3.7384,-3.8182,-3.8714,-3.8792,-3.9513,-4.0019,-4.0117,-4.0643,-4.111,-4.1071,-4.1091,-4.111,-4.111,-4.111,-4.111,-4.111,-4.1033,-4.0935,-4.0935,-4.0877,-4.1013,-4.1071,-4.1013,-4.111,-4.0916,-3.9883,-3.9279,-3.9805,-4.0031,-3.975,-3.9238,-4.0203,-4.0333,-3.9426,-3.9621,-4.0011,-4.0015,-4.0034,-4.0249,-4.0776,-4.0034,-3.9159,-4.2957,-4.2937,-4.2937,-4.2512,-4.1835,-4.1835,-4.1429,-4.081,-4.081,-4.0778,-4.07,-4.0712,-4.0693,-4.0635,-4.0621,-4.0621,-4.0621,-4.0621,-4.0544,-4.0428,-4.048,-4.005,-3.9239,-3.9277,-3.8941,-3.8228,-3.8073,-3.8028,-3.7912,-3.7158,-3.6725,-3.6621,-3.5991,-3.5612,-3.5612,-3.5557,-3.5452,-3.5298,-3.3731,-3.2541,-3.1835,-3.1565,-3.0752,-2.9379,-2.8965,-2.8424,-2.7758,-2.7462,-2.7309,-2.7163,-2.7109,-2.7077,-2.7064,-2.6977,-2.7077,-2.7285,-2.731,-2.7392,-2.7525,-2.8134,-2.9166,-3.0587,-3.2217,-3.2538,-3.1056,-3.1398,-3.2229,-3.3492,-3.5979,-3.7295,-3.6517,-3.7381,-3.8112,-3.8194,-3.9013,-3.963,-3.9624,-4.0344,-4.0851,-4.0857,-4.1013,-4.111,-4.111,-4.111,-4.111,-4.111,-4.111,-4.111,-4.111,-4.111,-4.111,-4.111,-4.111,-4.111,-4.111,-4.111,-4.111,-4.111,-4.0877,-4.0584,-4.076,-4.0799,-4.0752,-4.0705,-4.0886,-4.0916,-4.0641,-4.0801,-4.0844,-4.0831,-4.0815,-4.0932,-4.1088,-4.0776,-4.0639,-4.3305,-4.3305,-4.3305,-4.3073,-4.2705,-4.2725,-4.2479,-4.2118,-4.2099,-4.1544,-4.0739,-4.0712,-4.0679,-4.0654,-4.07,-4.0694,-4.0713,-4.0668,-4.0654,-4.0654,-4.0654,-4.0447,-4.0086,-4.0088,-3.9863,-3.9488,-3.9058,-3.8865,-3.8749,-3.7958,-3.7314,-3.6825,-3.6002,-3.5608,-3.562,-3.562,-3.5651,-3.5623,-3.4417,-3.3615,-3.3228,-3.2692,-3.1821,-3.0644,-3.0037,-2.9301,-2.8459,-2.7918,-2.7618,-2.7597,-2.7542,-2.7533,-2.7533,-2.7523,-2.7694,-2.8113,-2.815,-2.8335,-2.8763,-2.9588,-3.0776,-3.2406,-3.3259,-3.3581,-3.3259,-3.3543,-3.4149,-3.5095,-3.6824,-3.7713,-3.7363,-3.8209,-3.8802,-3.8877,-3.9723,-4.0295,-4.0416,-4.0715,-4.103,-4.1085,-4.111,-4.111,-4.111,-4.111,-4.111,-4.111,-4.111,-4.113,-4.1149,-4.113,-4.113,-4.111,-4.111,-4.111,-4.111,-4.111,-4.111,-4.111,-4.111,-4.111,-4.111,-4.111,-4.1117,-4.1109,-4.1114,-4.11,-4.11,-4.1109,-4.1113,-4.1097,-4.1108,-4.1108,-4.1108,-4.1108,-4.1108,-4.3713,-4.3713,-4.3678,-4.3567,-4.3374,-4.3177,-4.305,-4.3018,-4.2977,-4.2268,-4.1174,-4.1181,-4.1142,-4.0977,-4.1036,-4.0939,-4.0765,-4.0706,-4.0693,-4.0673,-4.0626,-4.0598,-4.0588,-4.0593,-4.0593,-4.0545,-3.9957,-3.9662,-3.9585,-3.8799,-3.7835,-3.6852,-3.6189,-3.5777,-3.5589,-3.556,-3.5528,-3.5495,-3.4866,-3.4484,-3.4326,-3.3544,-3.2744,-3.1948,-3.0983,-3.0142,-2.946,-2.8593,-2.8099,-2.8044,-2.8029,-2.8044,-2.8029,-2.8063,-2.84,-2.9152,-2.927,-2.9618,-3.0416,-3.1288,-3.233,-3.3581,-3.3866,-3.4245,-3.4794,-3.4908,-3.5287,-3.6235,-3.7471,-3.8265,-3.8274,-3.9008,-3.9585,-3.9709,-4.0275,-4.0684,-4.0819,-4.0849,-4.0878,-4.0988,-4.1003,-4.1003,-4.1064,-4.122,-4.148,-4.1708,-4.1675,-4.1675,-4.1675,-4.1675,-4.1675,-4.1578,-4.1383,-4.113,-4.111,-4.111,-4.111,-4.111,-4.111,-4.111,-4.111,-4.111,-4.111,-4.1103,-4.1109,-4.1114,-4.1106,-4.11,-4.1109,-4.1113,-4.1101,-4.1108,-4.1108,-4.1108,-4.1108,-4.4995,-4.4994,-4.4777,-4.4331,-4.3628,-4.2883,-4.2578,-4.2559,-4.2428,-4.233,-4.225,-4.2712,-4.2491,-4.1875,-4.1764,-4.134,-4.0698,-4.0598,-4.0622,-4.0603,-4.0603,-4.0588,-4.0588,-4.0593,-4.0588,-4.0588,-4.0491,-4.0414,-4.0376,-3.9609,-3.8439,-3.6966,-3.6723,-3.6299,-3.5631,-3.5407,-3.535,-3.533,-3.5076,-3.4706,-3.4243,-3.3944,-3.3459,-3.2713,-3.179,-3.1253,-3.1104,-3.0231,-2.9696,-2.9696,-2.968,-2.968,-2.968,-2.9661,-3.0054,-3.088,-3.0956,-3.132,-3.21,-3.2993,-3.3486,-3.3714,-3.4377,-3.4794,-3.4927,-3.4908,-3.5249,-3.6425,-3.8575,-3.9525,-3.9061,-3.9865,-4.0422,-4.0391,-4.059,-4.0725,-4.0706,-4.0738,-4.0718,-4.075,-4.0784,-4.0796,-4.1043,-4.1577,-4.2332,-4.298,-4.3026,-4.3045,-4.3091,-4.3091,-4.3111,-4.2974,-4.2176,-4.1305,-4.1247,-4.111,-4.1208,-4.1188,-4.111,-4.111,-4.111,-4.111,-4.111,-4.1117,-4.111,-4.1103,-4.1114,-4.1106,-4.11,-4.1109,-4.1101,-4.1108,-4.1108,-4.1108,-4.1108,-4.514,-4.5017,-4.4935,-4.4722,-4.4357,-4.4015,-4.3878,-4.3874,-4.384,-4.3836,-4.387,-4.4107,-4.3444,-4.2126,-4.1704,-4.1355,-4.1111,-4.0633,-4.0504,-4.0579,-4.0579,-4.0598,-4.0588,-4.0583,-4.0583,-4.0549,-4.0549,-4.053,-4.0395,-3.9726,-3.8975,-3.8306,-3.7767,-3.7257,-3.6803,-3.6227,-3.5895,-3.5755,-3.5116,-3.4661,-3.4524,-3.4503,-3.412,-3.3394,-3.2944,-3.2495,-3.202,-3.1571,-3.1383,-3.1383,-3.1366,-3.1383,-3.1383,-3.1383,-3.1533,-3.1884,-3.1914,-3.2277,-3.3108,-3.3505,-3.3903,-3.4358,-3.4718,-3.5097,-3.559,-3.5211,-3.5628,-3.7524,-3.9142,-3.9908,-3.9717,-4.0109,-4.0392,-4.0394,-4.0447,-4.0508,-4.0579,-4.0574,-4.0621,-4.07,-4.0713,-4.0919,-4.147,-4.2218,-4.2915,-4.3403,-4.3489,-4.3583,-4.3622,-4.3617,-4.3583,-4.3436,-4.2907,-4.2643,-4.2487,-4.2085,-4.189,-4.1734,-4.1403,-4.111,-4.1188,-4.111,-4.111,-4.1149,-4.1227,-4.1227,-4.1117,-4.1114,-4.1106,-4.1178,-4.1136,-4.1108,-4.1108,-4.1108,-4.1108,-4.4872,-4.4738,-4.4675,-4.4651,-4.4669,-4.4651,-4.4644,-4.465,-4.465,-4.465,-4.465,-4.465,-4.3964,-4.2793,-4.2136,-4.1739,-4.1361,-4.0787,-4.0457,-4.0438,-4.038,-4.0386,-4.0372,-4.0372,-4.0356,-4.0319,-4.0283,-4.0302,-4.0262,-3.9763,-3.9325,-3.9037,-3.8482,-3.7991,-3.7544,-3.6862,-3.6388,-3.5985,-3.5227,-3.4764,-3.4607,-3.4675,-3.4529,-3.4036,-3.379,-3.3392,-3.2785,-3.252,-3.2406,-3.2406,-3.2406,-3.2406,-3.2406,-3.2406,-3.2498,-3.274,-3.2976,-3.3337,-3.3999,-3.4036,-3.4282,-3.4832,-3.5078,-3.5495,-3.5969,-3.5817,-3.6538,-3.8338,-3.9437,-3.9954,-4.0058,-4.0138,-4.0196,-4.0196,-4.0234,-4.0327,-4.0427,-4.0463,-4.0473,-4.0559,-4.0564,-4.1026,-4.2039,-4.2988,-4.3692,-4.4067,-4.4098,-4.4062,-4.4151,-4.4247,-4.42,-4.4062,-4.4113,-4.3945,-4.3646,-4.3065,-4.2682,-4.2572,-4.2202,-4.1948,-4.1786,-4.1812,-4.1831,-4.2279,-4.1909,-4.1675,-4.1695,-4.159,-4.1783,-4.1744,-4.1663,-4.1654,-4.2006,-4.1596,-4.1303,-4.4325,-4.4296,-4.4109,-4.4079,-4.403,-4.406,-4.4067,-4.4109,-4.4079,-4.4067,-4.4079,-4.4079,-4.4011,-4.383,-4.3555,-4.2721,-4.139,-4.1138,-4.0682,-4.0096,-3.996,-3.9859,-3.984,-3.9821,-3.9861,-3.9903,-3.9903,-3.9882,-3.9842,-3.9785,-3.9383,-3.8681,-3.8646,-3.8188,-3.7539,-3.72,-3.6614,-3.6028,-3.5669,-3.5101,-3.4394,-3.44,-3.458,-3.46,-3.4074,-3.3714,-3.3581,-3.2842,-3.2463,-3.2444,-3.252,-3.2482,-3.2444,-3.2482,-3.286,-3.3578,-3.432,-3.4756,-3.4832,-3.4851,-3.4927,-3.5078,-3.5742,-3.6178,-3.6443,-3.686,-3.7618,-3.8662,-3.9475,-3.993,-3.9989,-4.0096,-4.0177,-4.0196,-4.0234,-4.0291,-4.031,-4.0405,-4.0348,-4.0405,-4.0632,-4.1374,-4.2777,-4.382,-4.4636,-4.52,-4.5504,-4.546,-4.537,-4.5473,-4.5434,-4.5402,-4.5338,-4.5092,-4.382,-4.349,-4.353,-4.3374,-4.3233,-4.3252,-4.3442,-4.35,-4.3422,-4.3364,-4.315,-4.2903,-4.2591,-4.2682,-4.3095,-4.3051,-4.26,-4.2611,-4.2845,-4.1947,-4.1732,-4.4207,-4.4116,-4.4036,-4.4005,-4.4005,-4.4005,-4.4005,-4.4005,-4.4005,-4.4005,-4.4005,-4.4005,-4.4005,-4.4017,-4.3922,-4.3378,-4.2461,-4.1889,-4.1269,-4.0707,-4.0631,-4.0347,-3.9816,-3.9797,-3.9797,-3.9797,-3.9797,-3.9797,-3.9797,-3.9797,-3.9665,-3.9437,-3.9361,-3.9145,-3.8686,-3.8122,-3.759,-3.7138,-3.6589,-3.585,-3.5132,-3.5099,-3.4992,-3.4558,-3.4465,-3.4434,-3.4472,-3.4169,-3.3998,-3.4017,-3.4017,-3.3998,-3.3998,-3.3998,-3.4112,-3.4453,-3.4756,-3.5135,-3.5627,-3.5722,-3.5969,-3.6462,-3.6765,-3.7201,-3.7675,-3.794,-3.8395,-3.9267,-3.9683,-3.9889,-3.993,-4.0015,-4.0059,-4.008,-4.0177,-4.0272,-4.0368,-4.0712,-4.1074,-4.1227,-4.1915,-4.3005,-4.3465,-4.4422,-4.5127,-4.5481,-4.5571,-4.56,-4.5675,-4.5684,-4.566,-4.5619,-4.5645,-4.5496,-4.4959,-4.4383,-4.4137,-4.397,-4.3826,-4.35,-4.3491,-4.3665,-4.3607,-4.379,-4.3844,-4.3851,-4.3442,-4.337,-4.386,-4.3826,-4.3416,-4.3427,-4.3626,-4.2903,-4.2845,-4.4116,-4.4005,-4.4005,-4.4005,-4.4005,-4.4005,-4.4005,-4.4005,-4.4005,-4.4005,-4.4005,-4.4005,-4.4005,-4.4005,-4.4005,-4.3818,-4.339,-4.2567,-4.1852,-4.1299,-4.1261,-4.0941,-4.0452,-4.04,-4.0226,-3.9986,-3.9684,-3.959,-3.9571,-3.9571,-3.9571,-3.9571,-3.959,-3.9519,-3.9289,-3.8814,-3.8357,-3.7883,-3.7355,-3.6686,-3.6024,-3.5932,-3.572,-3.5287,-3.5168,-3.5034,-3.4888,-3.4889,-3.4908,-3.4908,-3.4908,-3.4908,-3.4908,-3.4908,-3.4908,-3.4908,-3.4908,-3.5287,-3.6043,-3.6176,-3.6537,-3.7315,-3.7656,-3.8092,-3.8641,-3.8755,-3.921,-3.9721,-3.9889,-3.9946,-4.0255,-4.0371,-4.03,-4.0172,-4.0347,-4.0577,-4.0654,-4.1399,-4.1839,-4.2087,-4.3042,-4.3825,-4.4112,-4.4781,-4.5226,-4.5419,-4.5419,-4.5491,-4.5558,-4.5571,-4.5558,-4.5475,-4.549,-4.5488,-4.5223,-4.487,-4.4824,-4.4717,-4.4576,-4.4131,-4.3884,-4.3978,-4.4072,-4.4236,-4.4328,-4.4382,-4.4338,-4.4208,-4.4239,-4.4343,-4.4324,-4.4302,-4.4227,-4.4036,-4.3938,-4.4005,-4.4005,-4.4005,-4.4005,-4.4005,-4.4005,-4.4005,-4.4005,-4.4005,-4.4005,-4.4005,-4.4005,-4.4005,-4.4005,-4.4005,-4.3968,-4.3794,-4.3174,-4.2411,-4.1733,-4.1678,-4.1622,-4.1436,-4.138,-4.0989,-4.03,-3.9547,-3.9129,-3.9165,-3.9146,-3.9165,-3.9156,-3.9165,-3.9173,-3.9129,-3.9044,-3.8682,-3.8135,-3.7931,-3.7503,-3.6798,-3.6731,-3.6708,-3.664,-3.6147,-3.5587,-3.4958,-3.4926,-3.4908,-3.4908,-3.4908,-3.4908,-3.5003,-3.5022,-3.4965,-3.5116,-3.504,-3.54,-3.6196,-3.6404,-3.686,-3.7618,-3.8262,-3.8717,-3.8906,-3.938,-3.9775,-3.9851,-4.0025,-4.0271,-4.0959,-4.1165,-4.0978,-4.0363,-4.0976,-4.1416,-4.1628,-4.2259,-4.2813,-4.2985,-4.3711,-4.4017,-4.4208,-4.4762,-4.526,-4.5319,-4.5319,-4.5339,-4.5361,-4.538,-4.5338,-4.5298,-4.5361,-4.5361,-4.532,-4.53,-4.5435,-4.5507,-4.5403,-4.5143,-4.5017,-4.5026,-4.5015,-4.5138,-4.5161,-4.5191,-4.5171,-4.5071,-4.5168,-4.526,-4.5181,-4.5109,-4.5117,-4.5004,-4.4758,-4.4005,-4.4005,-4.4005,-4.4005,-4.4005,-4.4005,-4.4005,-4.4005,-4.4005,-4.4005,-4.4005,-4.4005,-4.4005,-4.4005,-4.4005,-4.4005,-4.3986,-4.3708,-4.3188,-4.2519,-4.2426,-4.2147,-4.1702,-4.1609,-4.1163,-4.0364,-3.9528,-3.9101,-3.912,-3.912,-3.9101,-3.9101,-3.9101,-3.9101,-3.9101,-3.9082,-3.8915,-3.8767,-3.8729,-3.8339,-3.7596,-3.7522,-3.7288,-3.6819,-3.67,-3.6577,-3.6359,-3.5434,-3.4946,-3.4946,-3.4908,-3.5173,-3.5666,-3.5799,-3.6064,-3.6538,-3.6613,-3.7009,-3.7766,-3.7919,-3.8205,-3.8944,-3.938,-3.9494,-3.9532,-3.9719,-3.9889,-3.9965,-4.0442,-4.0975,-4.1206,-4.1734,-4.1908,-4.177,-4.206,-4.2273,-4.2487,-4.3099,-4.3864,-4.4418,-4.4743,-4.4876,-4.4895,-4.522,-4.5258,-4.5277,-4.5277,-4.5277,-4.5277,-4.5277,-4.5297,-4.5297,-4.5277,-4.5277,-4.5277,-4.5277,-4.5361,-4.5455,-4.5472,-4.5524,-4.5558,-4.5571,-4.565,-4.5736,-4.5777,-4.5808,-4.5805,-4.5792,-4.5784,-4.5849,-4.5667,-4.5806,-4.6119,-4.5961,-4.5554,-4.4005,-4.4005,-4.4005,-4.4005,-4.4005,-4.4005,-4.4005,-4.4005,-4.4005,-4.4005,-4.4005,-4.4005,-4.4005,-4.4005,-4.4005,-4.4005,-4.4005,-4.4005,-4.3726,-4.3299,-4.3262,-4.2946,-4.2445,-4.2147,-4.1832,-4.1219,-4.0438,-3.9863,-3.9584,-3.9565,-3.9435,-3.9157,-3.9101,-3.9101,-3.9101,-3.9101,-3.9101,-3.9101,-3.9082,-3.8841,-3.8451,-3.8339,-3.8098,-3.7687,-3.7561,-3.7549,-3.746,-3.6415,-3.5817,-3.5817,-3.5817,-3.6121,-3.6594,-3.665,-3.6879,-3.7259,-3.7428,-3.7768,-3.8561,-3.8603,-3.9039,-3.9702,-3.9889,-3.987,-3.987,-3.9889,-3.9889,-4.0003,-4.0669,-4.1313,-4.1677,-4.2416,-4.2989,-4.3418,-4.3197,-4.3281,-4.3611,-4.413,-4.4628,-4.5086,-4.5239,-4.5277,-4.5277,-4.5277,-4.5277,-4.5277,-4.5277,-4.5277,-4.5277,-4.5277,-4.5277,-4.5277,-4.5277,-4.5277,-4.5277,-4.5277,-4.5277,-4.5319,-4.532,-4.5381,-4.5438,-4.5419,-4.5473,-4.5603,-4.5679,-4.5731,-4.5744,-4.5751,-4.5769,-4.5878,-4.5949,-4.6049,-4.6118,-4.6245,-4.6003,-4.4005,-4.4005,-4.4005,-4.4005,-4.4005,-4.4005,-4.4005,-4.4005,-4.4005,-4.4005,-4.4005,-4.4005,-4.4005,-4.4005,-4.4005,-4.4005,-4.4005,-4.4005,-4.3986,-4.3912,-4.3912,-4.3801,-4.3652,-4.2983,-4.2593,-4.2463,-4.1794,-4.107,-4.0271,-4.0234,-3.9955,-3.9175,-3.9101,-3.9101,-3.9101,-3.9101,-3.9101,-3.9101,-3.9101,-3.9045,-3.9008,-3.9045,-3.9008,-3.8943,-3.8539,-3.8351,-3.8268,-3.7813,-3.7466,-3.7371,-3.7163,-3.722,-3.7447,-3.7465,-3.7503,-3.7713,-3.758,-3.8073,-3.8622,-3.8909,-3.9155,-3.9816,-3.9889,-3.9889,-3.9889,-3.9889,-3.9889,-3.9946,-4.0821,-4.1616,-4.2318,-4.3208,-4.4004,-4.4692,-4.4296,-4.435,-4.5084,-4.5201,-4.522,-4.5258,-4.5277,-4.5277,-4.5277,-4.5277,-4.5277,-4.5277,-4.5277,-4.5277,-4.5277,-4.5277,-4.5277,-4.5277,-4.5277,-4.5277,-4.5277,-4.5277,-4.5277,-4.5277,-4.5277,-4.5298,-4.5339,-4.532,-4.5341,-4.5473,-4.5555,-4.563,-4.5645,-4.5634,-4.565,-4.5703,-4.5789,-4.593,-4.6049,-4.6144,-4.6236,-4.4005,-4.4005,-4.4005,-4.4005,-4.4005,-4.4005,-4.4005,-4.4005,-4.4005,-4.4005,-4.4005,-4.4005,-4.4005,-4.4005,-4.4005,-4.4005,-4.4005,-4.4005,-4.4005,-4.4005,-4.4005,-4.4005,-4.3838,-4.3188,-4.2816,-4.2723,-4.2129,-4.1163,-4.0438,-4.0457,-3.9974,-3.912,-3.9101,-3.9101,-3.9101,-3.9101,-3.9101,-3.9101,-3.9101,-3.9101,-3.9101,-3.9101,-3.9101,-3.9091,-3.9048,-3.9046,-3.9207,-3.9229,-3.8603,-3.7485,-3.739,-3.7713,-3.8262,-3.8357,-3.8565,-3.902,-3.9172,-3.9267,-3.9475,-3.9551,-3.9702,-3.9832,-3.9889,-3.9889,-3.9889,-3.9889,-3.9889,-4.0135,-4.1162,-4.2166,-4.2602,-4.3701,-4.4611,-4.4919,-4.481,-4.4906,-4.518,-4.5277,-4.5277,-4.5277,-4.5277,-4.5277,-4.5277,-4.5277,-4.5277,-4.5277,-4.5277,-4.5277,-4.5277,-4.5277,-4.5277,-4.5277,-4.5277,-4.5277,-4.5277,-4.5277,-4.5277,-4.5277,-4.5277,-4.5277,-4.5298,-4.5298,-4.5319,-4.5361,-4.54,-4.5454,-4.5419,-4.54,-4.5455,-4.5539,-4.563,-4.5719,-4.5859,-4.5959,-4.6084,-4.4005,-4.4005,-4.4005,-4.4005,-4.4005,-4.4005,-4.4005,-4.4005,-4.4005,-4.4005,-4.4005,-4.4005,-4.4005,-4.4005,-4.4005,-4.4005,-4.4005,-4.4005,-4.4005,-4.4005,-4.4005,-4.4005,-4.3875,-4.3448,-4.3318,-4.3262,-4.2835,-4.1999,-4.1107,-4.0903,-4.0253,-3.9305,-3.9101,-3.9101,-3.9101,-3.9101,-3.9101,-3.9101,-3.9101,-3.9101,-3.9101,-3.9101,-3.9101,-3.911,-3.9219,-3.9376,-3.9575,-3.9739,-3.9334,-3.862,-3.849,-3.8679,-3.9115,-3.921,-3.9437,-3.987,-3.9889,-3.9851,-3.9889,-3.9889,-3.9889,-3.9889,-3.9889,-3.9889,-3.9889,-3.9889,-3.9946,-4.0552,-4.1692,-4.2431,-4.3099,-4.4137,-4.4825,-4.5,-4.5076,-4.5148,-4.5235,-4.5254,-4.5256,-4.5277,-4.5277,-4.5277,-4.5277,-4.5277,-4.5277,-4.5277,-4.5277,-4.5277,-4.5277,-4.5277,-4.5277,-4.5277,-4.5277,-4.5277,-4.5277,-4.5277,-4.5277,-4.5277,-4.5277,-4.5277,-4.5277,-4.5277,-4.5297,-4.5317,-4.5297,-4.5277,-4.5277,-4.5297,-4.5341,-4.5419,-4.5453,-4.5533,-4.5664,-4.5825,-4.5939,-4.4005,-4.4005,-4.4005,-4.4005,-4.4005,-4.4005,-4.4005,-4.4005,-4.4005,-4.4005,-4.4005,-4.4005,-4.4005,-4.4005,-4.4005,-4.4005,-4.4005,-4.4005,-4.4005,-4.4005,-4.4005,-4.4005,-4.3986,-4.3912,-4.3875,-4.3875,-4.3986,-4.3058,-4.1999,-4.1627,-4.0736,-3.964,-3.9231,-3.9101,-3.9101,-3.9101,-3.9101,-3.9101,-3.9101,-3.9101,-3.9101,-3.9101,-3.9101,-3.9129,-3.9272,-3.9427,-3.9623,-3.9717,-3.969,-3.9851,-3.9889,-3.9757,-3.9832,-3.9851,-3.9892,-3.9892,-3.9889,-3.9889,-3.9889,-3.9889,-3.9889,-3.9889,-3.9889,-3.9889,-3.9908,-4.0063,-4.0419,-4.0991,-4.1996,-4.2966,-4.3725,-4.454,-4.4843,-4.4962,-4.501,-4.5057,-4.5148,-4.5192,-4.5233,-4.5297,-4.5297,-4.5277,-4.5277,-4.5277,-4.5277,-4.5277,-4.5277,-4.5277,-4.5277,-4.5277,-4.5277,-4.5277,-4.5277,-4.5277,-4.5277,-4.5277,-4.5277,-4.5277,-4.5277,-4.5277,-4.5277,-4.5277,-4.5277,-4.5277,-4.5277,-4.5277,-4.5277,-4.5317,-4.5317,-4.5339,-4.5381,-4.5435,-4.5519,-4.5684,-4.582,-4.4005,-4.4005,-4.4005,-4.4005,-4.4005,-4.4005,-4.4005,-4.4005,-4.4005,-4.4005,-4.4005,-4.4005,-4.4005,-4.4005,-4.4005,-4.4005,-4.4005,-4.4005,-4.4005,-4.4005,-4.4005,-4.4005,-4.4005,-4.4005,-4.4005,-4.4005,-4.4005,-4.3466,-4.2612,-4.1813,-4.1107,-4.016,-3.938,-3.9101,-3.9101,-3.9101,-3.9101,-3.9101,-3.9101,-3.9101,-3.9101,-3.9101,-3.9101,-3.9129,-3.9324,-3.9477,-3.9556,-3.9758,-3.9867,-3.9889,-3.9889,-3.9889,-3.9889,-3.9889,-3.9889,-3.9889,-3.9889,-3.9889,-3.9889,-3.9889,-3.9889,-3.9889,-3.9889,-3.9889,-3.9946,-4.0536,-4.0934,-4.1484,-4.2526,-4.3644,-4.4445,-4.4743,-4.4876,-4.4919,-4.4938,-4.4962,-4.5014,-4.5103,-4.517,-4.5254,-4.5254,-4.5235,-4.5297,-4.5277,-4.5277,-4.5277,-4.5277,-4.5277,-4.5277,-4.5277,-4.5277,-4.5277,-4.5277,-4.5277,-4.5277,-4.5277,-4.5277,-4.5277,-4.5277,-4.5277,-4.5277,-4.5277,-4.5277,-4.5277,-4.5277,-4.5277,-4.5277,-4.5277,-4.5317,-4.5319,-4.532,-4.5381,-4.5455,-4.5587,-4.5708,-4.4005,-4.4005,-4.4005,-4.4005,-4.4005,-4.4005,-4.4005,-4.4005,-4.4005,-4.4005,-4.4005,-4.4005,-4.4005,-4.4005,-4.4005,-4.4005,-4.4005,-4.4005,-4.4005,-4.4005,-4.4005,-4.4005,-4.4005,-4.4005,-4.4005,-4.4005,-4.4005,-4.3559,-4.2779,-4.1999,-4.1181,-4.0383,-3.9528,-3.9138,-3.9101,-3.9101,-3.9101,-3.9101,-3.9101,-3.9101,-3.9101,-3.9101,-3.9101,-3.9129,-3.9298,-3.9427,-3.9508,-3.9693,-3.9845,-3.9889,-3.9889,-3.9889,-3.9889,-3.9889,-3.9889,-3.9889,-3.9889,-3.9889,-3.9889,-3.9889,-3.9889,-3.9889,-3.9889,-4.0154,-4.04,-4.0991,-4.1616,-4.2299,-4.3189,-4.4023,-4.4781,-4.4895,-4.4895,-4.4895,-4.4895,-4.4919,-4.4962,-4.5033,-4.5122,-4.523,-4.5233,-4.5254,-4.5275,-4.5297,-4.5277,-4.5277,-4.5277,-4.5277,-4.5277,-4.5277,-4.5277,-4.5277,-4.5277,-4.5277,-4.5277,-4.5277,-4.5277,-4.5277,-4.5277,-4.5277,-4.5277,-4.5277,-4.5277,-4.5277,-4.5277,-4.5277,-4.5277,-4.5277,-4.5277,-4.5298,-4.5298,-4.5319,-4.5361,-4.5455,-4.5574,-4.4005,-4.4005,-4.4005,-4.4005,-4.4005,-4.4005,-4.4005,-4.4005,-4.4005,-4.4005,-4.4005,-4.4005,-4.4005,-4.4005,-4.4005,-4.4005,-4.4005,-4.4005,-4.4005,-4.4005,-4.4005,-4.4005,-4.4005,-4.4005,-4.4005,-4.4005,-4.4005,-4.3596,-4.2983,-4.2073,-4.133,-4.0531,-3.9528,-3.9138,-3.9101,-3.9101,-3.9101,-3.9101,-3.9101,-3.9101,-3.9101,-3.9101,-3.9101,-3.9129,-3.9245,-3.9376,-3.9483,-3.9628,-3.9762,-3.987,-3.9889,-3.9889,-3.9889,-3.9889,-3.9889,-3.9889,-3.9889,-3.9889,-3.9889,-3.9889,-3.9889,-3.9889,-4.0079,-4.0419,-4.0991,-4.1579,-4.2356,-4.3133,-4.3891,-4.4232,-4.48,-4.4895,-4.4895,-4.4895,-4.4895,-4.4895,-4.4895,-4.4943,-4.5033,-4.5141,-4.5167,-4.5192,-4.5254,-4.5297,-4.5297,-4.5277,-4.5277,-4.5277,-4.5277,-4.5277,-4.5277,-4.5277,-4.5277,-4.5277,-4.5277,-4.5277,-4.5277,-4.5277,-4.5277,-4.5277,-4.5277,-4.5277,-4.5277,-4.5277,-4.5277,-4.5277,-4.5277,-4.5277,-4.5277,-4.5277,-4.5277,-4.5298,-4.5319,-4.5361,-4.5438,-4.4005,-4.4005,-4.4005,-4.4005,-4.4005,-4.4005,-4.4005,-4.4005,-4.4005,-4.4005,-4.4005,-4.4005,-4.4005,-4.4005,-4.4005,-4.4005,-4.4005,-4.4005,-4.4005,-4.4005,-4.4005,-4.4005,-4.4005,-4.4005,-4.4005,-4.4005,-4.4005,-4.3875,-4.3429,-4.2389,-4.1683,-4.1107,-3.99,-3.9194,-3.9268,-3.9101,-3.9194,-3.9342,-3.9212,-3.9101,-3.9231,-3.9138,-3.9101,-3.9129,-3.9237,-3.9376,-3.9483,-3.9604,-3.9762,-3.9889,-3.9889,-3.9889,-3.9889,-3.9889,-3.9889,-3.9889,-3.9889,-3.9889,-3.9889,-3.9889,-3.9889,-4.0041,-4.0498,-4.0953,-4.1522,-4.2393,-4.317,-4.3682,-4.4308,-4.4743,-4.4857,-4.4895,-4.4895,-4.4895,-4.4895,-4.4895,-4.4895,-4.4919,-4.4943,-4.5033,-4.508,-4.5148,-4.5233,-4.5275,-4.5297,-4.5277,-4.5277,-4.5277,-4.5277,-4.5277,-4.5277,-4.5277,-4.5277,-4.5277,-4.5277,-4.5277,-4.5277,-4.5277,-4.5277,-4.5277,-4.5277,-4.5277,-4.5277,-4.5277,-4.5277,-4.5277,-4.5277,-4.5277,-4.5277,-4.5277,-4.5277,-4.5277,-4.5319,-4.5339,-4.538,-4.4005,-4.4005,-4.4005,-4.4005,-4.4005,-4.4005,-4.4005,-4.4005,-4.4005,-4.4005,-4.4005,-4.4005,-4.4005,-4.4005,-4.4005,-4.4005,-4.4005,-4.4005,-4.4005,-4.4005,-4.4005,-4.4005,-4.4005,-4.4005,-4.4005,-4.4005,-4.4005,-4.4005,-4.3893,-4.2835,-4.2222,-4.1832,-4.0568,-3.9974,-4.0048,-3.9528,-3.9714,-3.9918,-3.9602,-3.9324,-3.9621,-3.938,-3.912,-3.9129,-3.9237,-3.9376,-3.9502,-3.9647,-3.9781,-3.9867,-3.9889,-3.9889,-3.9889,-3.9889,-3.9889,-3.9889,-3.9889,-3.9889,-3.9889,-3.9908,-4.0079,-4.0574,-4.1048,-4.1673,-4.2375,-4.3246,-4.3872,-4.4289,-4.4516,-4.4895,-4.4895,-4.4895,-4.4895,-4.4895,-4.4895,-4.4895,-4.4895,-4.4895,-4.4919,-4.4943,-4.5038,-4.5125,-4.5211,-4.5254,-4.5297,-4.5277,-4.5277,-4.5277,-4.5277,-4.5277,-4.5277,-4.5277,-4.5277,-4.5277,-4.5277,-4.5277,-4.5277,-4.5277,-4.5277,-4.5277,-4.5277,-4.5277,-4.5277,-4.5277,-4.5277,-4.5277,-4.5277,-4.5277,-4.5277,-4.5277,-4.5277,-4.5277,-4.5317,-4.5338,-4.538,-4.4005,-4.4005,-4.4005,-4.4005,-4.4005,-4.4005,-4.4005,-4.4005,-4.4005,-4.4005,-4.4005,-4.4005,-4.4005,-4.4005,-4.4005,-4.4005,-4.4005,-4.4005,-4.4005,-4.4005,-4.4005,-4.4005,-4.4005,-4.4005,-4.4005,-4.4005,-4.4005,-4.4005,-4.3838,-4.3095,-4.2816,-4.2333,-4.1256,-4.0903,-4.1089,-4.0346,-4.068,-4.0457,-4.0197,-3.977,-3.9807,-3.9491,-3.9101,-3.9101,-3.9192,-3.9324,-3.9483,-3.9599,-3.9758,-3.9826,-3.9889,-3.9889,-3.9889,-3.9889,-3.9889,-3.9889,-3.9889,-3.9889,-3.9927,-4.0192,-4.0555,-4.101,-4.1541,-4.245,-4.3208,-4.3796,-4.4251,-4.4743,-4.4895,-4.4895,-4.4895,-4.4895,-4.4895,-4.4895,-4.4895,-4.4895,-4.4895,-4.4895,-4.4895,-4.4943,-4.5014,-4.5084,-4.5148,-4.5254,-4.5297,-4.5277,-4.5277,-4.5277,-4.5277,-4.5277,-4.5277,-4.5277,-4.5277,-4.5277,-4.5277,-4.5277,-4.5277,-4.5277,-4.5277,-4.5277,-4.5277,-4.5277,-4.5277,-4.5277,-4.5277,-4.5277,-4.5277,-4.5277,-4.5277,-4.5277,-4.5277,-4.5297,-4.5317,-4.5338,-4.5359,-4.4005,-4.4005,-4.4005,-4.4005,-4.4005,-4.4005,-4.4005,-4.4005,-4.4005,-4.4005,-4.4005,-4.4005,-4.4005,-4.4005,-4.4005,-4.4005,-4.4005,-4.4005,-4.4005,-4.4005,-4.4005,-4.4005,-4.4005,-4.4005,-4.4005,-4.4005,-4.4005,-4.4005,-4.3856,-4.3225,-4.2872,-4.2649,-4.2073,-4.159,-4.1832,-4.1237,-4.1033,-4.068,-4.042,-4.0011,-3.9528,-3.9342,-3.9268,-3.9194,-3.9249,-3.9283,-3.9471,-3.9526,-3.9647,-3.9867,-3.9889,-3.9889,-3.9889,-3.9889,-3.9889,-3.9889,-3.9889,-3.9889,-4.0079,-4.0669,-4.1181,-4.1711,-4.2469,-4.3322,-4.3853,-4.4326,-4.4687,-4.4819,-4.4895,-4.4895,-4.4895,-4.4895,-4.4895,-4.4895,-4.4895,-4.4895,-4.4895,-4.4895,-4.4895,-4.4919,-4.4991,-4.5038,-4.5103,-4.5213,-4.5277,-4.5277,-4.5277,-4.5277,-4.5277,-4.5277,-4.5277,-4.5277,-4.5277,-4.5277,-4.5277,-4.5277,-4.5277,-4.5277,-4.5277,-4.5277,-4.5277,-4.5277,-4.5277,-4.5277,-4.5277,-4.5277,-4.5277,-4.5277,-4.5277,-4.5277,-4.5277,-4.5277,-4.5297,-4.5317,-4.5338,-4.4005,-4.4005,-4.4005,-4.4005,-4.4005,-4.4005,-4.4005,-4.4005,-4.4005,-4.4005,-4.4005,-4.4005,-4.4005,-4.4005,-4.4005,-4.4005,-4.4005,-4.4005,-4.4005,-4.4005,-4.4005,-4.4005,-4.4005,-4.4005,-4.4005,-4.4005,-4.4005,-4.4005,-4.3856,-4.3726,-4.3485,-4.3336,-4.276,-4.2575,-4.263,-4.1999,-4.2092,-4.2147,-4.2017,-4.133,-4.0736,-4.0476,-4.029,-3.9863,-3.9844,-3.9722,-3.9518,-3.9458,-3.9599,-3.9781,-3.9867,-3.9889,-3.9889,-3.9927,-4.006,-4.065,-4.0669,-4.0647,-4.076,-4.1442,-4.1996,-4.2545,-4.3322,-4.3815,-4.4289,-4.4649,-4.4895,-4.4895,-4.4895,-4.4895,-4.4895,-4.4895,-4.4895,-4.4895,-4.4895,-4.4895,-4.4895,-4.4895,-4.4895,-4.4919,-4.4962,-4.501,-4.508,-4.517,-4.5235,-4.5297,-4.5297,-4.5277,-4.5277,-4.5277,-4.5277,-4.5277,-4.5277,-4.5277,-4.5277,-4.5277,-4.5277,-4.5277,-4.5277,-4.5277,-4.5277,-4.5277,-4.5277,-4.5277,-4.5277,-4.5277,-4.5277,-4.5277,-4.5277,-4.5277,-4.5277,-4.5277,-4.5277,-4.5277,-4.5338,-4.4005,-4.4005,-4.4005,-4.4005,-4.4005,-4.4005,-4.4005,-4.4005,-4.4005,-4.4005,-4.4005,-4.4005,-4.4005,-4.4005,-4.4005,-4.4005,-4.4005,-4.4005,-4.4005,-4.4005,-4.4005,-4.4005,-4.4005,-4.4005,-4.4005,-4.4005,-4.4005,-4.4005,-4.4005,-4.3968,-4.3931,-4.3986,-4.3392,-4.3392,-4.3485,-4.3039,-4.2742,-4.3113,-4.2575,-4.198,-4.1571,-4.1479,-4.1163,-4.0866,-4.0634,-4.0449,-4.0045,-4.0068,-4.0215,-4.0448,-4.0594,-4.0715,-4.0722,-4.0802,-4.0972,-4.1484,-4.1711,-4.1954,-4.2067,-4.2484,-4.3057,-4.3512,-4.3985,-4.4326,-4.4706,-4.4895,-4.4895,-4.4895,-4.4895,-4.4895,-4.4895,-4.4895,-4.4895,-4.4895,-4.4895,-4.4895,-4.4895,-4.4895,-4.4895,-4.4895,-4.4943,-4.501,-4.5057,-4.5106,-4.5192,-4.5275,-4.5297,-4.5297,-4.5277,-4.5277,-4.5277,-4.5277,-4.5277,-4.5277,-4.5277,-4.5277,-4.5277,-4.5277,-4.5277,-4.5277,-4.5277,-4.5277,-4.5277,-4.5277,-4.5277,-4.5277,-4.5277,-4.5277,-4.5277,-4.5277,-4.5277,-4.5277,-4.5277,-4.5277,-4.5298,-4.4005,-4.4005,-4.4005,-4.4005,-4.4005,-4.4005,-4.4005,-4.4005,-4.4005,-4.4005,-4.4005,-4.4005,-4.4005,-4.4005,-4.4005,-4.4005,-4.4005,-4.4005,-4.4005,-4.4005,-4.4005,-4.4005,-4.4005,-4.4005,-4.4005,-4.4005,-4.4005,-4.4005,-4.4005,-4.4005,-4.4005,-4.3968,-4.3782,-4.3893,-4.3931,-4.3652,-4.3225,-4.3243,-4.2556,-4.2129,-4.1906,-4.1832,-4.1702,-4.159,-4.1526,-4.1547,-4.1586,-4.1436,-4.1451,-4.1663,-4.1674,-4.1765,-4.1745,-4.1741,-4.1893,-4.2271,-4.2686,-4.2963,-4.3209,-4.3364,-4.3606,-4.391,-4.4245,-4.4638,-4.4876,-4.4895,-4.4895,-4.4895,-4.4895,-4.4895,-4.4895,-4.4895,-4.4895,-4.4895,-4.4895,-4.4895,-4.4895,-4.4895,-4.4895,-4.4895,-4.4919,-4.4967,-4.5033,-4.5103,-4.5173,-4.5235,-4.5297,-4.5277,-4.5277,-4.5277,-4.5277,-4.5277,-4.5277,-4.5277,-4.5277,-4.5277,-4.5277,-4.5277,-4.5277,-4.5277,-4.5277,-4.5277,-4.5277,-4.5277,-4.5277,-4.5277,-4.5277,-4.5277,-4.5277,-4.5277,-4.5277,-4.5277,-4.5277,-4.5277,-4.5277,-4.4005,-4.4005,-4.4005,-4.4005,-4.4005,-4.4005,-4.4005,-4.4005,-4.4005,-4.4005,-4.4005,-4.4005,-4.4005,-4.4005,-4.4005,-4.4005,-4.4005,-4.4005,-4.4005,-4.4005,-4.4005,-4.4005,-4.4005,-4.4005,-4.4005,-4.4005,-4.4005,-4.4005,-4.4005,-4.4005,-4.4005,-4.4005,-4.4005,-4.4005,-4.4005,-4.4005,-4.3782,-4.3596,-4.3243,-4.3058,-4.3076,-4.3039,-4.2835,-4.2352,-4.2333,-4.2066,-4.1752,-4.1763,-4.1911,-4.2081,-4.2222,-4.2378,-4.2446,-4.234,-4.2479,-4.2775,-4.319,-4.3381,-4.3876,-4.412,-4.444,-4.441,-4.4562,-4.4662,-4.4802,-4.4895,-4.4895,-4.4895,-4.4857,-4.4819,-4.4876,-4.4895,-4.4895,-4.4895,-4.487,-4.4827,-4.4802,-4.4751,-4.4802,-4.4777,-4.4852,-4.4943,-4.501,-4.508,-4.517,-4.5235,-4.5256,-4.5277,-4.5277,-4.5277,-4.5277,-4.5277,-4.5277,-4.5277,-4.5277,-4.5277,-4.5277,-4.5277,-4.5277,-4.5277,-4.5277,-4.5277,-4.5277,-4.5277,-4.5277,-4.5277,-4.5277,-4.5277,-4.5277,-4.5277,-4.5277,-4.5277,-4.5277,-4.5277,-4.5277,-4.3429,-4.3633,-4.3633,-4.3782,-4.3986,-4.4005,-4.4005,-4.4005,-4.4005,-4.4005,-4.4005,-4.4005,-4.4005,-4.4005,-4.4005,-4.4005,-4.4005,-4.4005,-4.4005,-4.4005,-4.4005,-4.4005,-4.4005,-4.4005,-4.4005,-4.4005,-4.4005,-4.4005,-4.4005,-4.4005,-4.4005,-4.4005,-4.4005,-4.4005,-4.4005,-4.4005,-4.4005,-4.4005,-4.4005,-4.4005,-4.3949,-4.3912,-4.3763,-4.3188,-4.315,-4.2983,-4.2642,-4.2627,-4.2687,-4.281,-4.2854,-4.2859,-4.2829,-4.2776,-4.2885,-4.31,-4.3274,-4.3348,-4.3849,-4.4242,-4.4584,-4.4401,-4.4318,-4.4402,-4.4557,-4.4751,-4.4846,-4.4538,-4.4549,-4.4605,-4.4594,-4.4537,-4.4493,-4.443,-4.443,-4.443,-4.4448,-4.4448,-4.4557,-4.4655,-4.4732,-4.4758,-4.4991,-4.508,-4.517,-4.5235,-4.5256,-4.5277,-4.5277,-4.5277,-4.5277,-4.5277,-4.5277,-4.5277,-4.5277,-4.5277,-4.5277,-4.5277,-4.5277,-4.5277,-4.5277,-4.5277,-4.5277,-4.5277,-4.5277,-4.5277,-4.5277,-4.5277,-4.5277,-4.5277,-4.5277,-4.5277,-4.5277,-4.5277,-4.5277,-4.2147,-4.2797,-4.2816,-4.3243,-4.3819,-4.3986,-4.4005,-4.4005,-4.4005,-4.4005,-4.4005,-4.4005,-4.4005,-4.4005,-4.4005,-4.4005,-4.4005,-4.4005,-4.4005,-4.4005,-4.4005,-4.4005,-4.4005,-4.4005,-4.4005,-4.4005,-4.4005,-4.4005,-4.4005,-4.4005,-4.4005,-4.4005,-4.4005,-4.4005,-4.4005,-4.4005,-4.4005,-4.4005,-4.4005,-4.4005,-4.4005,-4.4005,-4.3893,-4.3819,-4.3763,-4.3596,-4.3522,-4.3435,-4.349,-4.3629,-4.3576,-4.3618,-4.3725,-4.3625,-4.3596,-4.3677,-4.3718,-4.3762,-4.3893,-4.3893,-4.3943,-4.4035,-4.4004,-4.4004,-4.4095,-4.4346,-4.4557,-4.4165,-4.399,-4.395,-4.3954,-4.3971,-4.4042,-4.4085,-4.4104,-4.4095,-4.4125,-4.4114,-4.4231,-4.4402,-4.4457,-4.4538,-4.4857,-4.5103,-4.5192,-4.5235,-4.5277,-4.5277,-4.5297,-4.5277,-4.5277,-4.5277,-4.5277,-4.5277,-4.5277,-4.5277,-4.5277,-4.5277,-4.5277,-4.5277,-4.5277,-4.5277,-4.5277,-4.5277,-4.5277,-4.5277,-4.5277,-4.5277,-4.5277,-4.5277,-4.5277,-4.5277,-4.5277,-4.5277,-4.5277,-4.1757,-4.1999,-4.1999,-4.2147,-4.2556,-4.3578,-4.4005,-4.4005,-4.4005,-4.4005,-4.4005,-4.4005,-4.4005,-4.4005,-4.4005,-4.4005,-4.4005,-4.4005,-4.4005,-4.4005,-4.4005,-4.4005,-4.4005,-4.4005,-4.4005,-4.4005,-4.4005,-4.3974,-4.4005,-4.3942,-4.3974,-4.4005,-4.3942,-4.4005,-4.4005,-4.4005,-4.4005,-4.4005,-4.4005,-4.4005,-4.4005,-4.3974,-4.3974,-4.3974,-4.3974,-4.3942,-4.3942,-4.3828,-4.3828,-4.3905,-4.3758,-4.374,-4.3836,-4.3689,-4.3557,-4.349,-4.3413,-4.3263,-4.3231,-4.3266,-4.3474,-4.3623,-4.3689,-4.3656,-4.3912,-4.359,-4.367,-4.3735,-4.35,-4.3553,-4.3788,-4.3904,-4.3923,-4.3931,-4.3913,-4.3897,-4.3881,-4.3804,-4.3836,-4.4065,-4.4194,-4.4511,-4.4833,-4.4948,-4.5042,-4.5192,-4.5235,-4.5275,-4.5297,-4.5297,-4.5277,-4.5277,-4.5277,-4.5277,-4.5277,-4.5277,-4.5277,-4.5277,-4.5277,-4.5277,-4.5277,-4.5277,-4.5277,-4.5277,-4.5277,-4.5277,-4.5277,-4.5277,-4.5277,-4.5277,-4.5277,-4.5277,-4.5277,-4.5277,-4.5277,-4.0903,-4.1181,-4.1181,-4.1349,-4.1776,-4.3039,-4.3708,-4.3949,-4.4005,-4.4005,-4.4005,-4.4005,-4.4005,-4.4005,-4.4005,-4.4005,-4.4005,-4.4005,-4.4005,-4.4005,-4.4005,-4.4005,-4.4005,-4.3974,-4.3942,-4.391,-4.3878,-4.3846,-4.3664,-4.3697,-4.3697,-4.3682,-4.3749,-4.3664,-4.373,-4.3846,-4.4005,-4.3974,-4.3923,-4.3828,-4.3795,-4.3781,-4.3716,-4.3697,-4.3697,-4.3697,-4.3664,-4.3597,-4.3477,-4.3526,-4.344,-4.3353,-4.3387,-4.3336,-4.3178,-4.3105,-4.305,-4.292,-4.2957,-4.2957,-4.3178,-4.344,-4.332,-4.3336,-4.3456,-4.3195,-4.3231,-4.3249,-4.3087,-4.3249,-4.349,-4.3609,-4.3603,-4.3542,-4.3543,-4.3511,-4.3474,-4.3389,-4.3493,-4.3721,-4.3924,-4.4299,-4.4688,-4.4808,-4.4862,-4.5019,-4.517,-4.5213,-4.5275,-4.5297,-4.5297,-4.5277,-4.5277,-4.5277,-4.5277,-4.5277,-4.5277,-4.5277,-4.5277,-4.5277,-4.5277,-4.5277,-4.5277,-4.5277,-4.5277,-4.5277,-4.5277,-4.5277,-4.5277,-4.5277,-4.5277,-4.5277,-4.5277,-4.5277,-4.5277,-3.9574,-4.0308,-4.0364,-4.0773,-4.1523,-4.2198,-4.3083,-4.3912,-4.3949,-4.3949,-4.4005,-4.4005,-4.4005,-4.4005,-4.4005,-4.3974,-4.3974,-4.3974,-4.3942,-4.3942,-4.3942,-4.3942,-4.391,-4.3878,-4.3749,-4.3631,-4.3597,-4.3495,-4.3268,-4.3339,-4.3339,-4.3268,-4.3358,-4.3339,-4.3479,-4.3649,-4.3846,-4.3763,-4.3664,-4.3579,-4.3563,-4.341,-4.3375,-4.3339,-4.3339,-4.3339,-4.3304,-4.3214,-4.3196,-4.3142,-4.3032,-4.2938,-4.29,-4.2842,-4.2802,-4.2822,-4.2862,-4.29,-4.29,-4.29,-4.2938,-4.3087,-4.2995,-4.292,-4.2957,-4.2995,-4.3014,-4.305,-4.2957,-4.2938,-4.2995,-4.3032,-4.3032,-4.3029,-4.3029,-4.3032,-4.3032,-4.3069,-4.316,-4.3301,-4.3474,-4.3799,-4.4252,-4.4465,-4.4572,-4.4789,-4.4929,-4.5084,-4.5148,-4.5297,-4.5297,-4.5256,-4.5277,-4.5277,-4.5277,-4.5277,-4.5277,-4.5277,-4.5277,-4.5277,-4.5277,-4.5277,-4.5277,-4.5277,-4.5277,-4.5277,-4.5277,-4.5277,-4.5277,-4.5277,-4.5277,-4.5277,-4.5277,-4.5277,-4.5277,-3.8872,-3.9261,-3.9261,-3.9409,-3.9674,-4.0257,-4.1488,-4.3008,-4.3163,-4.3423,-4.4005,-4.4005,-4.3825,-4.4005,-4.3795,-4.3841,-4.386,-4.3828,-4.373,-4.373,-4.373,-4.3597,-4.3513,-4.3479,-4.3375,-4.3339,-4.3304,-4.3268,-4.3214,-4.3178,-4.3178,-4.3214,-4.3142,-4.3142,-4.3196,-4.3339,-4.3391,-4.3426,-4.3321,-4.3321,-4.3286,-4.3196,-4.3142,-4.3142,-4.3142,-4.3142,-4.3087,-4.292,-4.2882,-4.2806,-4.2688,-4.2645,-4.2606,-4.2609,-4.267,-4.2826,-4.2864,-4.29,-4.29,-4.29,-4.29,-4.29,-4.29,-4.29,-4.29,-4.29,-4.29,-4.29,-4.29,-4.29,-4.29,-4.29,-4.29,-4.29,-4.29,-4.29,-4.29,-4.2938,-4.3032,-4.3087,-4.3213,-4.3508,-4.3924,-4.4046,-4.4194,-4.4438,-4.4688,-4.4833,-4.5038,-4.517,-4.5275,-4.5235,-4.5256,-4.5277,-4.5277,-4.5277,-4.5277,-4.5277,-4.5277,-4.5277,-4.5277,-4.5277,-4.5277,-4.5277,-4.5277,-4.5277,-4.5277,-4.5277,-4.5277,-4.5277,-4.5277,-4.5277,-4.5277,-4.5277,-4.5277,-3.8496,-3.8621,-3.8634,-3.8652,-3.8695,-3.9008,-4.0088,-4.1414,-4.1894,-4.235,-4.2878,-4.2828,-4.3019,-4.3162,-4.3115,-4.3281,-4.3631,-4.3529,-4.3426,-4.3426,-4.3461,-4.3356,-4.3232,-4.3178,-4.3123,-4.3087,-4.2957,-4.292,-4.29,-4.288,-4.2824,-4.2824,-4.2824,-4.2862,-4.2824,-4.2806,-4.2806,-4.2882,-4.292,-4.2995,-4.2957,-4.292,-4.2862,-4.2862,-4.2862,-4.2862,-4.2862,-4.2613,-4.2573,-4.2534,-4.2427,-4.2445,-4.2463,-4.2486,-4.2631,-4.275,-4.2806,-4.2862,-4.29,-4.29,-4.29,-4.29,-4.29,-4.29,-4.29,-4.29,-4.29,-4.29,-4.29,-4.29,-4.29,-4.29,-4.29,-4.29,-4.29,-4.29,-4.29,-4.29,-4.292,-4.2957,-4.3124,-4.3336,-4.3523,-4.3656,-4.3831,-4.4154,-4.4411,-4.4591,-4.4814,-4.5061,-4.517,-4.5213,-4.5256,-4.5277,-4.5277,-4.5277,-4.5277,-4.5277,-4.5277,-4.5277,-4.5277,-4.5277,-4.5277,-4.5277,-4.5277,-4.5277,-4.5277,-4.5277,-4.5277,-4.5277,-4.5277,-4.5277,-4.5277,-4.5277,-4.5277,-3.835,-3.8382,-3.835,-3.8382,-3.8382,-3.8405,-3.8824,-3.9546,-4.0206,-4.0796,-4.119,-4.1222,-4.1603,-4.2035,-4.2273,-4.2514,-4.2845,-4.2959,-4.2996,-4.3105,-4.3142,-4.3069,-4.305,-4.3105,-4.2844,-4.2729,-4.2652,-4.2631,-4.2391,-4.2409,-4.245,-4.2287,-4.2369,-4.245,-4.2432,-4.2432,-4.2472,-4.253,-4.2631,-4.2691,-4.2613,-4.2472,-4.2287,-4.2369,-4.2369,-4.2369,-4.2369,-4.2328,-4.2287,-4.2287,-4.2287,-4.2346,-4.2364,-4.244,-4.2588,-4.2709,-4.2765,-4.2842,-4.2862,-4.29,-4.29,-4.29,-4.29,-4.29,-4.29,-4.29,-4.29,-4.29,-4.29,-4.29,-4.29,-4.29,-4.29,-4.29,-4.29,-4.29,-4.29,-4.29,-4.29,-4.292,-4.2957,-4.3178,-4.3231,-4.3353,-4.349,-4.3849,-4.4016,-4.4223,-4.4519,-4.4814,-4.5019,-4.5129,-4.5213,-4.5256,-4.5277,-4.5277,-4.5277,-4.5277,-4.5277,-4.5277,-4.5277,-4.5277,-4.5277,-4.5277,-4.5277,-4.5277,-4.5277,-4.5277,-4.5277,-4.5277,-4.5277,-4.5277,-4.5277,-4.5277,-4.5277,-3.7915,-3.8068,-3.8086,-3.8219,-3.8318,-3.7949,-3.8142,-3.8642,-3.8418,-3.9334,-4.0638,-4.0851,-4.0909,-4.1045,-4.1451,-4.1669,-4.1576,-4.2322,-4.2374,-4.2428,-4.2537,-4.2729,-4.2591,-4.2631,-4.2512,-4.2432,-4.2391,-4.2391,-4.2328,-4.2287,-4.2287,-4.2287,-4.2287,-4.2287,-4.2287,-4.2287,-4.2287,-4.2346,-4.2369,-4.2432,-4.2432,-4.2391,-4.2287,-4.2287,-4.2287,-4.2287,-4.2287,-4.2287,-4.2287,-4.2287,-4.2287,-4.2287,-4.2287,-4.2422,-4.2526,-4.2631,-4.2745,-4.2822,-4.288,-4.29,-4.29,-4.29,-4.29,-4.29,-4.29,-4.29,-4.29,-4.29,-4.29,-4.29,-4.29,-4.29,-4.29,-4.29,-4.29,-4.29,-4.29,-4.29,-4.29,-4.29,-4.29,-4.2957,-4.3014,-4.3105,-4.3249,-4.3371,-4.349,-4.3735,-4.4106,-4.4411,-4.4814,-4.4972,-4.517,-4.5233,-4.5256,-4.5277,-4.5277,-4.5277,-4.5277,-4.5277,-4.5277,-4.5277,-4.5277,-4.5277,-4.5277,-4.5277,-4.5277,-4.5277,-4.5277,-4.5277,-4.5277,-4.5277,-4.5277,-4.5277,-4.5277,-3.7685,-3.781,-3.7828,-3.7915,-3.7984,-3.7721,-3.7774,-3.7949,-3.7721,-3.8259,-3.9298,-3.9511,-3.9674,-3.9912,-4.0366,-4.0635,-4.0528,-4.1479,-4.1636,-4.1707,-4.2013,-4.2324,-4.231,-4.2269,-4.2328,-4.2287,-4.2287,-4.2328,-4.2287,-4.2287,-4.2287,-4.2287,-4.2287,-4.2287,-4.2287,-4.2287,-4.2287,-4.2287,-4.2287,-4.2287,-4.2287,-4.2287,-4.2287,-4.2287,-4.2287,-4.2287,-4.2287,-4.2287,-4.2287,-4.2287,-4.2287,-4.2287,-4.2287,-4.2346,-4.2468,-4.2548,-4.2667,-4.2763,-4.2842,-4.29,-4.29,-4.29,-4.29,-4.29,-4.29,-4.29,-4.29,-4.29,-4.29,-4.29,-4.29,-4.29,-4.29,-4.29,-4.29,-4.29,-4.29,-4.29,-4.29,-4.29,-4.29,-4.2938,-4.2957,-4.2995,-4.3087,-4.3142,-4.3231,-4.3371,-4.3703,-4.4046,-4.4438,-4.4789,-4.4972,-4.517,-4.5256,-4.5277,-4.5277,-4.5277,-4.5277,-4.5277,-4.5277,-4.5277,-4.5277,-4.5277,-4.5277,-4.5277,-4.5277,-4.5277,-4.5277,-4.5277,-4.5277,-4.5277,-4.5277,-4.5277,-4.5277,-3.7613,-3.7577,-3.7613,-3.7613,-3.7613,-3.7577,-3.7613,-3.7613,-3.7577,-3.7577,-3.7811,-3.8024,-3.8259,-3.8617,-3.9049,-3.9351,-3.9795,-4.0602,-4.081,-4.0971,-4.1667,-4.1864,-4.206,-4.2216,-4.2251,-4.2287,-4.2287,-4.2287,-4.2287,-4.2287,-4.2287,-4.2287,-4.2287,-4.2287,-4.2287,-4.2287,-4.2287,-4.2287,-4.2287,-4.2287,-4.2287,-4.2287,-4.2287,-4.2287,-4.2287,-4.2287,-4.2287,-4.2287,-4.2287,-4.2287,-4.2287,-4.2287,-4.2287,-4.2328,-4.2391,-4.249,-4.2562,-4.2663,-4.2783,-4.2844,-4.2882,-4.29,-4.29,-4.29,-4.29,-4.29,-4.29,-4.29,-4.29,-4.29,-4.29,-4.29,-4.29,-4.29,-4.29,-4.29,-4.29,-4.29,-4.29,-4.29,-4.29,-4.29,-4.29,-4.29,-4.292,-4.2976,-4.3087,-4.3213,-4.344,-4.3735,-4.4087,-4.4447,-4.472,-4.4953,-4.5194,-4.5297,-4.5297,-4.5277,-4.5277,-4.5277,-4.5277,-4.5277,-4.5277,-4.5277,-4.5277,-4.5277,-4.5277,-4.5277,-4.5277,-4.5277,-4.5277,-4.5277,-4.5277,-4.5277,-4.5277,-3.7577,-3.7577,-3.7577,-3.7577,-3.7577,-3.7577,-3.7577,-3.7577,-3.7577,-3.7577,-3.7613,-3.7631,-3.7774,-3.788,-3.8613,-3.8827,-3.8577,-3.9521,-3.9575,-3.9468,-4.077,-4.1199,-4.1591,-4.2073,-4.2234,-4.2287,-4.2287,-4.2287,-4.2287,-4.2287,-4.2287,-4.2287,-4.2287,-4.2287,-4.2287,-4.2287,-4.2287,-4.2287,-4.2287,-4.2287,-4.2287,-4.2287,-4.2287,-4.2287,-4.2287,-4.2287,-4.2287,-4.2287,-4.2287,-4.2287,-4.2287,-4.2287,-4.2287,-4.2287,-4.2351,-4.2427,-4.2521,-4.2624,-4.2745,-4.2806,-4.2844,-4.29,-4.29,-4.29,-4.29,-4.29,-4.29,-4.29,-4.29,-4.29,-4.29,-4.29,-4.29,-4.29,-4.29,-4.29,-4.29,-4.29,-4.29,-4.29,-4.29,-4.29,-4.29,-4.29,-4.29,-4.292,-4.292,-4.3087,-4.3142,-4.3422,-4.3781,-4.4117,-4.4493,-4.4814,-4.5129,-4.5275,-4.5297,-4.5297,-4.5277,-4.5277,-4.5277,-4.5277,-4.5277,-4.5277,-4.5277,-4.5277,-4.5277,-4.5277,-4.5277,-4.5277,-4.5277,-4.5277,-4.5277,-4.5277,-4.5277]}]]